[[{"header":{"parameterUnit":"m.s-1","parameterCategory":1,"la1":30.6,"la2":29.2853,"lo1":-89.7004,"lo2":-87.6739,"dy":0.0162,"dx":0.0183,"nx":112,"ny":82,"refTime":"2026-05-09T12:00:00:Z","depth":0,"parameterNumber":2,"parameterNumberName":"U-component_of_WINDS"},"data":[0.0,0.0,0.0,0.0,0.0,0.0,0.0,0.0,0.0,0.0,0.0,0.0,0.0,0.0,0.0,0.0,0.0,0.0,0.0,0.0,0.0,0.0,0.0,0.0,0.0,0.0,0.0,0.0,0.0,0.0,0.0,0.0,0.0,0.0,0.0,0.0,0.0,0.0,0.0,0.0,0.0,0.0,0.0,0.0,0.0,0.0,0.0,0.0,0.0,0.0,0.0,0.0,0.0,0.0,0.0,0.0,0.0,0.0,0.0,0.0,0.0,0.0,0.0,0.0,0.0,0.0,0.0,0.0,0.0,0.0,0.0,0.0,0.0,0.0,0.0,0.0,0.0,0.0,0.0,0.0,0.0,0.0,0.0,0.0,0.0,0.0,0.0,0.0,0.0,0.0,-0.4174,-0.4252,-0.771,-1.0715,-1.2482,-1.6199,-1.8416,-1.8383,0.0,0.0,0.0,0.0,0.0,0.0,0.0,0.0,0.0,0.0,0.0,0.0,0.0,0.0,0.0,0.0,0.0,0.0,0.0,0.0,0.0,0.0,0.0,0.0,0.0,0.0,0.0,0.0,0.0,0.0,0.0,0.0,0.0,0.0,0.0,0.0,0.0,0.0,0.0,0.0,0.0,0.0,0.0,0.0,0.0,0.0,0.0,0.0,0.0,0.0,0.0,0.0,0.0,0.0,0.0,0.0,0.0,0.0,0.0,0.0,0.0,0.0,0.0,0.0,0.0,0.0,0.0,0.0,0.0,0.0,0.0,0.0,0.0,0.0,0.0,0.0,0.0,0.0,0.0,0.0,0.0,0.0,0.0,0.0,0.0,0.0,0.0,0.0,0.0,0.0,0.0,0.0,0.0,0.0,0.0,0.0,0.0,0.0,0.0,0.0,0.0,0.0,0.0,0.0,-0.314,-0.3596,-0.696,-1.0164,-1.2572,-1.5779,-1.8117,-1.9149,0.0,0.0,0.0,0.0,0.0,0.0,0.0,0.0,0.0,0.0,0.0,0.0,0.0,0.0,0.0,0.0,0.0,0.0,0.0,0.0,0.0,0.0,0.0,0.0,0.0,0.0,0.0,0.0,0.0,0.0,0.0,0.0,0.0,0.0,0.0,0.0,0.0,0.0,0.0,0.0,0.0,0.0,0.0,0.0,0.0,0.0,0.0,0.0,0.0,0.0,0.0,0.0,0.0,0.0,0.0,0.0,0.0,0.0,0.0,0.0,0.0,0.0,0.0,0.0,0.0,0.0,0.0,0.0,0.0,0.0,0.0,0.0,0.0,0.0,0.0,0.0,0.0,0.0,0.0,0.0,0.0,0.0,0.0,0.0,0.0,0.0,0.0,0.0,0.0,0.0,0.0,0.0,0.0,0.0,0.0,0.0,0.0,0.0,0.0,0.0,0.0,0.0,0.0,-0.4113,-0.3716,-0.397,-0.7064,-1.0039,-1.2396,-1.5376,-1.7748,-1.9206,-1.9447,0.0,0.0,0.0,0.0,0.0,0.0,0.0,0.0,0.0,0.0,0.0,0.0,0.0,0.0,0.0,0.0,0.0,0.0,0.0,0.0,0.0,0.0,0.0,0.0,0.0,0.0,0.0,0.0,0.0,0.0,0.0,0.0,0.0,0.0,0.0,0.0,0.0,0.0,0.0,0.0,0.0,0.0,0.0,0.0,0.0,0.0,0.0,0.0,0.0,0.0,0.0,0.0,0.0,0.0,0.0,0.0,0.0,0.0,0.0,0.0,0.0,0.0,0.0,0.0,0.0,0.0,0.0,0.0,0.0,0.0,0.0,0.0,0.0,0.0,0.0,0.0,0.0,0.0,0.0,0.0,0.0,0.0,0.0,0.0,0.0,0.0,0.0,0.0,0.0,0.0,0.0,0.0,0.0,0.0,0.0,0.0,0.0,0.0,0.0,0.0,0.0,0.0,-0.4317,-0.4448,-0.4574,-0.7356,-1.0115,-1.2279,-1.5089,-1.7381,-1.8895,-1.9511,0.0,0.0,0.0,0.0,0.0,0.0,0.0,0.0,0.0,0.0,0.0,0.0,0.0,0.0,0.0,0.0,0.0,0.0,0.0,0.0,0.0,0.0,0.0,0.0,0.0,0.0,0.0,0.0,0.0,0.0,0.0,0.0,0.0,0.0,0.0,0.0,0.0,0.0,0.0,0.0,0.0,0.0,0.0,0.0,0.0,0.0,0.0,0.0,0.0,0.0,0.0,0.0,0.0,0.0,0.0,0.0,0.0,0.0,0.0,0.0,0.0,0.0,0.0,0.0,0.0,0.0,0.0,0.0,0.0,0.0,0.0,0.0,0.0,0.0,0.0,0.0,0.0,0.0,0.0,0.0,0.0,0.0,0.0,0.0,0.0,0.0,0.0,0.0,0.0,0.0,0.0,0.0,0.0,0.0,0.0,0.0,0.0,0.0,0.0,0.0,0.0,0.0,-0.4055,-0.4591,-0.5083,-0.7633,-1.0213,-1.2489,-1.5044,-1.7047,-1.8291,-1.8927,0.0,0.0,0.0,0.0,0.0,0.0,0.0,0.0,0.0,0.0,0.0,0.0,0.0,0.0,0.0,0.0,0.0,0.0,0.0,0.0,0.0,0.0,0.0,0.0,0.0,0.0,0.0,0.0,0.0,0.0,0.0,0.0,0.0,0.0,0.0,0.0,0.0,0.0,0.0,0.0,0.0,0.0,0.0,0.0,0.0,0.0,0.0,0.0,0.0,0.0,0.0,0.0,0.0,0.0,0.0,0.0,0.0,0.0,0.0,0.0,0.0,0.0,0.0,0.0,0.0,0.0,0.0,0.0,0.0,0.0,0.0,0.0,0.0,0.0,0.0,0.0,0.0,0.0,0.0,0.0,0.0,0.0,0.0,0.0,0.0,0.0,0.0,0.0,0.0,0.0,0.0,0.0,0.0,0.0,0.0,0.0,0.0,0.0,0.0,0.0,0.0,0.0,-0.4822,-0.5038,-0.5234,-0.7451,-0.9811,-1.2012,-1.432,-1.641,-1.8254,0.0,0.0,0.0,0.0,0.0,0.0,0.0,0.0,0.0,0.0,0.0,0.0,0.0,0.0,0.0,0.0,0.0,0.0,0.0,0.0,0.0,0.0,0.0,0.0,0.0,0.0,0.0,0.0,0.0,0.0,0.0,0.0,0.0,0.0,0.0,0.0,0.0,0.0,0.0,0.0,0.0,0.0,0.0,0.0,0.0,0.0,0.0,0.0,0.0,0.0,0.0,0.0,0.0,0.0,0.0,0.0,0.0,0.0,0.0,0.0,0.0,0.0,0.0,0.0,0.0,0.0,0.0,0.0,0.0,0.0,0.0,0.0,0.0,0.0,0.0,0.0,0.0,0.0,0.0,0.0,0.0,0.0,0.0,0.0,0.0,0.0,0.0,0.0,0.0,0.0,0.0,0.0,0.0,0.0,0.0,0.0,0.0,0.0,0.0,0.0,0.0,0.0,-0.5324,-0.5303,-0.5367,-0.5529,-0.7706,-0.9954,-1.1978,-1.4124,-1.6192,-1.8172,0.0,0.0,0.0,0.0,0.0,0.0,0.0,0.0,0.0,0.0,0.0,0.0,0.0,0.0,0.0,0.0,0.0,0.0,0.0,0.0,0.0,0.0,0.0,0.0,0.0,0.0,0.0,0.0,0.0,0.0,0.0,0.0,0.0,0.0,0.0,0.0,0.0,0.0,0.0,0.0,0.0,0.0,0.0,0.0,0.0,0.0,0.0,0.0,0.0,0.0,0.0,0.0,0.0,0.0,0.0,0.0,0.0,0.0,0.0,0.0,0.0,0.0,0.0,0.0,0.0,0.0,0.0,0.0,0.0,0.0,0.0,0.0,0.0,0.0,0.0,0.0,0.0,0.0,0.0,0.0,0.0,0.0,0.0,0.0,0.0,0.0,0.0,0.0,0.0,0.0,0.0,0.0,0.0,0.0,0.0,0.0,0.0,0.0,0.0,0.0,0.0,0.0,-0.5367,-0.5303,-0.5508,-0.6035,-0.8495,-1.0798,-1.256,-1.4674,-1.6534,0.0,0.0,0.0,0.0,0.0,0.0,0.0,0.0,0.0,0.0,0.0,0.0,0.0,0.0,0.0,0.0,0.0,0.0,0.0,0.0,0.0,0.0,0.0,0.0,0.0,0.0,0.0,0.0,0.0,0.0,0.0,0.0,0.0,0.0,0.0,0.0,0.0,0.0,0.0,0.0,0.0,0.0,0.0,0.0,0.0,0.0,0.0,0.0,0.0,0.0,0.0,0.0,0.0,0.0,0.0,0.0,0.0,0.0,0.0,0.0,0.0,0.0,0.0,0.0,0.0,0.0,0.0,0.0,0.0,0.0,0.0,0.0,0.0,0.0,0.0,0.0,0.0,0.0,0.0,0.0,0.0,0.0,0.0,0.0,0.0,0.0,0.0,0.0,0.0,0.0,0.0,0.0,0.0,0.0,0.0,0.0,0.0,0.0,0.0,0.0,0.0,0.0,0.0,-0.5367,-0.5303,-0.5508,-0.6035,-0.8454,-1.0754,-1.2547,-1.4802,-1.6681,-1.8028,0.0,0.0,0.0,0.0,0.0,0.0,0.0,0.0,0.0,0.0,0.0,0.0,0.0,0.0,0.0,0.0,0.0,0.0,0.0,0.0,0.0,0.0,0.0,0.0,0.0,0.0,0.0,0.0,0.0,0.0,0.0,0.0,0.0,0.0,0.0,0.0,0.0,0.0,0.0,0.0,0.0,0.0,0.0,0.0,0.0,0.0,0.0,0.0,0.0,0.0,0.0,0.0,0.0,0.0,0.0,0.0,0.0,0.0,0.0,0.0,0.0,0.0,0.0,0.0,0.0,0.0,0.0,0.0,0.0,0.0,0.0,0.0,0.0,0.0,0.0,0.0,0.0,0.0,0.0,0.0,0.0,0.0,0.0,0.0,0.0,0.0,0.0,0.0,0.0,0.0,0.0,0.0,0.0,0.0,0.0,0.0,0.0,0.0,0.0,0.0,0.0,0.0,-0.5405,-0.5303,-0.5508,-0.6035,-0.8474,-1.0824,-1.275,-1.4844,-1.6579,-1.775,0.0,0.0,0.0,0.0,0.0,0.0,0.0,0.0,0.0,0.0,0.0,0.0,0.0,0.0,0.0,0.0,0.0,0.0,0.0,0.0,0.0,0.0,0.0,0.0,0.0,0.0,0.0,0.0,0.0,0.0,0.0,0.0,0.0,0.0,0.0,0.0,0.0,0.0,0.0,0.0,0.0,0.0,0.0,0.0,0.0,0.0,0.0,0.0,0.0,0.0,0.0,0.0,0.0,0.0,0.0,0.0,0.0,0.0,0.0,0.0,0.0,0.0,0.0,0.0,0.0,0.0,0.0,0.0,0.0,0.0,0.0,0.0,0.0,0.0,0.0,0.0,0.0,0.0,0.0,0.0,0.0,0.0,0.0,0.0,0.0,0.0,0.0,0.0,0.0,0.0,0.0,0.0,0.0,0.0,0.0,0.0,0.0,0.0,0.0,0.0,0.0,0.0,-0.5449,-0.5303,-0.5529,-0.6114,-0.8561,-1.1006,-1.3044,-1.4845,-1.6289,-1.7291,0.0,0.0,0.0,0.0,0.0,0.0,0.0,0.0,0.0,0.0,0.0,0.0,0.0,0.0,0.0,0.0,0.0,0.0,0.0,0.0,0.0,0.0,0.0,0.0,0.0,0.0,0.0,0.0,0.0,0.0,0.0,0.0,0.0,0.0,0.0,0.0,0.0,0.0,0.0,0.0,0.0,0.0,0.0,0.0,0.0,0.0,0.0,0.0,0.0,0.0,0.0,0.0,0.0,0.0,0.0,0.0,0.0,0.0,0.0,0.0,-1.6966,-1.7561,0.0,0.0,0.0,0.0,0.0,0.0,0.0,0.0,0.0,0.0,0.0,0.0,0.0,0.0,0.0,0.0,0.0,0.0,0.0,0.0,0.0,0.0,0.0,0.0,0.0,0.0,0.0,0.0,0.0,0.0,0.0,0.0,0.0,0.0,0.0,0.0,0.0,0.0,0.0,0.0,-0.5449,-0.5303,-0.5674,-0.6636,-0.9069,-1.1407,-1.3282,-1.4717,-1.5951,-1.6929,-1.6721,0.0,0.0,0.0,0.0,0.0,0.0,0.0,0.0,0.0,0.0,0.0,0.0,0.0,0.0,0.0,0.0,0.0,0.0,0.0,0.0,0.0,0.0,0.0,0.0,0.0,0.0,0.0,0.0,0.0,0.0,0.0,0.0,0.0,0.0,0.0,0.0,0.0,0.0,0.0,0.0,0.0,0.0,0.0,0.0,0.0,0.0,0.0,0.0,0.0,0.0,0.0,0.0,0.0,0.0,0.0,0.0,0.0,0.0,0.0,-1.6418,-1.6982,0.0,0.0,0.0,0.0,0.0,0.0,0.0,0.0,0.0,0.0,0.0,0.0,0.0,0.0,0.0,0.0,0.0,0.0,0.0,0.0,0.0,0.0,0.0,0.0,0.0,0.0,0.0,0.0,0.0,0.0,0.0,0.0,0.0,0.0,0.0,0.0,0.0,0.0,0.0,0.0,-0.5449,-0.5303,-0.561,-0.6439,-0.8689,-1.0862,-1.2667,-1.3913,-1.4931,-1.5787,-1.5686,0.0,0.0,0.0,0.0,0.0,0.0,0.0,0.0,0.0,0.0,0.0,0.0,0.0,0.0,0.0,0.0,0.0,0.0,0.0,0.0,0.0,0.0,0.0,0.0,0.0,0.0,0.0,0.0,0.0,0.0,0.0,0.0,0.0,0.0,0.0,0.0,0.0,0.0,0.0,0.0,0.0,0.0,0.0,0.0,0.0,0.0,0.0,0.0,0.0,0.0,0.0,0.0,0.0,-1.1813,-1.2399,-1.3659,-1.3174,-1.3756,-1.5213,-1.5533,-1.6097,-1.6815,-1.6977,0.0,0.0,0.0,0.0,0.0,0.0,0.0,0.0,0.0,0.0,0.0,0.0,0.0,0.0,0.0,0.0,0.0,0.0,0.0,0.0,0.0,0.0,-1.4548,-1.4626,-1.4858,-1.5427,-1.6758,0.0,0.0,0.0,0.0,0.0,0.0,0.0,0.0,0.0,0.0,0.0,-0.5276,-0.5238,-0.5508,-0.6035,-0.8071,-1.0079,-1.1733,-1.2782,-1.3656,-1.4381,-1.4447,-1.4348,0.0,0.0,0.0,0.0,0.0,0.0,0.0,0.0,0.0,0.0,0.0,0.0,0.0,0.0,0.0,0.0,0.0,0.0,0.0,0.0,0.0,0.0,0.0,0.0,0.0,0.0,0.0,0.0,0.0,0.0,0.0,0.0,-1.0482,-1.0908,0.0,0.0,0.0,0.0,0.0,0.0,0.0,0.0,0.0,0.0,0.0,0.0,0.0,-1.1352,-1.1104,-1.1738,-1.2062,-1.2077,-1.1588,-1.2009,-1.3176,-1.2595,-1.2765,-1.3518,-1.3572,0.0,-1.6802,-1.6828,0.0,0.0,0.0,0.0,0.0,0.0,0.0,0.0,0.0,0.0,0.0,0.0,0.0,0.0,0.0,0.0,0.0,0.0,0.0,0.0,0.0,0.0,-1.283,-1.3187,-1.3295,-1.3458,-1.3954,-1.4935,-1.5714,-1.5761,-1.5404,-1.4531,0.0,0.0,0.0,0.0,0.0,0.0,-0.4665,-0.4978,-0.5508,-0.6035,-0.8071,-0.9828,-1.0878,-1.1576,-1.2348,-1.3245,-1.3163,-1.3301,-1.3835,-1.4042,0.0,0.0,0.0,0.0,0.0,0.0,0.0,0.0,0.0,0.0,0.0,0.0,0.0,0.0,0.0,0.0,0.0,0.0,0.0,0.0,0.0,0.0,0.0,0.0,0.0,0.0,0.0,0.0,0.0,-0.9448,-1.009,-1.0008,-1.0198,-1.027,0.0,0.0,0.0,0.0,0.0,0.0,0.0,0.0,0.0,-0.9914,-1.0148,-1.0404,-1.0653,-1.0965,-1.1126,-1.1093,-1.1501,-1.1634,-1.1535,-1.1968,-1.2486,-1.305,-1.26,-1.2686,-1.3304,-1.5374,-1.6232,-1.6148,0.0,0.0,0.0,0.0,-1.4084,-1.4339,-1.4292,-1.4589,-1.4942,-1.4749,0.0,0.0,0.0,0.0,0.0,0.0,0.0,-1.1847,-1.2025,-1.2067,-1.2121,-1.2271,-1.2342,-1.2372,-1.2511,-1.2736,-1.3209,-1.4225,-1.4124,-1.3441,-1.2095,-1.1461,0.0,0.0,0.0,-0.5695,-0.4539,-0.4935,-0.5389,-0.5631,-0.739,-0.8862,-0.9619,-1.0066,-1.0776,-1.1908,-1.1926,-1.2297,-1.3199,-1.354,-1.3899,0.0,0.0,0.0,0.0,0.0,0.0,0.0,0.0,0.0,0.0,0.0,0.0,0.0,0.0,0.0,0.0,0.0,0.0,0.0,0.0,0.0,0.0,0.0,0.0,0.0,0.0,0.0,0.0,-0.9102,-0.9508,-0.9323,-0.9436,-0.9533,0.0,0.0,0.0,0.0,0.0,0.0,-0.8962,-0.8707,-0.8794,-0.9308,-0.9326,-0.9648,-1.0303,-1.0518,-1.0518,-1.0322,-1.1602,-1.1777,-1.0978,-1.1292,-1.2004,-1.2936,-1.2334,-1.1527,-1.0835,-1.3348,-1.4391,-1.4265,-1.2956,-1.2018,-1.1523,-1.2336,-1.2881,-1.3175,-1.2773,-1.3226,-1.3903,-1.3497,-1.3569,-1.3822,-1.381,0.0,0.0,0.0,0.0,-1.1423,-1.1423,-1.1423,-1.1423,-1.1423,-1.13,-1.1196,-1.1196,-1.075,-1.0837,-1.2504,-1.2523,-1.1989,-1.1183,-1.0456,0.0,-0.7573,-0.6376,-0.532,-0.4325,-0.4848,-0.5303,-0.5303,-0.6867,-0.8084,-0.8532,-0.8979,-0.9638,-1.0571,-1.0931,-1.1593,-1.269,-1.3112,-1.3709,-1.4535,0.0,0.0,0.0,0.0,0.0,0.0,0.0,0.0,0.0,0.0,0.0,0.0,0.0,0.0,0.0,0.0,0.0,0.0,0.0,0.0,0.0,0.0,0.0,0.0,0.0,0.0,0.0,0.0,0.0,-0.9244,-0.8871,0.0,0.0,0.0,0.0,-0.8009,-0.8057,-0.806,-0.806,-0.8467,-0.8824,-0.9095,-0.9111,-0.9499,-1.0283,-1.1115,-1.1115,-1.0322,-1.2044,-1.2827,-1.2701,-1.0588,-1.0839,-1.2909,-1.286,-1.2345,-1.1479,-1.0835,-1.0581,-1.0562,-1.0486,-1.0409,-1.0467,-1.114,-1.142,-1.1427,-1.1401,-1.1882,-1.2466,-1.226,-1.2574,-1.2985,-1.26,-1.2135,0.0,0.0,-1.0725,-1.038,-1.038,-1.038,-1.038,-1.038,-0.9991,-0.9617,-0.9617,-0.9191,-0.9244,-1.0737,-1.062,-1.0098,-0.9594,0.0,-0.747,-0.6361,-0.5213,-0.4286,-0.3711,-0.4618,-0.5303,-0.5303,-0.6867,-0.7904,-0.7951,-0.8845,-0.9361,-0.9301,-1.0303,-1.1391,-1.246,-1.3073,-1.4068,-1.5501,-1.615,0.0,0.0,0.0,0.0,0.0,0.0,0.0,0.0,0.0,0.0,0.0,0.0,0.0,0.0,0.0,0.0,0.0,0.0,0.0,0.0,0.0,0.0,0.0,0.0,0.0,0.0,0.0,0.0,-0.8088,-0.8129,0.0,-0.8184,-0.8045,-0.809,-0.8389,-0.8115,-0.7933,-0.7933,-0.7734,-0.7824,-0.8309,-0.8504,-0.8979,-0.9766,-1.0077,-1.0836,-1.1963,-1.0821,-1.0259,-1.0303,-1.1237,-1.1628,-1.1566,-1.2106,-1.2197,-1.1898,-1.0907,-1.0757,-1.1145,-1.1145,-1.1242,-1.139,-1.1225,-1.1176,-1.1166,-1.1065,-1.1541,-1.2163,-1.1974,-1.1593,-1.1163,-1.1028,-1.0426,-0.9739,-0.957,-0.941,-0.9339,-0.9696,-0.9518,-0.9359,-0.9696,-0.9379,-0.8978,-0.8978,-0.8561,-0.8349,-0.8864,-0.9087,-0.9027,-0.8529,-0.7769,-0.6884,-0.5754,-0.5233,-0.4761,-0.418,-0.5156,-0.5873,-0.5873,-0.7084,-0.7911,-0.7961,-0.8616,-0.9137,-0.9435,-1.0011,-1.0829,-1.1939,-1.2658,-1.3558,-1.4681,-1.5548,-1.6108,0.0,0.0,0.0,0.0,0.0,0.0,0.0,0.0,0.0,0.0,0.0,0.0,0.0,0.0,0.0,0.0,0.0,0.0,0.0,0.0,0.0,0.0,0.0,0.0,0.0,-0.7899,-0.769,-0.7588,-0.7633,-0.7665,-0.7665,-0.7665,-0.7796,-0.81,-0.7801,-0.7593,-0.7593,-0.7217,-0.727,-0.7874,-0.806,-0.8523,-0.9252,-0.926,-1.0019,-1.1501,-0.9673,-0.8804,-0.8883,-1.1141,-1.195,-1.1516,-1.1807,-1.1973,-1.2016,-1.1305,-1.114,-1.1297,-1.1006,-1.1161,-1.1429,-1.0699,-1.0474,-1.0554,-1.0462,-1.0792,-1.1194,-1.1075,-1.0544,-0.9974,-0.9974,-0.9429,-0.8836,-0.8836,-0.8774,-0.8777,-0.9139,-0.8958,-0.8777,-0.9139,-0.8817,-0.8439,-0.8439,-0.7987,-0.7593,-0.7593,-0.7876,-0.8021,-0.7655,-0.7119,-0.648,-0.5717,-0.5437,-0.5151,-0.4761,-0.5588,-0.6264,-0.6444,-0.7321,-0.7985,-0.822,-0.8718,-0.9115,-0.9323,-0.9951,-1.0716,-1.1663,-1.2447,-1.3369,-1.4458,-1.5247,-1.5458,-1.5096,0.0,0.0,0.0,0.0,0.0,0.0,0.0,0.0,0.0,0.0,0.0,0.0,0.0,0.0,0.0,0.0,0.0,0.0,0.0,0.0,0.0,0.0,0.0,-0.7918,-0.7525,-0.7351,-0.7812,-0.7363,-0.7,-0.7,-0.7,-0.7,-0.7,-0.7,-0.7,-0.7,-0.7,-0.7266,-0.7859,-0.7899,-0.8185,-0.8784,-0.8798,-0.8804,-0.8804,-0.8804,-0.8804,-0.8831,-1.0192,-1.1534,-1.2774,-1.208,-1.1765,-1.1765,-1.174,-1.1366,-1.0697,-0.9857,-0.9983,-1.049,-0.9504,-0.9304,-0.9528,-0.9528,-0.9528,-0.9528,-0.9497,-0.9489,-0.9466,-0.9466,-0.927,-0.9061,-0.9061,-0.8843,-0.8655,-0.8675,-0.8655,-0.8655,-0.8675,-0.8255,-0.787,-0.787,-0.7405,-0.7,-0.7,-0.7,-0.7,-0.7,-0.6562,-0.6206,-0.6206,-0.5701,0.0,-0.5324,-0.5852,-0.6428,-0.6952,-0.7537,-0.8118,-0.8655,-0.9199,-0.9316,-0.8872,-1.0131,-1.1121,-1.1654,-1.2494,-1.3579,-1.4899,-1.5257,-1.4718,-1.3267,0.0,0.0,0.0,0.0,0.0,0.0,0.0,0.0,0.0,0.0,0.0,0.0,0.0,0.0,0.0,0.0,0.0,0.0,0.0,0.0,0.0,-0.696,-0.725,-0.785,-0.7415,-0.7093,-0.7224,-0.7105,-0.7,-0.7,-0.7,-0.7,-0.7,-0.7,-0.7,-0.7,-0.7,-0.708,-0.7246,-0.7679,-0.8052,-0.8352,-0.8664,-0.8804,-0.8804,-0.8804,-0.8804,-0.8831,-0.9891,-1.0576,-1.0956,-1.104,-1.1065,-1.104,-1.0534,-1.0364,-1.0373,-1.0425,-1.0557,-1.0689,-1.0121,-0.9936,-1.0018,-1.0018,-1.0018,-0.9953,-0.9615,-0.9244,-0.8928,-0.8928,-0.8467,-0.7951,-0.7951,-0.7724,-0.7558,-0.8008,-0.7793,-0.7586,-0.8008,-0.7676,-0.7259,-0.7259,-0.7105,-0.7,-0.7,-0.7,-0.7,-0.7,-0.6562,-0.6206,-0.6206,-0.605,-0.5959,-0.5959,-0.6428,-0.6831,-0.6993,-0.7551,-0.8118,-0.8655,-0.9199,-0.9611,-0.9877,-1.024,-1.0689,-1.1173,-1.1743,-1.2533,-1.3523,-1.3644,-1.3258,0.0,0.0,0.0,0.0,0.0,0.0,0.0,0.0,0.0,0.0,0.0,0.0,0.0,0.0,0.0,0.0,0.0,0.0,0.0,0.0,0.0,0.0,-0.6705,-0.7049,-0.7175,-0.688,-0.6668,-0.6668,-0.6852,-0.7,-0.7,-0.7,-0.7,-0.7,-0.7,-0.7,-0.7,-0.7,-0.712,-0.7373,-0.7719,-0.8079,-0.8438,-0.8691,-0.8804,-0.8804,-0.8804,-0.8804,-0.8831,-0.9762,-1.0192,-1.0218,-1.0644,-1.0644,-1.0338,-0.9961,-0.9718,-0.964,0.0,0.0,0.0,0.0,-0.9547,-0.9449,-0.9585,-0.9605,-0.9575,-0.9281,-0.8984,-0.8746,-0.8746,-0.8342,-0.7826,-0.7605,-0.7375,-0.7267,-0.7461,-0.7259,-0.7084,-0.7447,-0.7252,-0.7,-0.7,-0.7,-0.7,-0.7,-0.7,0.0,-0.7,-0.6753,-0.6541,-0.6541,-0.6541,-0.6541,-0.6541,-0.681,-0.7084,-0.7342,-0.7683,-0.8201,-0.8978,-0.9319,0.0,0.0,0.0,-1.0821,-1.1319,-1.1339,0.0,0.0,0.0,0.0,0.0,0.0,0.0,0.0,-1.1261,-1.1395,0.0,0.0,0.0,0.0,0.0,0.0,0.0,0.0,0.0,0.0,0.0,0.0,0.0,0.0,0.0,0.0,-0.6713,-0.6809,-0.6226,-0.6198,-0.6235,-0.6206,-0.6566,-0.6842,-0.6894,-0.6953,-0.6981,-0.7006,-0.7033,-0.7053,-0.7053,-0.6956,0.0,0.0,0.0,-0.7993,-0.862,-0.8659,-0.8725,-0.8804,-0.8804,-0.8804,-0.8831,-0.9666,-1.0038,-1.0064,-1.0415,-1.0244,-0.9692,-0.9692,-0.9335,-0.8804,-0.8804,-0.8784,-0.8764,-0.8798,-0.8644,-0.8489,-0.8717,0.0,0.0,-0.8804,-0.8804,-0.8804,-0.8804,-0.8604,-0.8295,-0.7782,-0.7578,-0.7417,-0.708,-0.7,-0.7,-0.7,-0.7,-0.7,-0.7,-0.7,-0.7,-0.7,-0.7,-0.7,-0.7,-0.7,-0.7,-0.7,-0.7,-0.7,-0.7,-0.7,-0.721,-0.7746,-0.7808,0.0,-0.9239,-0.9319,-0.9538,-1.0088,-1.0505,-1.0952,-1.1431,-1.0948,-1.0644,-1.0644,-1.0185,-0.975,-0.9325,-0.9325,-0.9082,-0.8692,-1.0021,-1.0166,0.0,0.0,0.0,0.0,0.0,0.0,0.0,0.0,0.0,0.0,0.0,0.0,0.0,0.0,0.0,-0.6658,-0.6854,-0.6789,-0.5914,-0.6214,-0.6436,-0.6229,-0.5958,-0.593,-0.6325,-0.6656,-0.6881,-0.6991,-0.7241,-0.7404,-0.7404,-0.6745,-0.6569,-0.699,-0.6605,-0.675,-0.7572,-0.7808,-0.8209,-0.8804,-0.8804,0.0,-0.8811,-0.8982,-0.9087,-0.9087,-0.9159,-0.9106,-0.8982,-0.8982,-0.891,-0.8804,-0.8804,-0.8664,-0.8509,-0.8717,-0.8771,-0.8731,-0.8791,-0.8804,-0.8804,-0.8804,-0.8804,-0.8804,-0.8804,-0.8604,0.0,-0.7939,-0.7675,-0.7417,-0.708,-0.7,-0.7,-0.7,-0.7,-0.7,-0.7,-0.7,-0.7,-0.7,-0.7,-0.7,-0.7,-0.7,-0.7,-0.7,-0.7,-0.7,-0.7,-0.7,-0.7042,-0.7175,-0.7168,-0.7461,-0.8152,-0.8221,-0.8439,-0.8978,-0.909,-0.9182,-0.9301,-0.9193,-0.9113,-0.9113,-0.9013,-0.8921,-0.8829,-0.8829,-0.8679,-0.8382,-0.8902,-0.9022,0.0,0.0,0.0,0.0,0.0,0.0,0.0,0.0,0.0,0.0,0.0,-0.7553,-0.7713,0.0,-0.7544,-0.6946,-0.7227,-0.7174,-0.627,-0.6556,-0.6591,-0.593,-0.5915,-0.5957,-0.6008,-0.6189,-0.6464,-0.6861,-0.6735,-0.6789,-0.7138,-0.6413,-0.6164,-0.6484,-0.6232,-0.637,-0.6949,-0.7068,-0.7343,-0.7696,-0.7696,-0.7883,-0.8235,-0.8235,-0.8454,-0.8804,-0.8804,-0.8804,-0.8804,-0.8804,-0.8717,-0.8604,-0.8751,-0.8717,-0.8611,-0.8751,-0.8804,-0.8804,-0.8804,-0.8804,-0.8804,-0.8804,-0.8804,-0.8804,-0.8804,-0.8604,-0.8315,-0.7882,-0.7622,-0.7417,-0.708,-0.7,-0.7,-0.7,-0.7,-0.7,-0.7,-0.7,-0.7,-0.7,-0.7,-0.7,-0.7,-0.7,-0.7,-0.7,-0.7,-0.7,-0.7,-0.7,-0.7,-0.7,-0.7,-0.7238,-0.785,-0.8139,-0.8419,-0.8675,-0.8695,-0.8695,-0.8695,-0.8566,-0.8427,-0.8304,-0.8292,-0.823,-0.8095,-0.823,-0.8223,-0.8086,-0.7852,-0.7959,0.0,0.0,0.0,0.0,0.0,0.0,0.0,0.0,-0.7251,-0.7575,-0.7619,-0.7702,-0.8063,-0.8071,-0.7841,-0.7424,-0.7714,-0.7763,-0.7051,-0.7114,-0.6913,-0.5953,-0.6049,-0.6097,-0.5858,-0.5923,-0.6179,-0.6762,-0.6371,-0.6325,-0.6861,-0.6228,-0.5913,-0.606,-0.6185,-0.6274,-0.6394,-0.6534,-0.6588,-0.6588,-0.6588,-0.6912,-0.7482,-0.7643,-0.8023,-0.8586,-0.8692,-0.8758,-0.8804,-0.8744,-0.8584,-0.8422,-0.8631,-0.8684,-0.8651,-0.8764,-0.8771,-0.8731,-0.8791,-0.8804,-0.8804,-0.8804,-0.8771,-0.8724,-0.8724,-0.8517,-0.819,-0.7715,-0.7551,-0.743,-0.7168,-0.7108,-0.7106,-0.7166,-0.7133,-0.7108,-0.7108,-0.704,-0.7,-0.7,-0.7,-0.7,-0.7,-0.7,-0.7,-0.7,-0.7,-0.7,-0.7,-0.7,-0.7,-0.7,-0.7,-0.7189,-0.7683,-0.8124,-0.837,-0.837,-0.837,-0.837,-0.837,-0.816,-0.7968,-0.782,-0.7822,-0.7749,-0.7578,-0.7786,-0.7939,-0.7968,-0.7237,-0.7182,-0.7962,-0.7449,-0.7232,-0.7582,-0.7033,-0.6534,0.0,0.0,-0.6355,-0.6379,-0.6991,-0.7517,-0.7573,-0.8007,-0.8323,-0.8273,-0.8298,-0.831,-0.8202,-0.7979,-0.7624,-0.7155,-0.6106,-0.5563,-0.5946,-0.6308,-0.6577,-0.6791,-0.7005,-0.7168,-0.7244,-0.6432,-0.5861,-0.5581,-0.6087,-0.6144,-0.5624,-0.6285,-0.6588,-0.6588,-0.6588,-0.6642,-0.675,-0.7396,-0.775,-0.7845,-0.8268,-0.8571,-0.8784,-0.8556,-0.8429,-0.8402,-0.8435,-0.8263,-0.8065,-0.8611,-0.8644,-0.8489,-0.8717,-0.8804,-0.8804,-0.8804,-0.8637,-0.8449,-0.8449,-0.8216,-0.7885,-0.7598,-0.7497,-0.7484,-0.745,-0.7437,-0.7511,-0.7739,-0.7615,-0.7437,-0.7437,-0.7208,-0.7,-0.7,-0.7,-0.7,-0.7,-0.7,-0.7,-0.7,-0.7,-0.7,-0.7,-0.7,-0.7,-0.7,-0.7,-0.7021,-0.7084,-0.7147,-0.7189,-0.7189,-0.7189,-0.7189,-0.7189,-0.716,-0.7267,-0.7548,-0.7549,-0.7635,-0.7852,-0.7892,-0.8045,-0.8323,-0.7578,-0.714,-0.7052,-0.6644,-0.6366,-0.656,-0.615,-0.577,-0.5956,-0.584,-0.5787,-0.6136,-0.6605,-0.7131,-0.7633,-0.8107,-0.8456,-0.8597,-0.8624,-0.8564,-0.8422,-0.841,-0.8297,-0.7993,-0.7212,-0.6597,-0.6369,-0.6505,-0.6802,-0.7278,-0.7052,-0.7087,-0.7512,-0.678,-0.6288,-0.614,-0.6386,-0.6381,-0.6145,-0.6448,-0.6588,-0.6588,-0.6588,-0.6831,-0.7262,-0.7563,-0.7943,-0.8342,-0.8547,-0.8697,-0.8784,-0.8516,-0.8502,-0.8611,-0.8462,-0.8018,-0.7466,-0.7803,-0.7852,-0.7796,-0.8063,-0.8156,-0.8242,-0.8672,-0.8611,-0.8402,-0.8402,-0.806,-0.7635,-0.7524,-0.7363,-0.7248,-0.7444,-0.7513,-0.7564,-0.7832,-0.7689,-0.7513,-0.7513,-0.739,-0.7228,-0.7033,-0.7161,-0.7228,-0.7033,-0.7,-0.7,-0.7,-0.7,-0.7,-0.7,-0.7,-0.7,-0.7,-0.7,-0.7,-0.7,-0.7,-0.7,-0.7,-0.7,-0.7,-0.7,-0.7188,-0.7261,-0.7208,-0.7555,-0.7715,-0.7662,-0.8016,-0.8045,-0.7759,-0.7151,-0.6535,-0.5925,-0.5794,-0.563,-0.556,-0.5333,-0.5113,-0.5065,-0.5043,-0.5173,-0.561,-0.6259,-0.694,-0.7575,-0.8138,-0.8564,-0.8778,-0.8738,-0.8644,-0.8536,-0.8604,-0.8644,-0.8536,-0.8221,-0.7803,-0.7262,-0.702,-0.7128,-0.767,-0.7208,-0.7128,-0.767,-0.7182,-0.6804,-0.6615,-0.6993,-0.702,-0.6615,-0.6804,-0.6804,-0.6588,-0.6588,-0.6885,-0.7396,-0.7616,-0.8103,-0.8804,-0.8724,-0.8731,-0.8784,-0.8516,-0.8523,-0.8664,-0.8482,-0.7962,-0.7303,-0.7091,-0.6985,-0.6974,-0.7289,-0.7396,-0.7509,-0.8262,-0.8262,-0.7964,-0.802,-0.7729,-0.7319,-0.7194,-0.708,-0.7086,-0.7495,-0.7618,-0.7689,-0.8059,-0.7936,-0.7718,-0.7638,-0.7618,-0.7482,-0.7073,-0.7261,-0.739,-0.7053,-0.7,-0.7,-0.7,-0.7,-0.7,-0.7,-0.7,-0.7,-0.7,-0.7,-0.7,-0.7,-0.7,-0.7,-0.7,-0.7,-0.7,-0.7,-0.7228,-0.7281,-0.7148,-0.7575,-0.7736,-0.7618,-0.7909,-0.7766,-0.7236,-0.6509,-0.5849,-0.4507,-0.4733,-0.497,-0.4699,-0.4675,-0.4661,-0.4478,-0.443,-0.443,-0.4456,-0.5858,-0.7086,-0.7116,-0.8037,-0.8798,-0.8804,-0.8571,-0.8509,-0.8758,-0.8557,-0.8516,-0.8758,-0.8771,-0.8752,-0.8725,-0.8076,-0.767,-0.7696,-0.767,-0.767,-0.7696,-0.767,-0.7343,-0.6615,-0.799,-0.8049,-0.6615,-0.7316,-0.7316,-0.6588,-0.6588,-0.6615,-0.6669,-0.7369,-0.8103,-0.8791,-0.8536,-0.855,-0.8784,-0.8516,-0.8402,-0.8409,-0.8402,-0.819,-0.7741,-0.6647,-0.6162,-0.61,-0.6491,-0.6642,-0.675,-0.7482,-0.7339,-0.6894,-0.708,-0.7079,-0.6907,-0.6383,-0.6611,-0.714,-0.7739,-0.7892,-0.8039,-0.8644,-0.8557,-0.8295,-0.7952,-0.7892,-0.7712,-0.712,-0.7261,-0.739,-0.7053,-0.7,-0.7,-0.7,-0.7,-0.7,-0.7,-0.7,-0.7,-0.7,-0.7,-0.7,-0.7,-0.7,-0.7,-0.7,-0.7,-0.7,-0.7,-0.7006,-0.7168,-0.7471,-0.7491,-0.7645,-0.7892,-0.7392,-0.7134,-0.7086,-0.5766,-0.5133,-0.2981,-0.3042,-0.3119,-0.302,-0.3384,-0.376,-0.3693,-0.3778,-0.3965,-0.4325,-0.5355,-0.6357,-0.699,-0.7896,-0.8584,-0.8778,-0.9101,-0.9195,-0.8844,-0.9101,-0.9195,-0.8844,-0.8804,-0.8804,-0.8804,-0.856,-0.8427,-0.8427,-0.8427,-0.8427,-0.8427,-0.8427,-0.8315,-0.8076,-0.8533,-0.856,-0.8076,-0.8315,-0.8315,-0.8049,-0.8049,-0.8049,-0.8076,-0.8315,-0.856,-0.8798,-0.8704,-0.8717,-0.8784,-0.8516,-0.8509,-0.8644,-0.8476,-0.8079,-0.7591,-0.7307,-0.6799,-0.6233,-0.5971,-0.5869,-0.5982,-0.6718,-0.7041,-0.7047,-0.6534,-0.6539,-0.6661,-0.629,-0.6328,-0.6649,-0.7432,-0.7645,-0.7722,-0.8105,-0.7996,-0.7826,-0.7885,-0.7905,-0.7786,-0.7395,-0.7562,-0.7615,-0.7086,-0.7,-0.7,-0.7,-0.7,-0.7,-0.7,-0.7,-0.7,-0.7,-0.7,-0.7,-0.7,-0.7,-0.7,-0.7,-0.7,-0.7,-0.7,-0.7,-0.7046,-0.7168,-0.7168,-0.7026,-0.6782,-0.6773,-0.6341,-0.5504,-0.5313,-0.4914,-0.1999,-0.1976,-0.2106,-0.2267,-0.3014,-0.3688,-0.37,-0.395,-0.4312,-0.4652,-0.5413,-0.624,-0.6973,-0.782,-0.8496,-0.8758,-0.9159,-0.9283,-0.8857,-0.9159,-0.929,-0.8857,-0.8804,-0.8804,-0.8804,-0.8804,-0.8804,-0.8804,-0.8804,-0.8804,-0.8804,-0.8804,-0.8804,-0.8804,-0.8804,-0.8804,-0.8804,-0.8804,-0.8804,-0.8804,-0.8804,-0.8804,-0.8804,-0.8804,-0.8804,-0.8804,-0.8804,-0.8804,-0.8791,-0.8604,-0.8637,-0.8791,-0.8604,-0.8313,-0.7934,-0.777,-0.7348,-0.6759,-0.6125,-0.5733,-0.5638,-0.6546,-0.6814,-0.6712,-0.6461,-0.6562,-0.6695,-0.6425,-0.6422,-0.6646,-0.7322,-0.7513,-0.7564,-0.7832,-0.7856,-0.7806,-0.7769,-0.7936,-0.7936,-0.743,-0.7555,-0.7609,-0.7086,-0.7,-0.7,-0.7,-0.7,-0.7,-0.7,-0.7,-0.7,-0.7,-0.7,-0.7,-0.7,-0.7,-0.7,-0.7,-0.7,-0.7,-0.7,-0.7,-0.7,-0.7,-0.7,-0.6725,-0.6206,-0.6167,-0.561,-0.4602,-0.4654,-0.4417,-0.1496,-0.1537,-0.189,-0.2345,-0.3426,-0.4383,-0.4388,-0.486,-0.5303,-0.5303,-0.5997,-0.6706,0.0,0.0,-0.8489,-0.8738,-0.8824,-0.8831,-0.8811,-0.8831,-0.8831,0.0,0.0,0.0,0.0,0.0,-0.8804,-0.8804,-0.8804,-0.8804,-0.8804,-0.8804,-0.8804,-0.8804,-0.8804,-0.8804,-0.8804,-0.8804,-0.8804,-0.8857,-0.8804,-0.8804,-0.8804,-0.8804,-0.8804,-0.8804,-0.8804,-0.8804,-0.8804,-0.8804,-0.8804,-0.8804,-0.8804,-0.8804,-0.8725,-0.8017,-0.775,-0.767,-0.6966,-0.6199,-0.5756,-0.6888,-0.6634,-0.6044,-0.6827,-0.7036,-0.697,-0.6693,-0.6799,-0.7092,-0.7437,-0.7511,-0.7591,-0.7832,-0.8143,-0.8221,-0.7658,-0.798,-0.812,-0.7213,-0.7275,-0.7377,-0.7046,-0.7,-0.7,-0.7,-0.7,-0.7,-0.7,-0.7,-0.7,-0.7,-0.7,-0.7,-0.7,-0.7,-0.7,-0.7,-0.7,-0.7,-0.7,-0.7,-0.7,-0.7,-0.7,-0.6725,-0.6157,-0.5588,-0.4978,-0.4347,-0.3843,-0.3686,-0.1173,-0.1325,-0.168,-0.1795,-0.3059,-0.4242,-0.4244,-0.4789,-0.5303,-0.5303,-0.5997,-0.6629,-0.6717,-0.7648,-0.8422,-0.8496,-0.909,0.0,-0.8883,-0.9237,0.0,-0.8857,0.0,-0.8804,-0.8804,-0.8804,-0.8804,-0.8804,-0.8804,-0.8804,-0.8804,-0.8804,-0.8804,-0.8804,-0.8804,-0.8804,-0.8804,-0.8804,-0.9061,-0.9536,-0.9035,-0.8804,-0.8804,-0.8804,-0.8804,-0.8804,-0.8804,-0.8804,-0.8804,-0.8804,-0.8804,-0.8804,-0.8804,-0.8804,-0.8778,-0.8593,-0.8507,-0.848,-0.8295,-0.7396,-0.6357,-0.6684,-0.6971,-0.7145,-0.6701,-0.6938,-0.7321,-0.7056,-0.7019,-0.7192,-0.7672,-0.7792,-0.7806,-0.7892,-0.7965,-0.8063,-0.8154,-0.809,-0.7952,-0.7719,-0.7373,-0.7108,-0.7013,-0.7,-0.7,-0.7,-0.7,-0.7,-0.7,-0.7,-0.7,-0.7,-0.7,-0.7,-0.7,-0.7,-0.7,-0.7,-0.7,-0.7,-0.7,-0.7,-0.7,-0.7,-0.7,-0.6507,-0.5524,-0.5367,-0.4787,-0.3796,-0.3778,-0.3754,-0.1451,-0.1646,-0.2,-0.206,-0.3154,-0.421,-0.427,-0.4812,-0.5367,-0.5631,-0.6094,-0.6536,-0.6926,-0.7643,-0.8223,-0.8375,0.0,0.0,-0.8857,-0.914,-0.9211,0.0,-0.8804,0.0,-0.8804,-0.8804,-0.8804,-0.8804,-0.8804,-0.8804,-0.8804,-0.8804,-0.8929,-0.9237,-0.9237,-0.9387,-0.9666,-0.9692,-0.9865,-1.0236,-0.9865,-0.9692,-0.9692,-0.9692,-0.9692,-0.9666,-0.9361,-0.9237,-0.9211,-0.8936,-0.8804,-0.8804,-0.8804,-0.8804,-0.8804,-0.8804,-0.8804,-0.8804,-0.8804,-0.8262,-0.7545,-0.743,-0.7448,-0.7503,-0.7326,-0.746,-0.7666,-0.7683,-0.7558,-0.7511,-0.7834,-0.7905,-0.7872,-0.7762,-0.7929,-0.8096,-0.802,-0.8056,-0.8049,-0.7776,-0.7319,-0.7,-0.7,-0.7,-0.7,-0.7,-0.7,-0.7,-0.7,-0.7,-0.7,-0.7,-0.7,-0.7,-0.7,-0.7,-0.7,-0.7,-0.7,-0.7,-0.7,-0.7,-0.7,-0.7,-0.7,-0.6437,-0.5303,-0.5303,-0.4727,-0.3604,-0.3682,-0.3754,-0.2093,-0.2257,-0.2639,-0.2693,-0.3459,-0.4244,-0.4267,-0.48,-0.5454,-0.598,-0.6136,-0.6465,-0.7273,-0.7662,-0.7963,-0.8295,0.0,-0.8889,-0.8929,-0.8929,-0.8929,-0.8929,-0.8857,-0.8804,-0.8804,-0.8804,-0.8804,-0.8804,-0.8804,-0.8804,-0.8804,-0.8883,-0.9237,-0.9909,-0.9935,-1.0236,-1.0939,-1.0838,-1.0838,-1.0939,-1.0838,-1.0788,-1.0788,-1.0788,-1.0788,-1.0771,-1.0192,-0.9935,-0.9891,-0.9316,-0.9061,-0.9061,-0.9061,-0.9008,-0.8936,-0.9035,-0.9008,-0.8936,-0.9035,-0.9061,-0.8993,-0.8587,-0.8018,-0.7624,-0.8247,-0.825,-0.8072,-0.8382,-0.825,-0.8012,-0.7979,-0.7965,-0.7885,-0.7625,-0.7953,-0.8194,-0.7665,-0.7933,-0.8114,-0.7538,-0.7201,-0.7,-0.7,-0.7,-0.7,-0.7,-0.7,-0.7,-0.7,-0.7,-0.7,-0.7,-0.7,-0.7,-0.7,-0.7,-0.7,-0.7,-0.7,-0.7,-0.7,-0.7,-0.7,-0.7,-0.7,-0.6486,-0.5416,-0.5346,-0.4748,-0.3711,-0.3622,-0.3691,-0.2838,-0.2934,-0.3234,-0.2799,-0.3534,-0.4241,-0.376,-0.4513,0.0,0.0,-0.5851,-0.6383,-0.6981,-0.7348,-0.7672,-0.7932,-0.8728,-0.9364,-0.9603,-0.964,-0.964,0.0,-0.9133,-0.8804,-0.8804,-0.8804,-0.8804,-0.8804,-0.8804,-0.8804,-0.8804,-0.9335,-0.9935,-1.0618,-1.0644,-1.0939,-1.1616,-1.1091,-1.1091,-1.1616,-1.1065,-1.0788,-1.0788,-1.0788,-1.0788,-1.0788,-1.0686,-1.0644,-1.0618,-1.0491,-1.044,-1.044,-1.044,-1.0115,-0.9684,-1.0244,-1.009,-0.9718,-1.0261,-1.044,-1.0254,-0.9103,-0.8652,-0.8574,-0.8705,-0.8697,-0.8664,-0.8717,-0.8697,-0.8597,-0.8382,-0.8322,-0.8223,-0.7899,-0.7905,-0.7952,-0.7852,-0.7729,-0.7544,-0.7168,-0.704,-0.7,-0.7,-0.7,-0.7,-0.7,-0.7,-0.7,-0.7,-0.7,-0.7,-0.7,-0.7,-0.7,-0.7,-0.7,-0.7,-0.7,-0.7,-0.7,-0.7,-0.7,-0.7,-0.7,-0.7,-0.6683,-0.605,-0.5545,-0.4935,-0.4242,-0.3814,-0.3851,-0.4608,-0.4448,-0.4378,-0.4117,-0.4474,-0.48,-0.4513,0.0,0.0,0.0,-0.599,-0.6371,-0.6894,-0.7268,-0.7591,-0.7859,-0.8463,-0.8962,-0.9247,-0.929,-0.929,-0.929,-0.9008,-0.8804,-0.8804,-0.8804,-0.8804,-0.8804,-0.9133,-0.9159,-0.8804,-0.9762,-1.0644,-1.1291,-1.1683,-1.2049,-1.2369,-1.2049,-1.2049,-1.2369,-1.2049,-1.1891,-1.1891,-1.1891,-1.1891,-1.1866,-1.15,-1.1316,-1.1291,-1.0939,-1.0788,-1.0788,-1.0788,-1.0593,-1.0364,-1.0686,-1.0593,-1.0364,-1.0695,-1.0788,-1.0686,-1.0038,-0.9614,-0.9263,-0.891,-0.8804,-0.8804,-0.8804,-0.8697,-0.8584,-0.8597,-0.837,-0.811,-0.7939,-0.7779,-0.7736,-0.7872,-0.7792,-0.7662,-0.7499,-0.7361,-0.7255,-0.7255,-0.7128,-0.7,-0.7,-0.7,-0.7,-0.7,-0.7,-0.7,-0.7,-0.7,-0.7,-0.7,-0.7,-0.7,-0.7,-0.7,-0.7,-0.7,-0.7,-0.7,-0.7,-0.7,-0.6725,-0.6206,-0.5916,-0.5459,-0.487,-0.4613,-0.4613,-0.6533,-0.6068,-0.5642,-0.5513,-0.5389,-0.526,-0.5125,-0.5216,0.0,-0.591,-0.6109,-0.6371,-0.6894,-0.7214,-0.7491,0.0,-0.8197,-0.8602,-0.8897,-0.8967,-0.9008,-0.9008,-0.8883,0.0,-0.8804,-0.8804,-0.8804,-0.8804,-0.9413,-0.9684,-0.9465,-1.044,-1.1316,-1.1996,-1.2608,-1.2905,-1.2905,-1.2905,-1.2905,-1.2905,-1.2905,-1.2905,-1.2905,-1.2905,-1.2905,-1.2881,-1.2295,-1.2055,-1.1996,-1.1475,-1.125,-1.125,-1.125,-1.1149,-1.104,-1.12,-1.1149,-1.104,-1.12,-1.125,-1.1225,-1.1065,-1.0466,-0.9718,-0.9185,-0.891,-0.8831,-0.8982,-0.8767,-0.858,-0.902,-0.8682,-0.8221,-0.8208,-0.7955,-0.774,-0.7886,-0.7859,-0.7806,-0.7806,-0.7635,-0.7513,-0.7513,-0.7221,-0.7,-0.7,-0.7,-0.7,-0.7,-0.7,-0.7,-0.7,-0.7,-0.7,-0.7,-0.7,-0.7,-0.7,-0.7,-0.7,-0.7,-0.7,-0.7,-0.7,-0.7,-0.6789,-0.6371,-0.6264,-0.5959,-0.548,-0.5351,-0.5367,-0.7891,-0.7245,-0.6708,-0.6168,-0.5653,-0.5151,-0.4613,0.0,-0.5319,-0.5374,-0.5829,-0.6371,-0.6894,-0.702,-0.7161,-0.7484,-0.8281,-0.8975,-0.9303,-0.9558,-0.9718,-0.9718,0.0,0.0,-0.8804,-0.8804,-0.8804,-0.8804,-0.9413,-1.0287,-1.1466,-1.1641,-1.203,-1.2774,-1.2847,-1.2905,-1.2905,-1.2905,-1.2905,-1.2905,-1.2905,-1.2905,-1.2905,-1.2905,-1.2905,-1.2905,-1.2832,-1.2798,-1.2798,-1.2725,-1.27,-1.27,-1.27,-1.2295,-1.1798,-1.2461,-1.227,-1.1789,-1.2461,-1.27,-1.2593,-1.1931,-1.0838,-0.9788,-0.9718,-0.929,-0.8936,-0.9536,-0.9242,-0.899,-1.0001,-0.976,-0.9254,-0.9197,-0.878,-0.8325,-0.7978,-0.7715,-0.7531,-0.7531,-0.7504,-0.7513,-0.7513,-0.7221,-0.7,-0.7,-0.7,-0.7,-0.7,-0.7,-0.7,-0.7,-0.7,-0.7,-0.7,-0.7,-0.7,-0.7,-0.7,-0.7,-0.7,-0.7,-0.7,-0.7,-0.7,-0.6979,-0.6915,-0.6435,-0.6163,-0.6114,-0.5545,-0.5588,-0.8926,-0.8203,-0.7495,-0.7231,-0.6748,-0.6267,-0.6016,-0.6425,-0.686,-0.6862,-0.7049,-0.728,-0.751,-0.7238,-0.716,-0.7669,-0.8054,-0.8462,-0.8959,-0.9134,-0.9211,-0.9211,-0.8956,-0.8804,0.0,-0.8804,-0.8962,-0.9361,-1.0012,-1.0813,-1.174,-1.1789,-1.2138,-1.2881,-1.2905,-1.2905,-1.2905,-1.2905,-1.2905,-1.2905,-1.3262,-1.3443,-1.3443,-1.3443,-1.3624,-1.3931,-1.3224,-1.3104,-1.342,-1.3065,-1.2905,-1.2905,-1.2905,-1.2725,-1.251,-1.2798,-1.2715,-1.2501,-1.2798,-1.2905,-1.2856,-1.2559,-1.1807,-1.0838,-1.0038,-0.9614,-0.9361,-0.9237,-0.9181,-0.9293,-0.9874,-1.0008,-0.9898,-0.9399,-0.9325,-0.9125,-0.8316,-0.8238,-0.8286,-0.8072,-0.7893,-0.7802,-0.8007,-0.7631,-0.731,-0.731,-0.7134,-0.7,-0.7,-0.7,-0.7,-0.7,-0.7,-0.7,-0.7,-0.7,-0.7,-0.7,-0.7,-0.7,-0.7,-0.7,-0.7,-0.7,-0.7,-0.7,-0.7,-0.6789,-0.6689,-0.6683,-0.6444,-0.6557,-0.9773,-0.8958,-0.8172,-0.8337,-0.769,-0.7042,-0.7231,-0.7593,-0.7899,-0.7899,-0.8015,-0.8139,-0.8139,-0.7793,-0.7589,-0.7868,-0.8043,-0.8304,-0.8756,-0.897,-0.908,-0.908,0.0,-0.908,-0.908,-0.9283,-0.9517,-0.9788,-1.0593,-1.1291,-1.1765,-1.1996,-1.2369,-1.2881,-1.2905,-1.2905,-1.2905,-1.2905,-1.2905,-1.2905,-1.3505,-1.3792,-1.3802,-1.398,-1.4306,-1.4652,-1.38,-1.3563,-1.3779,-1.3334,-1.3055,-1.2905,-1.2905,-1.2905,-1.2905,-1.2905,-1.2905,-1.2905,-1.2905,-1.2905,-1.2905,-1.2905,-1.2559,-1.1907,-1.0745,-1.0236,-1.0038,-0.9762,-1.0054,-1.0393,-1.0156,-1.0384,-1.0482,-0.962,-0.9587,-0.9464,-0.8512,-0.8513,-0.8635,-0.8306,-0.8003,-0.7862,-0.8094,-0.7698,-0.739,-0.7493,-0.7214,-0.7033,-0.7141,-0.7053,-0.7,-0.7,-0.708,-0.7121,-0.7006,-0.7,-0.7,-0.7,-0.7,-0.704,-0.7154,-0.7154,-0.7173,-0.7266,-0.7266,-0.7219,-0.7154,-0.7154,-0.7108,-0.7,-0.7,-0.7228,-1.0391,-0.9498,-0.8817,-0.9359,-0.8231,-0.7147,-0.7746,-0.7891,-0.7899,-0.7899,-0.8316,-0.8695,-0.8695,-0.8683,-0.8521,-0.7981,-0.8335,-0.8749,-0.8865,-0.9403,-0.9788,0.0,-0.9788,-0.9788,-0.9788,-1.0389,-1.0517,-0.984,-1.104,-1.1789,-1.1789,-1.2476,-1.2881,-1.2905,-1.2905,-1.2905,-1.2905,-1.2905,-1.2905,-1.2905,-1.3505,-1.3792,-1.3815,-1.4422,-1.4698,-1.4698,-1.4686,-1.4352,-1.3792,-1.3802,-1.3443,-1.2905,-1.2905,-1.2905,-1.2905,-1.2905,-1.2905,-1.2905,-1.2905,-1.2905,-1.2905,-1.2905,-1.2881,-1.274,-1.1996,-1.1316,-1.0939,-1.1591,-1.2295,-1.2535,-1.1149,-1.1089,-1.1106,-0.996,-0.949,-0.9125,-0.8444,-0.8298,-0.8215,-0.797,-0.7682,-0.7497,-0.752,-0.7228,-0.7128,-0.7444,-0.7214,-0.7128,-0.745,-0.7201,-0.7,-0.7,-0.731,-0.7363,-0.7026,-0.7,-0.7,-0.7,-0.7,-0.7154,-0.7471,-0.7484,-0.7631,-0.7892,-0.7899,-0.7769,-0.7484,-0.7484,-0.733,-0.7,-0.7,-0.7326,-1.0332,-0.9784,-0.9279,-0.9459,-0.8829,-0.8218,-0.8398,-0.8736,-0.8999,-0.8999,-0.9119,-0.9239,-0.9239,-0.8938,-0.8799,-0.9087,-0.9284,-0.9564,-1.0116,-1.0347,0.0,-1.0491,-1.0491,-1.0491,-1.0491,-1.0686,-1.0712,-1.0491,-1.1291,-1.1789,-1.1789,-1.251,-1.2905,-1.2905,-1.2905,-1.2905,-1.2905,-1.2905,-1.3104,-1.3529,-1.4131,-1.4422,-1.4445,-1.5028,-1.532,-1.5298,-1.488,-1.4835,-1.5005,-1.4583,-1.4294,-1.4095,-1.3671,-1.3529,-1.3529,-1.3529,-1.3529,-1.3576,-1.4001,-1.4131,-1.4131,-1.4131,-1.386,-1.3481,-1.3236,-1.237,-1.1541,-1.174,-1.1972,-1.2055,-1.1591,-1.1453,-1.1178,-1.0263,-0.9908,-0.9561,-0.8754,-0.8513,-0.8386,-0.8258,-0.7989,-0.7909,-0.8317,-0.7945,-0.7719,-0.8067,-0.7482,-0.7186,-0.7715,-0.7515,-0.7408,-0.7592,-0.7706,-0.7655,-0.737,-0.7499,-0.7526,-0.7363,-0.735,-0.7275,-0.7168,-0.7383,-0.7538,-0.7638,-0.7799,-0.7776,-0.7513,-0.7513,-0.7337,-0.7006,-0.7228,-0.745,-1.0859,-1.0456,-1.007,-1.0321,-0.9669,-0.9013,-0.9213,-0.939,-0.9498,-0.9498,-0.9657,-0.9841,-1.0,-0.9929,-0.9988,-1.0383,-1.0732,-1.12,-1.1938,0.0,0.0,-1.1887,-1.1687,-1.1349,-1.0838,-1.1275,-1.1545,-1.1456,-1.2049,-1.251,-1.2649,-1.2959,-1.3125,-1.3125,-1.2993,-1.2905,-1.2905,-1.3128,-1.331,-1.3467,-1.4294,-1.4698,-1.4698,-1.5085,-1.5499,-1.5908,-1.5298,-1.5253,0.0,-1.5186,-1.4903,-1.4629,-1.405,-1.3792,-1.3792,-1.3792,-1.3792,-1.3886,-1.4491,-1.4698,-1.4698,-1.4698,-1.4283,-1.3755,-1.3529,-1.2871,-1.2212,-1.2212,-1.2212,-1.208,-1.1566,-1.1235,-1.0763,-0.976,-0.9526,-0.9337,-0.8721,-0.859,-0.8539,-0.8425,-0.8136,-0.7985,-0.8257,-0.8072,-0.7972,-0.8176,-0.7729,-0.7519,-0.8036,-0.7829,-0.7715,-0.7885,-0.8005,-0.8016,-0.7846,-0.7882,-0.7772,-0.7511,-0.7513,-0.7404,-0.7194,-0.7482,-0.7718,-0.7832,-0.8103,-0.811,-0.7832,-0.7718,-0.7428,-0.7013,-0.7448,-0.7642,0.0,-1.1461,-1.1143,-1.1704,-1.0743,-0.9796,-1.0254,-0.999,0.0,-0.9603,-0.998,-1.041,-1.083,-1.1409,-1.1818,-1.1798,-1.2521,-1.3339,-1.4097,-1.4413,0.0,0.0,-1.3228,-1.2376,-1.1132,-1.2147,-1.28,-1.2583,-1.3109,-1.3617,-1.4036,-1.3691,-1.3467,-1.3467,-1.3086,-1.2905,-1.2905,-1.3467,-1.3481,-1.2968,-1.4131,-1.4698,-1.4698,-1.4801,-1.5433,-1.6402,-1.5886,-1.5654,-1.5654,-1.5654,-1.532,-1.4766,-1.4167,-1.3909,-1.3862,-1.3862,-1.3862,-1.3956,-1.456,-1.4789,-1.4812,-1.4766,-1.4352,-1.3755,-1.3152,-1.292,-1.2905,-1.2905,-1.2905,-1.2593,-1.1225,-1.0648,-1.0076,-0.8809,-0.8581,-0.8609,-0.8428,-0.8535,-0.8592,-0.8441,-0.8136,-0.7826,-0.7625,-0.7769,-0.7919,-0.7959,-0.7932,-0.8019,-0.8389,-0.8143,-0.7945,-0.7965,-0.8243,-0.8429,-0.8429,-0.8136,-0.7806,-0.7544,-0.752,-0.75,-0.7457,-0.7756,-0.8039,-0.8362,-0.8624,-0.8644,-0.8402,-0.8076,-0.7619,-0.708,-0.7639,-0.7905,-1.2873,0.0,-1.2107,-1.2347,-1.2362,-1.2254,0.0,-1.1603,-1.1135,-1.0671,-1.0428,-1.041,-1.083,-1.144,-1.2066,-1.2662,-1.3378,-1.4148,-1.5057,-1.5242,0.0,-1.5063,-1.4177,-1.345,-1.313,-1.2987,-1.3007,-1.3237,-1.3128,-1.3213,-1.3633,-1.3262,-1.3027,-1.3027,-1.2954,-1.2905,-1.2905,-1.3041,-1.3262,-1.36,-1.4329,-1.4698,-1.4721,-1.5656,-1.5986,-1.582,-1.6139,-1.6281,-1.6281,-1.6281,-1.6194,-1.602,-1.541,-1.4892,-1.4491,-1.4491,-1.4491,-1.456,-1.5186,-1.5688,-1.5998,-1.5543,-1.4983,-1.4376,-1.3779,-1.3262,-1.2905,-1.2905,-1.2905,-1.2691,-1.1798,-1.0991,-1.0238,-0.9616,-0.876,-0.8146,-0.836,-0.8234,-0.8153,-0.8367,-0.8136,-0.8025,-0.8424,-0.8159,-0.8059,-0.8505,-0.8192,-0.8092,-0.8637,-0.845,-0.8357,-0.8577,-0.8664,-0.8704,-0.8704,-0.8437,-0.8143,-0.7819,-0.7618,-0.7383,-0.7134,-0.7619,-0.7939,-0.8012,-0.8323,-0.8469,-0.8402,-0.8076,-0.7832,-0.7699,-0.7839,-0.7905,-1.3198,-1.3,-1.2774,-1.2871,-1.287,-1.2807,-1.2569,-1.1938,-1.1347,0.0,0.0,-1.0488,-1.1115,-1.1975,-1.2854,-1.3694,-1.4844,-1.5876,0.0,0.0,-1.6522,-1.5987,-1.538,-1.4687,-1.3886,-1.3505,-1.337,-1.3502,-1.3301,-1.335,-1.3743,-1.3398,-1.3164,-1.3164,-1.3013,-1.2905,-1.2905,-1.3176,-1.3334,-1.3396,-1.4271,-1.4698,-1.4721,-1.5389,-1.581,-1.603,-1.6073,-1.6238,-1.65,-1.65,-1.65,-1.6445,-1.5842,-1.5387,-1.5096,-1.5096,-1.5096,-1.5197,-1.5798,-1.6051,-1.5986,-1.5365,-1.4971,-1.4629,-1.4306,-1.3779,-1.3262,-1.2968,-1.2905,-1.2715,-1.1996,-1.1407,-1.0919,-1.0375,-0.9494,-0.8831,-0.9007,-0.8554,-0.8183,-0.8368,-0.8243,-0.819,-0.8345,-0.8338,-0.8372,-0.8577,-0.845,-0.8425,-0.8764,-0.8671,-0.8637,-0.8791,-0.8804,-0.8804,-0.8804,-0.8569,-0.825,-0.7925,-0.7635,-0.7417,-0.7235,-0.7659,-0.8032,-0.8305,-0.849,-0.8536,-0.8402,-0.8343,-0.8172,-0.7912,-0.8185,-0.8238,-1.3198,-1.3198,-1.3223,-1.3315,-1.3071,-1.2818,-1.274,0.0,0.0,0.0,0.0,0.0,-1.1481,-1.2563,0.0,-1.4439,-1.6051,0.0,-1.7902,-1.8019,-1.7657,-1.6638,-1.6377,-1.5706,-1.4226,-1.3909,-1.3786,-1.3786,-1.3539,-1.3619,-1.411,-1.3684,-1.3408,-1.3408,-1.3066,-1.2905,-1.2905,-1.3396,-1.3396,-1.2905,-1.4118,-1.4698,-1.4709,-1.488,-1.5522,-1.6466,-1.5952,-1.603,-1.65,-1.65,-1.65,-1.6445,-1.5942,-1.5676,-1.561,-1.561,-1.5543,-1.5543,-1.6064,-1.5898,-1.5387,-1.488,-1.4629,-1.456,-1.456,-1.4213,-1.3661,-1.3065,-1.2905,-1.2774,-1.2129,-1.1888,-1.1665,-1.1091,-1.044,-0.9961,-0.9961,-0.9326,-0.8758,-0.8758,-0.8648,-0.8477,-0.8242,-0.8487,-0.8671,-0.8496,-0.8651,-0.8831,-0.8936,-0.8956,-0.8982,-0.908,-0.9008,-0.8956,-0.8956,-0.8614,-0.827,-0.7992,-0.7685,-0.7511,-0.7558,-0.7836,-0.8225,-0.8798,-0.8804,-0.8684,-0.8462,-0.8691,-0.8525,-0.8052,-0.8571,-0.8723,-1.3198,-1.3198,-1.3328,-1.3828,-1.4167,-1.4251,-1.3857,0.0,0.0,0.0,0.0,0.0,0.0,-1.2456,-1.3329,0.0,-1.5267,-1.6467,-1.6954,-1.7162,-1.7195,-1.7014,-1.6234,-1.562,-1.5353,-1.4411,-1.4148,-1.4947,-1.376,-1.3392,-1.431,-1.3481,-1.3003,-1.3003,-1.2935,-1.2905,-1.2905,-1.2992,-1.2992,-1.2905,-1.4118,-1.4698,-1.4721,-1.5766,-1.6315,-1.6488,-1.6402,-1.6402,-1.65,-1.65,-1.65,-1.65,-1.6402,-1.6051,-1.561,-1.561,-1.5276,-1.4858,-1.4949,-1.4926,-1.4812,-1.4721,-1.4352,-1.3933,-1.3933,-1.3862,-1.3661,-1.3065,-1.2905,-1.2881,-1.2774,-1.227,-1.1765,-1.1665,-1.1141,-1.0644,-1.0644,-1.0519,-1.0436,-1.0436,-0.979,-0.9303,-0.9475,-0.8938,-0.8536,-0.8711,-0.8778,-0.9008,-0.9562,-0.964,-0.9865,-1.044,-0.9987,-0.964,-0.964,-0.8887,-0.8382,-0.8335,-0.7799,-0.7605,-0.7826,-0.8143,-0.8464,-0.8798,-0.8804,-0.8784,-0.8744,-0.8784,-0.8758,-0.8677,-0.8764,-0.9086,-1.3198,-1.3198,-1.3261,-1.3546,-1.4001,-1.4228,-1.3693,-1.3662,0.0,0.0,0.0,0.0,0.0,0.0,-1.3466,-1.4544,-1.507,-1.5533,-1.6014,-1.6172,-1.6256,-1.6292,-1.614,-1.5928,-1.5632,-1.4801,-1.4487,-1.4941,-1.4,-1.3597,-1.4048,-1.3642,-1.3238,-1.2905,-1.2905,-1.2905,-1.2905,-1.2905,-1.2905,-1.2905,-1.4118,-1.4698,-1.4744,-1.5954,-1.65,-1.65,-1.65,-1.65,-1.65,-1.65,-1.65,-1.65,-1.65,-1.6324,-1.6051,-1.572,-1.541,-1.5096,-1.4445,-1.4213,-1.4213,-1.4213,-1.4027,-1.3862,-1.419,-1.405,-1.3745,-1.3457,-1.3152,-1.2905,-1.2905,-1.2642,-1.2393,-1.2393,-1.1857,-1.1341,-1.1341,-1.0938,-1.0573,-1.0573,-1.023,-0.9856,-0.963,-0.9354,-0.9076,-0.8837,-0.9113,-0.9458,-0.9762,-1.0115,-1.0466,-1.0771,-1.0517,-1.0185,-0.984,-0.9405,-0.8861,-0.8181,-0.8047,-0.8047,-0.8163,-0.845,-0.8671,-0.8804,-0.8804,-0.8731,-0.8571,-0.8731,-0.8731,-0.8577,-0.8738,-0.8956,-1.3198,-1.3198,-1.3198,-1.3198,0.0,-1.3803,-1.3483,-1.3773,-1.3983,0.0,0.0,0.0,0.0,-1.308,0.0,-1.4812,-1.4697,-1.4597,-1.5099,-1.5205,-1.5256,-1.5302,-1.5856,-1.6046,-1.5632,-1.5186,-1.4971,-1.5107,-1.4422,-1.4073,-1.4202,-1.4097,-1.3802,-1.3334,-1.332,-1.332,-1.332,-1.332,-1.3176,-1.2905,-1.4118,-1.4698,-1.4744,-1.5954,-1.65,-1.65,-1.65,-1.65,-1.65,-1.65,-1.65,-1.65,-1.65,-1.6402,-1.6241,-1.5873,-1.5646,-1.5371,-1.4267,-1.39,-1.3912,-1.3779,-1.3683,-1.3671,-1.4131,-1.3967,-1.36,-1.36,-1.3262,-1.2905,-1.2905,-1.2905,-1.2905,-1.2905,-1.2476,-1.2055,-1.2055,-1.1492,-1.0998,-1.0998,-1.0724,-1.0335,-0.9804,-0.9624,-0.9439,-0.9087,-0.9458,-0.9909,-1.0244,-1.0712,-1.1091,-1.1275,-1.1149,-1.0686,-0.9865,-0.9943,-0.9478,-0.8188,-0.8283,-0.8402,-0.8402,-0.8651,-0.8804,-0.8804,-0.8738,-0.8597,-0.8402,-0.8651,-0.8721,-0.8645,-0.8822,-0.9115,-1.3198,-1.3198,-1.3198,-1.3198,-1.3223,-1.3403,-1.3921,-1.4067,0.0,-1.4052,0.0,0.0,0.0,-1.3,-1.3076,-1.3554,-1.3604,-1.3732,-1.4129,-1.4363,-1.4486,-1.4496,-1.5176,-1.5642,-1.561,-1.5565,-1.5776,-1.6337,-1.5287,-1.4869,-1.5432,-1.4949,-1.4617,-1.456,-1.456,-1.456,-1.456,-1.456,-1.4001,-1.2905,-1.4118,-1.4698,-1.4744,-1.5954,-1.65,-1.65,-1.65,-1.65,-1.65,-1.65,-1.65,-1.65,-1.65,-1.6173,-1.5706,-1.6045,-1.5798,-1.5209,-1.4372,-1.4189,-1.425,-1.3691,-1.3268,-1.2968,-1.3027,-1.3002,-1.2968,-1.2968,-1.292,-1.2905,-1.2905,-1.2905,-1.2905,-1.2905,-1.2847,-1.2822,-1.2822,-1.2779,-1.2735,-1.2735,-1.1672,-1.0755,-1.0704,-0.967,-0.9061,-0.964,-0.9762,-1.0244,-1.1491,-1.169,-1.1981,-1.2666,-1.2138,-1.1191,-0.9917,-1.0364,-1.0169,-0.8823,-0.851,-0.8402,-0.8402,-0.8651,-0.8804,-0.8804,-0.8544,-0.8422,-0.8402,-0.8604,-0.8915,-0.9335,-0.9217,-1.0038,-1.3198,-1.3483,-1.3677,-1.3303,-1.3483,0.0,0.0,-1.4626,-1.5089,-1.5096,-1.5199,0.0,0.0,0.0,-1.3385,-1.316,-1.3125,-1.3174,-1.333,-1.3427,-1.3616,-1.3983,-1.4287,-1.4641,-1.5005,-1.5039,-1.5276,-1.5886,-1.5533,-1.5365,-1.5588,-1.5387,-1.5085,-1.4698,-1.4698,-1.4698,-1.4698,-1.4698,-1.4479,-1.4025,-1.4846,-1.5253,-1.5276,-1.6129,-1.65,-1.65,-1.65,-1.6281,-1.593,-1.593,-1.5722,-1.5389,-1.5389,-1.5383,-1.5392,-1.517,-1.5125,-1.5076,-1.4354,-1.4146,-1.419,-1.3949,-1.3763,-1.3662,-1.3662,-1.3477,-1.333,-1.3584,-1.3477,-1.3213,-1.2949,-1.2905,-1.2905,-1.2905,-1.3076,-1.3271,-1.3271,-1.3271,-1.3271,-1.3271,-1.2641,-1.1965,-1.1491,-1.099,-1.061,-1.044,-1.1028,-1.1671,-1.216,-1.2816,-1.3243,-1.3266,-1.2386,-1.1591,-1.1091,-1.0889,-1.0593,-1.009,-0.9548,-0.9088,-0.867,-0.8577,-0.8709,-0.9051,-0.9037,-0.9092,-0.9211,-0.9737,-1.001,-1.0027,-1.0146,-1.0539,-1.3198,-1.3509,-1.3765,-1.3546,0.0,0.0,-1.4525,-1.5035,-1.553,-1.5881,-1.5773,-1.5298,-1.4272,0.0,-1.3589,-1.2992,-1.2905,-1.2905,-1.2905,-1.2905,-1.3065,-1.3467,-1.3684,-1.3956,-1.4376,-1.4766,-1.5175,-1.5565,-1.5776,-1.5886,-1.5886,-1.5886,-1.5688,-1.5265,-1.5265,-1.5265,-1.5265,-1.5265,-1.5265,-1.5265,-1.5688,-1.5776,-1.561,-1.6216,-1.65,-1.65,-1.6303,-1.5986,-1.5588,-1.5387,-1.5073,-1.472,-1.49,-1.4982,-1.4988,-1.4902,-1.492,-1.4948,-1.4629,-1.4426,-1.4309,-1.4309,-1.4221,-1.4104,-1.4104,-1.3909,-1.3743,-1.4026,-1.3899,-1.3643,-1.335,-1.3271,-1.3271,-1.3271,-1.3496,-1.3685,-1.3685,-1.3685,-1.3636,-1.351,-1.3121,-1.261,-1.2097,-1.1861,-1.166,-1.1533,-1.2184,-1.2767,-1.2987,-1.3654,-1.3997,-1.3714,-1.3001,-1.2386,-1.2056,-1.1786,-1.1404,-1.0847,-1.0568,-1.0141,-0.9465,-0.9256,-0.9342,-0.9702,-0.9717,-0.9787,-0.9913,-1.0509,-1.0772,-1.0724,-1.0852,-1.1105,-1.3198,-1.321,-1.3336,-1.3928,0.0,0.0,-1.5429,-1.5286,-1.5198,-1.6262,-1.6017,-1.541,-1.4812,-1.4213,-1.3613,-1.3017,-1.2905,-1.2905,-1.2905,-1.2905,-1.2905,-1.2905,-1.342,-1.3792,-1.3792,-1.4881,-1.5588,-1.5588,-1.6139,-1.65,-1.65,-1.65,-1.65,-1.65,-1.65,-1.65,-1.65,-1.65,-1.65,-1.65,-1.65,-1.6194,-1.5632,-1.6238,-1.65,-1.6457,-1.5864,-1.5576,-1.5543,-1.4926,-1.4686,-1.4731,-1.5271,-1.505,-1.4516,-1.5516,-1.542,-1.4844,-1.5264,-1.5137,-1.4823,-1.4823,-1.4502,-1.4114,-1.4114,-1.4114,-1.4114,-1.4114,-1.4114,-1.4114,-1.4114,-1.4114,-1.4114,-1.4104,-1.4114,-1.4114,-1.4114,-1.4114,-1.3987,-1.3603,-1.2957,-1.2516,-1.2516,-1.1965,-1.1892,-1.2941,-1.3123,-1.3368,-1.406,-1.4141,-1.4141,-1.4141,-1.4104,-1.3654,-1.2612,-1.3112,-1.2735,-1.0939,-1.1441,-1.1516,-1.0838,-1.0813,-1.0813,-1.0805,-1.0531,-1.0405,-1.0429,-1.069,-1.1026,-1.1411,-1.1293,-1.1807,-1.2803,-1.2981,0.0,-1.2617,0.0,0.0,0.0,-1.475,0.0,0.0,-1.6097,-1.6051,-1.5432,-1.5186,-1.4721,-1.3695,-1.3529,-1.3372,-1.2968,-1.2905,-1.2905,-1.2905,-1.3065,-1.3324,-1.3755,-1.4109,-1.4503,-1.4949,-1.5533,-1.5864,-1.5864,-1.6259,-1.65,-1.65,-1.65,-1.65,-1.65,-1.65,-1.65,-1.65,-1.65,-1.6402,-1.6238,-1.6423,-1.6259,-1.5864,-1.5676,-1.5107,-1.4295,-1.3671,-1.3614,-1.3874,-1.4032,-1.4342,-1.4713,-1.5027,-1.5158,-1.5244,-1.5371,-1.5332,-1.5225,-1.5225,-1.5137,-1.5001,-1.5001,-1.4824,-1.4648,-1.4923,-1.4814,-1.4658,-1.4923,-1.5001,-1.4855,-1.425,-1.4338,-1.459,-1.459,-1.459,-1.4561,-1.4434,-1.399,-1.3618,-1.3618,-1.3449,-1.3434,-1.3763,-1.4518,-1.5433,-1.6422,-1.6321,-1.6142,-1.6142,-1.5136,-1.4306,-1.3998,-1.3412,-1.286,-1.2314,-1.2461,-1.2039,-1.0838,-1.0623,-1.071,-1.1072,-1.1101,-1.1293,-1.1673,-1.2087,-1.2335,-1.245,-1.2402,-1.2575,-1.2884,-1.2889,0.0,-1.2257,-1.2648,-1.3326,-1.3903,0.0,0.0,0.0,-1.6262,-1.6315,-1.5698,-1.561,-1.5286,-1.4306,-1.4167,-1.4037,-1.3681,-1.361,-1.361,-1.361,-1.361,-1.3766,-1.412,-1.4365,-1.4572,-1.4698,-1.5253,-1.5499,-1.5253,-1.5798,-1.6139,-1.6139,-1.638,-1.65,-1.65,-1.65,-1.65,-1.65,-1.65,-1.65,-1.65,-1.65,-1.6173,-1.5565,-1.5084,-1.4342,-1.343,-1.3219,-1.3437,-1.3927,-1.3785,-1.4357,-1.521,-1.4915,-1.5049,-1.541,-1.541,-1.541,-1.541,-1.541,-1.541,-1.541,-1.541,-1.5234,-1.5088,-1.5342,-1.5234,-1.5088,-1.5342,-1.541,-1.5283,-1.4738,-1.4844,-1.4944,-1.462,-1.4802,-1.4895,-1.4411,-1.434,-1.4367,-1.4367,-1.4367,-1.4525,-1.4994,-1.5903,-1.6836,-1.7506,-1.7375,-1.7234,-1.7234,-1.6181,-1.5304,-1.486,-1.4004,-1.3332,-1.2939,-1.2905,-1.252,-1.1667,-1.147,-1.1562,-1.1873,-1.1954,-1.2154,-1.249,-1.2754,-1.2905,-1.2905,-1.2905,-1.2905,-1.3267,-1.2849,0.0,-1.244,-1.2791,0.0,-1.3783,-1.5166,-1.6327,-1.6286,0.0,-1.6262,-1.5704,-1.564,-1.5477,-1.488,-1.4766,-1.4766,-1.4698,-1.4698,-1.4698,-1.4698,-1.4698,-1.4721,-1.4766,-1.5231,-1.532,-1.4812,-1.5231,-1.5276,-1.4721,-1.5276,-1.561,-1.561,-1.6194,-1.65,-1.65,-1.65,-1.65,-1.65,-1.65,-1.65,-1.65,-1.65,-1.6139,-1.5454,-1.4295,-1.3481,-1.2998,-1.3391,-1.3977,-1.4616,-1.4324,-1.4928,-1.5879,-1.5154,-1.5134,-1.5497,-1.541,-1.541,-1.541,-1.541,-1.541,-1.541,-1.541,-1.541,-1.541,-1.541,-1.541,-1.541,-1.541,-1.541,-1.541,-1.541,-1.541,-1.5196,-1.4481,-1.4874,-1.509,-1.3983,-1.4346,-1.4872,-1.4946,-1.4956,-1.5355,-1.6514,-1.723,-1.7715,-1.7797,-1.7786,-1.7775,-1.773,-1.7209,-1.6417,-1.541,-1.4775,-1.4049,-1.3109,-1.3041,-1.3017,-1.3017,-1.2954,-1.2905,-1.2905,-1.2905,-1.2905,-1.2905,-1.2905,-1.2905,-1.2905,-1.2905,-1.2905,-1.3062,-1.2421,0.0,0.0,-1.1954,-1.2851,-1.3639,-1.4528,-1.5058,-1.4617,-1.5262,-1.5827,-1.5691,-1.6017,-1.6107,-1.5499,-1.541,-1.5231,-1.4766,-1.4698,-1.4698,-1.4698,-1.4698,-1.488,-1.5365,-1.5096,-1.5039,-1.5387,-1.5085,-1.4835,-1.4698,-1.5276,-1.561,-1.561,-1.6194,-1.65,-1.65,-1.65,-1.65,-1.65,-1.65,-1.65,-1.65,-1.65,-1.5898,-1.4858,-1.412,-1.3732,-1.36,-1.3693,-1.4294,-1.5136,-1.5075,-1.5691,-1.6523,-1.5775,-1.5817,-1.6179,-1.5613,-1.541,-1.541,-1.541,-1.541,-1.541,-1.541,-1.541,-1.541,-1.541,-1.541,-1.541,-1.541,-1.541,-1.541,-1.541,-1.541,-1.5352,-1.5167,-1.5294,-1.5323,-1.5052,-1.5158,-1.5446,-1.6036,-1.612,-1.6564,-1.7797,-1.812,-1.8498,-1.9228,-1.9333,-1.916,-1.8742,-1.7794,-1.6901,-1.6183,-1.5218,-1.4532,-1.4328,-1.4014,-1.3849,-1.3849,-1.3248,-1.2905,-1.2905,-1.2905,-1.2905,-1.2905,-1.2905,-1.2905,-1.2905,-1.2905,-1.2905,-1.3927,0.0,0.0,-1.1729,0.0,-1.2617,-1.3575,-1.4104,-1.4296,-1.4063,-1.4902,-1.5693,-1.5693,-1.5932,-1.609,-1.6037,-1.581,-1.5629,-1.5576,-1.5567,-1.5567,-1.5567,-1.5567,-1.57,-1.6008,-1.5744,-1.5577,-1.561,-1.5298,-1.5005,-1.4732,-1.5276,-1.561,-1.561,-1.6194,-1.65,-1.65,-1.65,-1.65,-1.65,-1.65,-1.65,-1.65,-1.6194,-1.5732,-1.5096,-1.448,-1.4236,-1.4258,-1.4428,-1.5048,-1.582,-1.5684,-1.6334,-1.7234,-1.6508,-1.6569,-1.6978,-1.6585,-1.6433,-1.6415,-1.6026,-1.6169,-1.633,-1.5604,-1.5642,-1.5864,-1.5497,-1.541,-1.541,-1.541,-1.541,-1.541,-1.541,-1.541,-1.541,-1.541,-1.541,-1.5294,-1.4903,-1.542,-1.6036,-1.6425,-1.709,-1.7743,-1.8309,-1.8765,-1.924,-1.9747,-1.9798,-1.9698,-1.9396,-1.8536,-1.7836,-1.7542,-1.6307,-1.5382,-1.498,-1.4587,-1.4376,-1.4376,-1.3967,-1.3501,-1.2905,-1.2905,-1.2905,-1.2905,-1.2905,-1.2905,-1.2905,-1.2905,-1.2905,-1.5192,0.0,-1.3,-1.2322,-1.2242,0.0,-1.358,-1.3935,-1.4073,-1.4129,-1.489,-1.5555,-1.5555,-1.563,-1.5881,-1.64,-1.6132,-1.5994,-1.6437,-1.65,-1.65,-1.65,-1.65,-1.65,-1.65,-1.65,-1.6281,-1.5798,-1.5654,-1.5387,-1.488,-1.532,-1.561,-1.561,-1.6194,-1.65,-1.65,-1.65,-1.65,-1.65,-1.6595,-1.6595,-1.65,-1.6083,-1.5786,-1.5565,-1.5073,-1.4858,-1.4892,-1.53,-1.5916,-1.6541,-1.6419,-1.7068,-1.8014,-1.7382,-1.7425,-1.7797,-1.7775,-1.7704,-1.7523,-1.7013,-1.7219,-1.7401,-1.628,-1.6301,-1.6567,-1.594,-1.5767,-1.5767,-1.5767,-1.5767,-1.5748,-1.569,-1.5719,-1.5719,-1.5439,-1.5497,-1.54,-1.4737,-1.5823,-1.6866,-1.6866,-1.8015,-1.8833,-1.867,-1.9293,-1.9798,-1.9798,-1.9991,-2.0042,-1.9824,-1.927,-1.885,-1.8618,-1.7541,-1.6561,-1.5845,-1.5551,-1.528,-1.5028,-1.4994,-1.4479,-1.3344,-1.3248,-1.3248,-1.332,-1.3176,-1.3089,-1.3065,-1.2954,-1.2905,-1.6037,0.0,-1.2896,0.0,-1.2408,-1.3111,0.0,0.0,-1.4679,0.0,-1.4853,-1.4997,-1.4997,-1.5399,-1.5881,-1.64,-1.6437,-1.6412,-1.6488,-1.65,-1.65,-1.65,-1.65,-1.65,-1.65,-1.65,-1.6466,-1.638,-1.5908,-1.5565,-1.5477,-1.5565,-1.561,-1.561,-1.6194,-1.65,-1.65,-1.65,-1.65,-1.6522,-1.6972,-1.6951,-1.6522,-1.6896,-1.6532,-1.561,-1.5521,-1.5477,-1.5521,-1.6032,-1.6633,-1.7209,-1.7657,-1.8248,-1.8828,-1.8619,-1.8536,-1.8543,-1.8487,-1.8082,-1.7677,-1.8166,-1.8001,-1.7665,-1.8047,-1.7838,-1.744,-1.7319,-1.7302,-1.7302,-1.7302,-1.7302,-1.7219,-1.681,-1.6996,-1.6968,-1.569,-1.5892,-1.6312,-1.6226,-1.7401,-1.8421,-1.8421,-1.9097,-1.9643,-1.9618,-1.9721,-1.9798,-1.9798,-2.0756,-2.1013,-1.9927,-1.982,-1.9399,-1.8363,-1.8355,-1.8359,-1.8252,-1.819,-1.7594,-1.6321,-1.6272,-1.5866,-1.5005,-1.464,-1.464,-1.4994,-1.4294,-1.3849,-1.3661,-1.3152,-1.2905,-1.6576,-1.5032,-1.3774,0.0,-1.2962,-1.3222,-1.41,-1.453,-1.4836,-1.5226,-1.533,-1.5349,-1.5349,-1.553,-1.5881,-1.64,-1.6258,-1.6262,-1.687,-1.6951,-1.6951,-1.6951,-1.7209,-1.7271,-1.6972,-1.7209,-1.7415,-1.7415,-1.6883,-1.6553,-1.6553,-1.6278,-1.6095,-1.6095,-1.6358,-1.6637,-1.6951,-1.6951,-1.7097,-1.7415,-1.7646,-1.7626,-1.7415,-1.7646,-1.7306,-1.6553,-1.6553,-1.671,-1.7011,-1.7259,-1.7497,-1.7767,-1.8007,-1.8686,-1.9498,-1.9444,-1.9841,-2.0381,-2.0354,-2.0154,-1.9889,-1.9763,-1.9801,-1.9813,-1.9278,-1.9187,-1.9186,-1.8782,-1.841,-1.8151,-1.8151,-1.7888,-1.7495,-1.7006,-1.7246,-1.7495,-1.7174,-1.7118,-1.7246,-1.766,-1.8259,-1.8821,-1.9254,-1.9592,-1.9798,-1.9798,-1.9798,-2.032,-2.1744,-2.2409,-2.2546,-2.1979,-2.0695,-1.9973,-2.0149,-1.9629,-1.9321,-1.9321,-1.9321,-1.9032,-1.8392,-1.7152,-1.6523,-1.6595,-1.5565,-1.5005,-1.496,-1.4606,-1.4213,-1.3792,-1.3529,-1.3214,-1.7192,-1.6046,-1.5127,-1.4567,-1.4068,-1.3971,0.0,0.0,-1.5255,-1.5798,-1.5906,-1.5935,-1.6079,-1.6005,-1.6023,-1.6401,-1.6368,-1.653,-1.7169,-1.739,-1.7504,-1.7504,-1.7867,-1.7947,-1.7544,-1.7867,-1.8106,-1.8106,-1.7727,-1.7504,-1.7504,-1.6993,-1.6689,-1.6689,-1.6689,-1.6888,-1.7312,-1.7442,-1.7706,-1.8106,-1.8243,-1.8243,-1.8106,-1.8243,-1.8086,-1.7706,-1.7565,-1.7727,-1.8125,-1.8263,-1.8302,-1.8322,-1.8458,-1.9164,-2.0117,-2.0302,-2.0854,-2.1568,-2.1805,-2.1875,-2.1767,-2.1102,-2.1236,-2.155,-2.078,-2.0707,-2.0771,-2.0201,-1.9674,-1.925,-1.9366,-1.8936,-1.8439,-1.819,-1.8267,-1.8436,-1.8471,-1.8163,-1.8097,-1.8847,-1.8992,-1.915,-1.9721,-1.9798,-1.9798,-1.9798,-2.0345,-2.1435,-2.3363,-2.3595,-2.3595,-2.3595,-2.171,-2.067,-2.1183,-2.0345,-1.9798,-1.9798,-1.9798,-1.9748,-1.961,-1.8005,-1.7265,-1.7551,-1.6417,-1.5619,-1.5152,-1.4858,-1.4468,-1.4027,-1.3708,-1.3334,-1.8101,-1.7498,-1.6909,-1.6316,-1.6044,-1.601,0.0,0.0,-1.6253,-1.6411,-1.645,-1.6608,-1.7128,-1.6804,-1.6415,-1.6316,-1.7256,-1.7773,-1.7186,-1.7669,-1.8066,-1.8066,-1.8086,-1.8086,-1.8066,-1.8086,-1.8106,-1.8106,-1.8066,-1.8066,-1.8066,-1.7544,-1.725,-1.725,-1.725,-1.7271,-1.7312,-1.7807,-1.8066,-1.8125,-1.8612,-1.8593,-1.8125,-1.8631,-1.8836,-1.8798,-1.8283,-1.8066,-1.8145,-1.865,-1.8855,-1.8912,-1.9424,-2.0054,-2.0737,-2.137,-2.1405,-2.1248,-2.2081,-2.236,-2.2291,-2.1805,-2.1673,-2.1908,-2.3032,-2.2569,-2.1625,-2.1602,-2.128,-2.1064,-2.1435,-2.1232,-2.1015,-2.1363,-2.1013,-2.0283,-1.898,-1.8661,-1.8847,-1.9618,-1.9747,-1.9747,-1.9798,-1.9798,-1.9798,-1.9798,-2.1862,-2.345,-2.3573,-2.3595,-2.3595,-2.3595,-2.2793,-2.1619,-2.0042,-1.985,-1.9798,-1.9798,-1.9798,-1.9572,-1.9058,-1.8933,-1.8406,-1.7436,-1.7328,-1.6995,-1.6402,-1.5254,-1.4675,-1.4629,-1.3478,-1.2929,-1.91,-1.8569,0.0,-1.7415,-1.6981,-1.6632,-1.6434,-1.6374,-1.638,-1.647,-1.6774,-1.6938,-1.6696,-1.6487,-1.6474,-1.6771,-1.6813,-1.7001,-1.7533,-1.7818,-1.8134,-1.8569,-1.893,-1.8987,-1.865,-1.893,-1.9132,-1.9132,-1.8817,-1.8612,-1.8612,-1.8106,-1.7666,-1.7312,-1.7312,-1.7463,-1.7807,-1.8688,-1.9132,-1.9132,-1.9332,-1.9314,-1.9132,-1.9332,-1.9406,-1.9406,-1.9207,-1.9132,-1.9151,-1.9332,-1.9406,-1.9424,-1.9621,-2.037,-2.137,-2.16,-2.2119,-2.2733,-2.3061,-2.3165,-2.3143,-2.298,-2.2913,-2.3002,-2.345,-2.3282,-2.2913,-2.2913,-2.2823,-2.2733,-2.2891,-2.2202,-2.1605,-2.2044,-2.1974,-2.1547,-2.0458,-2.0143,-2.0131,-2.0396,-2.0547,-2.0472,-1.9901,-1.9798,-2.0345,-2.1979,-2.3024,-2.3595,-2.3595,-2.3595,-2.3595,-2.3595,-2.3341,-2.2725,-2.1571,-2.0955,-2.0633,-2.0633,-2.0522,-2.0168,-1.9535,-1.9591,-1.9267,-1.8442,-1.8091,-1.7451,-1.65,-1.6064,-1.5456,-1.4686,-1.4247,-1.3634,-1.9588,-1.9417,0.0,0.0,-1.8106,-1.7643,-1.7119,-1.6811,-1.6607,-1.6514,-1.6641,-1.6734,-1.6599,-1.6239,-1.6179,-1.6806,-1.6944,-1.7206,-1.7895,-1.8303,-1.867,-1.9126,-1.9479,-1.9566,-1.9207,-1.9479,-1.9708,-1.9708,-1.9369,-1.9169,-1.9169,-1.865,-1.8125,-1.7585,-1.7747,-1.8007,-1.838,-1.9244,-1.9708,-1.9708,-1.9708,-1.9708,-1.9708,-1.9708,-1.9708,-1.9708,-1.9708,-1.9708,-1.9708,-1.9708,-1.9708,-1.9708,-1.9708,-2.0427,-2.15,-2.1784,-2.2622,-2.3595,-2.3595,-2.3595,-2.3595,-2.3595,-2.3595,-2.3595,-2.3595,-2.3595,-2.3595,-2.3595,-2.3595,-2.3595,-2.3595,-2.298,-2.2409,-2.2725,-2.2793,-2.2543,-2.1524,-2.1102,-2.0944,-2.1064,-2.0856,-2.0497,-1.9901,-2.0521,-2.1649,-2.3363,-2.3595,-2.3595,-2.3595,-2.3595,-2.3595,-2.3595,-2.3595,-2.3312,-2.2558,-2.1917,-2.1465,-2.1307,-2.1186,-2.0892,-2.0446,-2.0521,-2.017,-1.9351,-1.898,-1.8236,-1.7064,-1.6653,-1.5963,-1.4968,-1.4638,-1.3931,0.0,0.0,0.0,0.0,0.0,0.0,-1.838,-1.7632,-1.7,-1.66,-1.6095,-1.6017,-1.6897,-1.6125,-1.5599,-1.6377,-1.7712,-1.8554,-1.8238,-1.9063,-1.9696,-1.9708,-1.9708,-1.9708,-1.9708,-1.9708,-1.9708,-1.9708,-1.9708,-1.9708,-1.9708,-1.9188,-1.865,-1.8145,-1.8631,-1.8893,-1.8893,-1.9424,-1.9708,-1.9708,-1.9708,-1.9708,-1.9708,-1.9708,-1.9708,-1.9708,-1.9708,-1.9708,-1.9708,-1.9708,-1.9708,-1.9708,-1.9708,-2.0247,-2.1111,-2.1979,-2.2847,-2.3595,-2.3595,-2.3595,-2.3595,-2.3595,-2.3595,-2.3595,-2.3595,-2.3595,-2.3595,-2.3595,-2.3595,-2.3595,-2.3595,-2.3616,-2.3638,-2.3595,-2.3595,-2.326,-2.2025,-2.1438,-2.1283,-2.1639,-2.0731,-1.9927,-1.9927,-2.1955,-2.3595,-2.3595,-2.3595,-2.3595,-2.3595,-2.3595,-2.3595,-2.3595,-2.3595,-2.3377,-2.2777,-2.2535,-2.2207,-2.1758,-2.172,-2.172,-2.1697,-2.172,-2.1189,-2.0049,-2.0012,-1.9441,-1.8254,-1.7035,-1.6127,-1.5474,-1.4512,-1.3647,-1.9889,0.0,0.0,0.0,0.0,0.0,-1.8437,-1.8007,-1.7626,-1.6687,-1.6688,-1.6663,-1.6055,-1.6216,-1.6416,-1.6301,-1.7115,-1.7853,-1.8161,-1.8947,-1.9548,-1.9684,-1.9708,-1.9708,-1.9708,-1.9708,-1.9708,-1.9708,-1.9708,-1.9708,-1.9708,-1.9188,-1.8836,-1.8669,-1.8817,-1.8893,-1.8893,-1.9424,-1.9708,-1.9708,-1.9708,-1.9708,-1.9708,-1.9708,-1.9708,-1.9708,-1.9708,-1.9708,-1.9708,-1.9708,-1.9708,-1.9708,-1.9708,-2.0441,-2.156,-2.2099,-2.2847,-2.3595,-2.3595,-2.3595,-2.3595,-2.3595,-2.3595,-2.3595,-2.3595,-2.3595,-2.3595,-2.3595,-2.3595,-2.3595,-2.3595,-2.4178,-2.4572,-2.3773,-2.3595,-2.3508,-2.315,-2.2995,-2.2688,-2.1875,-2.2156,-2.2546,-2.2546,-2.3128,-2.3595,-2.3595,-2.3595,-2.3595,-2.3595,-2.3595,-2.3595,-2.3595,-2.3595,-2.353,-2.3377,-2.2897,-2.2558,-2.2429,-2.2429,-2.2193,-2.172,-2.217,-2.1843,-2.0596,-2.0582,-2.0173,-1.9359,-1.8237,-1.6943,-1.5474,-1.3938,-1.3104,-1.9836,-1.9969,-1.9919,-2.0019,0.0,0.0,-1.8436,-1.8119,-1.7839,-1.6722,-1.6372,-1.6084,-1.5549,-1.5726,-1.6017,-1.6291,-1.7212,-1.8038,-1.8406,-1.8951,-1.9403,-1.9671,-1.9497,-1.9442,-1.969,-1.9497,-1.946,-1.969,-1.9708,-1.9708,-1.9708,-1.9406,-1.9132,-1.8912,-1.9132,-1.9263,-1.933,-1.9572,-1.9824,-2.0109,-1.9842,-1.9708,-1.9708,-1.9708,-1.9708,-1.9708,-1.9708,-1.9708,-1.9723,-1.9989,-1.9944,-1.9738,-2.0112,-2.0951,-2.2024,-2.2622,-2.3161,-2.3595,-2.3595,-2.3595,-2.3595,-2.3595,-2.3595,-2.3595,-2.3595,-2.3595,-2.3595,-2.3595,-2.3921,-2.4369,-2.478,-2.4716,-2.4369,-2.3745,-2.3595,-2.3595,-2.3595,-2.3595,-2.3384,-2.2651,-2.3091,-2.3595,-2.3595,-2.3595,-2.3595,-2.3595,-2.3595,-2.3595,-2.3595,-2.3595,-2.3595,-2.3595,-2.3595,-2.3595,-2.3595,-2.329,-2.3076,-2.3076,-2.3076,-2.2905,-2.25,-2.286,-2.2612,-2.1609,-2.1307,-2.072,-1.9798,-1.8957,-1.7629,-1.5851,-1.4822,-1.4363,-1.9525,-1.9912,-2.0074,-1.9782,-1.9965,0.0,-1.8487,-1.8145,-1.7807,-1.6795,-1.574,-1.5046,-1.5299,-1.504,-1.5119,-1.618,-1.7546,-1.8562,-1.8806,-1.9123,-1.9429,-1.9669,-1.9281,-1.9188,-1.9639,-1.9262,-1.9188,-1.9657,-1.9729,-1.9764,-1.9764,-1.9764,-1.9551,-1.9066,-1.9553,-1.9875,-1.9985,-1.993,-2.0183,-2.0688,-2.0094,-1.9768,-1.9708,-1.9708,-1.9708,-1.9708,-1.9708,-1.9753,-1.9854,-2.0378,-2.0292,-1.9902,-2.0696,-2.1565,-2.2443,-2.3295,-2.3595,-2.3595,-2.3595,-2.3595,-2.3595,-2.3595,-2.3595,-2.3595,-2.3595,-2.3595,-2.3595,-2.3595,-2.441,-2.5486,-2.6453,-2.5322,-2.3948,-2.3948,-2.3773,-2.3659,-2.3885,-2.3948,-2.3948,-2.3948,-2.3752,-2.3595,-2.3595,-2.3595,-2.3595,-2.3595,-2.3595,-2.3595,-2.3595,-2.3595,-2.3595,-2.3595,-2.3595,-2.3595,-2.3595,-2.3595,-2.3595,-2.3595,-2.3595,-2.3595,-2.3595,-2.3595,-2.3312,-2.2694,-2.2053,-2.111,-1.9901,-1.9221,-1.8105,-1.6596,-1.6461,-1.6415,-1.9555,-1.9446,-1.9266,-1.9621,-1.9764,0.0,-1.8912,-1.8419,-1.7927,-1.7271,-1.6621,-1.5911,-1.5079,-1.5494,-1.5841,-1.5433,-1.6695,-1.8052,-1.8995,-1.9693,-2.0003,-1.9732,-1.9603,-1.9584,-1.969,-1.9603,-1.9584,-1.969,-2.0,-2.0193,-2.0193,-2.0193,-2.0126,-2.0024,-2.0346,-2.0516,-2.054,-2.1057,-2.1096,-2.0703,-2.0554,-2.0228,-1.9708,-1.9708,-1.9708,-1.9708,-1.9708,-2.0004,-2.0475,-2.007,-2.0133,-2.0543,-2.0857,-2.1669,-2.2703,-2.3355,-2.3595,-2.3595,-2.3595,-2.3595,-2.3595,-2.3595,-2.3595,-2.3595,-2.3595,-2.3595,-2.3595,-2.3595,-2.4572,-2.5764,-2.6505,-2.6402,-2.6089,-2.6089,-2.482,-2.4059,-2.5713,-2.6089,-2.6089,-2.6089,-2.474,-2.3595,-2.3595,-2.3595,-2.3595,-2.3595,-2.3595,-2.3595,-2.3595,-2.3595,-2.3595,-2.3595,-2.3595,-2.3595,-2.3595,-2.3595,-2.3595,-2.3595,-2.3595,-2.3595,-2.3595,-2.3595,-2.3312,-2.2694,-2.2053,-2.1342,-2.0597,-1.9033,-1.811,-1.7754,-1.6836,-1.6391,-2.021,-2.0143,-1.9954,-1.9984,-2.0,0.0,0.0,-1.8688,-1.8361,-1.7807,-1.7244,-1.6591,-1.5758,-1.5798,-1.5994,-1.6134,-1.6854,-1.7882,-1.9267,-1.9616,-1.9739,-1.9702,-1.9466,-1.9296,-1.9291,-1.9295,-1.941,-1.9669,-2.0192,-2.0439,-2.0313,-2.0297,-2.0588,-2.1171,-2.1075,-2.134,-2.203,-2.1818,-2.153,-2.1201,-2.0853,-2.0348,-1.9708,-1.9708,-1.9708,-1.9723,-2.0049,-2.0393,-2.0729,-2.1049,-2.139,-2.1675,-2.1447,-2.1898,-2.2763,-2.337,-2.3595,-2.3595,-2.3595,-2.3595,-2.3595,-2.3595,-2.3595,-2.3595,-2.3595,-2.3595,-2.3659,-2.3906,-2.4511,-2.5224,-2.5998,-2.6453,-2.6691,-2.6691,-2.5893,-2.5435,-2.6487,-2.6691,-2.6691,-2.6691,-2.5857,-2.482,-2.3773,-2.3595,-2.3595,-2.3595,-2.3595,-2.3595,-2.3595,-2.3595,-2.3595,-2.3595,-2.3595,-2.3595,-2.3595,-2.3595,-2.3595,-2.3595,-2.3595,-2.3595,-2.3595,-2.3595,-2.3312,-2.2694,-2.2369,-2.1889,-2.1245,-2.0342,-1.9584,-1.894,-1.8366,-1.7949,-2.0894,-2.0895,-2.0735,-2.0485,-2.0339,-2.0042,0.0,0.0,0.0,-1.8207,-1.759,-1.6974,-1.6295,-1.6016,-1.6136,-1.6888,-1.7355,-1.8063,-1.9368,-1.9388,-1.9389,-1.9669,-1.9323,-1.8999,-1.8912,-1.8908,-1.9188,-1.9826,-2.0467,-2.078,-2.068,-2.0771,-2.1242,-2.2104,-2.1862,-2.221,-2.3264,-2.2455,-2.1934,-2.168,-2.1156,-2.0468,-1.9708,-1.9708,-1.9708,-1.9738,-2.0423,-2.0823,-2.1092,-2.2081,-2.2658,-2.2826,-2.2272,-2.2394,-2.2942,-2.3415,-2.3595,-2.3595,-2.3595,-2.3595,-2.3595,-2.3595,-2.3595,-2.3595,-2.3595,-2.3595,-2.3702,-2.4116,-2.4307,-2.4572,-2.5316,-2.5962,-2.647,-2.6657,-2.6691,-2.6691,-2.6691,-2.6691,-2.6691,-2.6691,-2.6691,-2.6035,-2.397,-2.3595,-2.3595,-2.3595,-2.3595,-2.3595,-2.3595,-2.3595,-2.3595,-2.3595,-2.3595,-2.3595,-2.3595,-2.3595,-2.3595,-2.3595,-2.3595,-2.3595,-2.3595,-2.3595,-2.3377,-2.2875,-2.2875,-2.2566,-2.1899,-2.1899,-2.1304,-2.0156,-2.0156,-1.9863,-2.0991,-2.0527,-2.0177,-2.0767,-2.0432,-1.9973,-2.0107,0.0,-1.9223,-1.814,0.0,-1.674,-1.5561,0.0,0.0,-1.6376,-1.7675,-1.8787,-1.8968,-1.9368,-1.9654,-1.9693,-1.9648,-1.9412,-1.895,-1.8893,-1.9377,-2.0501,-2.0993,-2.1476,-2.2034,-2.2526,-2.2645,-2.2285,-2.2859,-2.3047,-2.2791,-2.3188,-2.2817,-2.1695,-2.162,-2.0917,-1.9708,-1.9708,-1.9708,-1.9738,-2.0423,-2.1246,-2.2103,-2.1908,-2.2483,-2.349,-2.341,-2.3425,-2.3505,-2.3565,-2.3595,-2.3595,-2.3595,-2.3595,-2.3595,-2.3595,-2.3595,-2.3595,-2.3595,-2.3595,-2.3616,-2.3681,-2.4032,-2.445,-2.4744,-2.5102,-2.5598,-2.6487,-2.6691,-2.6691,-2.6691,-2.6691,-2.6691,-2.6691,-2.6691,-2.6035,-2.397,-2.3595,-2.3595,-2.3595,-2.3595,-2.3595,-2.3595,-2.3595,-2.3595,-2.3595,-2.3595,-2.3595,-2.3595,-2.3595,-2.3595,-2.3595,-2.3595,-2.3595,-2.3595,-2.3595,-2.3573,-2.3508,-2.3508,-2.3187,-2.2603,-2.2603,-2.2207,-2.1482,-2.1482,-2.1156,-2.1675,-2.1536,-2.1297,-2.1334,-2.1126,-2.0857,-2.0734,-2.022,-1.9773,-1.9716,0.0,0.0,0.0,0.0,0.0,0.0,-1.8517,-1.8921,-1.931,-1.9566,-1.9708,-1.9708,-1.9701,-1.9632,-1.9425,-1.9535,-1.99,-2.0653,-2.1575,-2.2171,-2.2278,-2.2521,-2.2841,-2.3343,-2.334,-2.3445,-2.3677,-2.3631,-2.3146,-2.2283,-2.1874,-2.1201,-2.0273,-1.9887,-1.9708,-1.9768,-2.1066,-2.1874,-2.2317,-2.2661,-2.3125,-2.3595,-2.3595,-2.3595,-2.3595,-2.3595,-2.3595,-2.3595,-2.3595,-2.3595,-2.3595,-2.3595,-2.3595,-2.3595,-2.3595,-2.3595,-2.3595,-2.3595,-2.3752,-2.3964,-2.4027,-2.4173,-2.4677,-2.6298,-2.6691,-2.6691,-2.6691,-2.6691,-2.6691,-2.6691,-2.6691,-2.6419,-2.5547,-2.4394,-2.3595,-2.3595,-2.3595,-2.3595,-2.3595,-2.3595,-2.3595,-2.3595,-2.3595,-2.3595,-2.3595,-2.3595,-2.3595,-2.3595,-2.3595,-2.3595,-2.3595,-2.3595,-2.3595,-2.3595,-2.3595,-2.3486,-2.3209,-2.3209,-2.3084,-2.2786,-2.2025,-2.139,-2.2209,-2.2144,-2.197,-2.1834,-2.1645,-2.1376,-2.0968,-2.0442,-2.0138,-2.0366,-2.006,0.0,0.0,0.0,-1.9704,-1.971,0.0,-1.9493,-1.9991,-2.0067,-1.9962,-1.9744,-1.9578,-1.9555,-1.9753,-1.9943,-2.0295,-2.0924,-2.2037,-2.2681,-2.2653,-2.2813,-2.3204,-2.3939,-2.3736,-2.3788,-2.4163,-2.3794,-2.3295,-2.2688,-2.2009,-2.135,-2.0673,-2.0004,-1.9828,-2.0127,-2.138,-2.2069,-2.2353,-2.3056,-2.3445,-2.3595,-2.3595,-2.3595,-2.3595,-2.3595,-2.3595,-2.3595,-2.3595,-2.3702,-2.3837,-2.3991,-2.4032,-2.4012,-2.3858,-2.3815,-2.3794,-2.3638,-2.3595,-2.3595,-2.3595,-2.3595,-2.3991,-2.5491,-2.6071,-2.6367,-2.6641,-2.6691,-2.6691,-2.6691,-2.6691,-2.6691,-2.6691,-2.5454,-2.4266,-2.3702,-2.3595,-2.3595,-2.3595,-2.3595,-2.3681,-2.3894,-2.3724,-2.3659,-2.3794,-2.3666,-2.3595,-2.3595,-2.3595,-2.3595,-2.3595,-2.3595,-2.3595,-2.3595,-2.373,-2.3745,-2.3595,-2.3745,-2.373,-2.3573,-2.2651,-2.1913,-2.2296,-2.1786,-2.1397,-2.2096,-2.1738,-2.1086,-2.0615,-2.0498,-2.0199,-1.9174,-1.9218,-1.9334,-1.9097,-1.9829,-2.0359,-2.0043,-2.0527,0.0,0.0,-2.0975,-2.0664,-1.98,-1.924,-1.9128,-1.9646,-1.9827,-2.0395,-2.1575,-2.2308,-2.2942,-2.3526,-2.4055,-2.4117,-2.3629,-2.4106,-2.4127,-2.3638,-2.3595,-2.3295,-2.2688,-2.2009,-2.135,-2.0673,-2.0004,-2.0172,-2.0946,-2.1026,-2.1515,-2.2323,-2.2613,-2.3077,-2.3595,-2.3595,-2.3595,-2.3595,-2.3595,-2.3595,-2.3595,-2.3595,-2.3927,-2.4471,-2.4973,-2.5163,-2.5051,-2.4532,-2.4369,-2.4266,-2.3745,-2.3595,-2.3595,-2.3595,-2.3595,-2.3616,-2.3666,-2.4491,-2.5524,-2.6487,-2.6691,-2.6691,-2.6691,-2.6691,-2.6691,-2.6691,-2.6641,-2.5911,-2.3906,-2.3595,-2.3595,-2.3595,-2.3595,-2.3858,-2.4599,-2.4042,-2.3815,-2.4328,-2.39,-2.3595,-2.3595,-2.3595,-2.3595,-2.3595,-2.3595,-2.3595,-2.3595,-2.4116,-2.4116,-2.3595,-2.4116,-2.4116,-2.3595,-2.3551,-2.3209,-2.2209,-2.2124,-2.1989,-2.2229,-2.2124,-2.188,-2.172,-2.1306,-2.1008,-2.1116,-2.0863,-2.0851,-2.174,-2.2197,-2.2456,-2.2554,-2.2769,-2.2655,0.0,-2.1295,-2.0878,-2.0614,-1.9849,0.0,-2.0118,-2.0398,-2.0868,-2.1647,-2.2695,-2.337,-2.3595,-2.3773,-2.3794,-2.3595,-2.3773,-2.3773,-2.3595,-2.3595,-2.349,-2.3266,-2.2203,-2.1575,-2.1321,-2.0198,-1.9872,-2.0172,-2.0756,-2.1485,-2.2323,-2.2598,-2.3062,-2.3595,-2.3595,-2.3595,-2.3595,-2.3595,-2.3595,-2.3659,-2.4012,-2.4246,-2.4569,-2.5588,-2.5926,-2.5986,-2.6293,-2.6004,-2.5556,-2.5367,-2.4484,-2.3595,-2.3595,-2.3595,-2.3948,-2.5322,-2.4879,-2.4617,-2.6333,-2.6453,-2.6332,-2.6641,-2.6453,-2.6244,-2.6244,-2.5944,-2.5526,-2.5051,-2.4608,-2.4318,-2.4318,-2.4318,-2.4603,-2.5294,-2.5144,-2.4973,-2.4914,-2.4756,-2.4348,-2.3638,-2.3927,-2.4137,-2.4137,-2.3794,-2.3927,-2.4637,-2.4491,-2.4491,-2.4657,-2.4491,-2.4307,-2.4116,-2.3773,-2.329,-2.1974,-2.2163,-2.2296,-2.2296,-2.2296,-2.2184,-2.177,-2.1434,-2.1285,-2.1603,-2.1495,-2.1676,-2.2813,-2.3323,-2.3602,-2.371,-2.3946,-2.3751,0.0,-2.2147,-2.1756,-2.1479,-2.0634,0.0,0.0,-2.0919,-2.1335,-2.2016,-2.2814,-2.337,-2.3595,-2.3595,-2.3595,-2.3595,-2.3595,-2.3595,-2.3595,-2.3595,-2.3595,-2.3595,-2.2547,-2.1939,-2.165,-2.0322,-1.9842,-2.0094,-2.0741,-2.1565,-2.2463,-2.2628,-2.3062,-2.3595,-2.3595,-2.3595,-2.3595,-2.3595,-2.3595,-2.3711,-2.4476,-2.4777,-2.4958,-2.617,-2.6719,-2.7081,-2.7774,-2.732,-2.6379,-2.5529,-2.475,-2.4246,-2.4601,-2.4536,-2.4677,-2.6034,-2.5227,-2.4659,-2.6471,-2.6392,-2.6221,-2.6944,-2.6498,-2.6078,-2.6272,-2.5741,-2.5314,-2.5497,-2.516,-2.4883,-2.4883,-2.4883,-2.5121,-2.5744,-2.588,-2.5837,-2.5609,-2.5346,-2.491,-2.4204,-2.4307,-2.441,-2.441,-2.4074,-2.4204,-2.4894,-2.4953,-2.5047,-2.5202,-2.5031,-2.4756,-2.4389,-2.4053,-2.3565]},{"header":{"parameterUnit":"m.s-1","parameterCategory":1,"la1":30.6,"la2":29.2853,"lo1":-89.7004,"lo2":-87.6739,"dy":0.0162,"dx":0.0183,"nx":112,"ny":82,"refTime":"2026-05-09T12:00:00:Z","depth":0,"parameterNumber":3,"parameterNumberName":"V-component_of_WINDS"},"data":[0.0,0.0,0.0,0.0,0.0,0.0,0.0,0.0,0.0,0.0,0.0,0.0,0.0,0.0,0.0,0.0,0.0,0.0,0.0,0.0,0.0,0.0,0.0,0.0,0.0,0.0,0.0,0.0,0.0,0.0,0.0,0.0,0.0,0.0,0.0,0.0,0.0,0.0,0.0,0.0,0.0,0.0,0.0,0.0,0.0,0.0,0.0,0.0,0.0,0.0,0.0,0.0,0.0,0.0,0.0,0.0,0.0,0.0,0.0,0.0,0.0,0.0,0.0,0.0,0.0,0.0,0.0,0.0,0.0,0.0,0.0,0.0,0.0,0.0,0.0,0.0,0.0,0.0,0.0,0.0,0.0,0.0,0.0,0.0,0.0,0.0,0.0,0.0,0.0,0.0,1.9959,2.0002,1.7732,1.5267,1.2926,0.9049,0.6207,0.4969,0.0,0.0,0.0,0.0,0.0,0.0,0.0,0.0,0.0,0.0,0.0,0.0,0.0,0.0,0.0,0.0,0.0,0.0,0.0,0.0,0.0,0.0,0.0,0.0,0.0,0.0,0.0,0.0,0.0,0.0,0.0,0.0,0.0,0.0,0.0,0.0,0.0,0.0,0.0,0.0,0.0,0.0,0.0,0.0,0.0,0.0,0.0,0.0,0.0,0.0,0.0,0.0,0.0,0.0,0.0,0.0,0.0,0.0,0.0,0.0,0.0,0.0,0.0,0.0,0.0,0.0,0.0,0.0,0.0,0.0,0.0,0.0,0.0,0.0,0.0,0.0,0.0,0.0,0.0,0.0,0.0,0.0,0.0,0.0,0.0,0.0,0.0,0.0,0.0,0.0,0.0,0.0,0.0,0.0,0.0,0.0,0.0,0.0,0.0,0.0,0.0,0.0,0.0,0.0,2.0108,2.0011,1.8312,1.6265,1.3963,0.9271,0.5865,0.4487,0.0,0.0,0.0,0.0,0.0,0.0,0.0,0.0,0.0,0.0,0.0,0.0,0.0,0.0,0.0,0.0,0.0,0.0,0.0,0.0,0.0,0.0,0.0,0.0,0.0,0.0,0.0,0.0,0.0,0.0,0.0,0.0,0.0,0.0,0.0,0.0,0.0,0.0,0.0,0.0,0.0,0.0,0.0,0.0,0.0,0.0,0.0,0.0,0.0,0.0,0.0,0.0,0.0,0.0,0.0,0.0,0.0,0.0,0.0,0.0,0.0,0.0,0.0,0.0,0.0,0.0,0.0,0.0,0.0,0.0,0.0,0.0,0.0,0.0,0.0,0.0,0.0,0.0,0.0,0.0,0.0,0.0,0.0,0.0,0.0,0.0,0.0,0.0,0.0,0.0,0.0,0.0,0.0,0.0,0.0,0.0,0.0,0.0,0.0,0.0,0.0,0.0,0.0,1.9991,2.0049,1.996,1.8523,1.6708,1.461,0.9961,0.646,0.4833,0.4669,0.0,0.0,0.0,0.0,0.0,0.0,0.0,0.0,0.0,0.0,0.0,0.0,0.0,0.0,0.0,0.0,0.0,0.0,0.0,0.0,0.0,0.0,0.0,0.0,0.0,0.0,0.0,0.0,0.0,0.0,0.0,0.0,0.0,0.0,0.0,0.0,0.0,0.0,0.0,0.0,0.0,0.0,0.0,0.0,0.0,0.0,0.0,0.0,0.0,0.0,0.0,0.0,0.0,0.0,0.0,0.0,0.0,0.0,0.0,0.0,0.0,0.0,0.0,0.0,0.0,0.0,0.0,0.0,0.0,0.0,0.0,0.0,0.0,0.0,0.0,0.0,0.0,0.0,0.0,0.0,0.0,0.0,0.0,0.0,0.0,0.0,0.0,0.0,0.0,0.0,0.0,0.0,0.0,0.0,0.0,0.0,0.0,0.0,0.0,0.0,0.0,0.0,1.9988,1.996,1.9811,1.8556,1.6959,1.5063,1.0664,0.7289,0.5597,0.4482,0.0,0.0,0.0,0.0,0.0,0.0,0.0,0.0,0.0,0.0,0.0,0.0,0.0,0.0,0.0,0.0,0.0,0.0,0.0,0.0,0.0,0.0,0.0,0.0,0.0,0.0,0.0,0.0,0.0,0.0,0.0,0.0,0.0,0.0,0.0,0.0,0.0,0.0,0.0,0.0,0.0,0.0,0.0,0.0,0.0,0.0,0.0,0.0,0.0,0.0,0.0,0.0,0.0,0.0,0.0,0.0,0.0,0.0,0.0,0.0,0.0,0.0,0.0,0.0,0.0,0.0,0.0,0.0,0.0,0.0,0.0,0.0,0.0,0.0,0.0,0.0,0.0,0.0,0.0,0.0,0.0,0.0,0.0,0.0,0.0,0.0,0.0,0.0,0.0,0.0,0.0,0.0,0.0,0.0,0.0,0.0,0.0,0.0,0.0,0.0,0.0,0.0,2.0043,1.9887,1.9565,1.8486,1.7082,1.532,1.1158,0.804,0.668,0.5629,0.0,0.0,0.0,0.0,0.0,0.0,0.0,0.0,0.0,0.0,0.0,0.0,0.0,0.0,0.0,0.0,0.0,0.0,0.0,0.0,0.0,0.0,0.0,0.0,0.0,0.0,0.0,0.0,0.0,0.0,0.0,0.0,0.0,0.0,0.0,0.0,0.0,0.0,0.0,0.0,0.0,0.0,0.0,0.0,0.0,0.0,0.0,0.0,0.0,0.0,0.0,0.0,0.0,0.0,0.0,0.0,0.0,0.0,0.0,0.0,0.0,0.0,0.0,0.0,0.0,0.0,0.0,0.0,0.0,0.0,0.0,0.0,0.0,0.0,0.0,0.0,0.0,0.0,0.0,0.0,0.0,0.0,0.0,0.0,0.0,0.0,0.0,0.0,0.0,0.0,0.0,0.0,0.0,0.0,0.0,0.0,0.0,0.0,0.0,0.0,0.0,0.0,1.9893,1.9839,1.9707,1.8855,1.7518,1.5549,1.2043,0.919,0.7375,0.0,0.0,0.0,0.0,0.0,0.0,0.0,0.0,0.0,0.0,0.0,0.0,0.0,0.0,0.0,0.0,0.0,0.0,0.0,0.0,0.0,0.0,0.0,0.0,0.0,0.0,0.0,0.0,0.0,0.0,0.0,0.0,0.0,0.0,0.0,0.0,0.0,0.0,0.0,0.0,0.0,0.0,0.0,0.0,0.0,0.0,0.0,0.0,0.0,0.0,0.0,0.0,0.0,0.0,0.0,0.0,0.0,0.0,0.0,0.0,0.0,0.0,0.0,0.0,0.0,0.0,0.0,0.0,0.0,0.0,0.0,0.0,0.0,0.0,0.0,0.0,0.0,0.0,0.0,0.0,0.0,0.0,0.0,0.0,0.0,0.0,0.0,0.0,0.0,0.0,0.0,0.0,0.0,0.0,0.0,0.0,0.0,0.0,0.0,0.0,0.0,0.0,1.9784,1.979,1.9773,1.9687,1.8836,1.7504,1.5575,1.2802,1.0316,0.8306,0.0,0.0,0.0,0.0,0.0,0.0,0.0,0.0,0.0,0.0,0.0,0.0,0.0,0.0,0.0,0.0,0.0,0.0,0.0,0.0,0.0,0.0,0.0,0.0,0.0,0.0,0.0,0.0,0.0,0.0,0.0,0.0,0.0,0.0,0.0,0.0,0.0,0.0,0.0,0.0,0.0,0.0,0.0,0.0,0.0,0.0,0.0,0.0,0.0,0.0,0.0,0.0,0.0,0.0,0.0,0.0,0.0,0.0,0.0,0.0,0.0,0.0,0.0,0.0,0.0,0.0,0.0,0.0,0.0,0.0,0.0,0.0,0.0,0.0,0.0,0.0,0.0,0.0,0.0,0.0,0.0,0.0,0.0,0.0,0.0,0.0,0.0,0.0,0.0,0.0,0.0,0.0,0.0,0.0,0.0,0.0,0.0,0.0,0.0,0.0,0.0,0.0,1.9773,1.979,1.9693,1.9436,1.8322,1.695,1.5338,1.3358,1.139,0.0,0.0,0.0,0.0,0.0,0.0,0.0,0.0,0.0,0.0,0.0,0.0,0.0,0.0,0.0,0.0,0.0,0.0,0.0,0.0,0.0,0.0,0.0,0.0,0.0,0.0,0.0,0.0,0.0,0.0,0.0,0.0,0.0,0.0,0.0,0.0,0.0,0.0,0.0,0.0,0.0,0.0,0.0,0.0,0.0,0.0,0.0,0.0,0.0,0.0,0.0,0.0,0.0,0.0,0.0,0.0,0.0,0.0,0.0,0.0,0.0,0.0,0.0,0.0,0.0,0.0,0.0,0.0,0.0,0.0,0.0,0.0,0.0,0.0,0.0,0.0,0.0,0.0,0.0,0.0,0.0,0.0,0.0,0.0,0.0,0.0,0.0,0.0,0.0,0.0,0.0,0.0,0.0,0.0,0.0,0.0,0.0,0.0,0.0,0.0,0.0,0.0,0.0,1.9773,1.979,1.9693,1.9436,1.8233,1.684,1.5323,1.2981,1.0963,0.9485,0.0,0.0,0.0,0.0,0.0,0.0,0.0,0.0,0.0,0.0,0.0,0.0,0.0,0.0,0.0,0.0,0.0,0.0,0.0,0.0,0.0,0.0,0.0,0.0,0.0,0.0,0.0,0.0,0.0,0.0,0.0,0.0,0.0,0.0,0.0,0.0,0.0,0.0,0.0,0.0,0.0,0.0,0.0,0.0,0.0,0.0,0.0,0.0,0.0,0.0,0.0,0.0,0.0,0.0,0.0,0.0,0.0,0.0,0.0,0.0,0.0,0.0,0.0,0.0,0.0,0.0,0.0,0.0,0.0,0.0,0.0,0.0,0.0,0.0,0.0,0.0,0.0,0.0,0.0,0.0,0.0,0.0,0.0,0.0,0.0,0.0,0.0,0.0,0.0,0.0,0.0,0.0,0.0,0.0,0.0,0.0,0.0,0.0,0.0,0.0,0.0,0.0,1.9742,1.979,1.9693,1.9436,1.8224,1.6748,1.5027,1.2903,1.0869,0.9044,0.0,0.0,0.0,0.0,0.0,0.0,0.0,0.0,0.0,0.0,0.0,0.0,0.0,0.0,0.0,0.0,0.0,0.0,0.0,0.0,0.0,0.0,0.0,0.0,0.0,0.0,0.0,0.0,0.0,0.0,0.0,0.0,0.0,0.0,0.0,0.0,0.0,0.0,0.0,0.0,0.0,0.0,0.0,0.0,0.0,0.0,0.0,0.0,0.0,0.0,0.0,0.0,0.0,0.0,0.0,0.0,0.0,0.0,0.0,0.0,0.0,0.0,0.0,0.0,0.0,0.0,0.0,0.0,0.0,0.0,0.0,0.0,0.0,0.0,0.0,0.0,0.0,0.0,0.0,0.0,0.0,0.0,0.0,0.0,0.0,0.0,0.0,0.0,0.0,0.0,0.0,0.0,0.0,0.0,0.0,0.0,0.0,0.0,0.0,0.0,0.0,0.0,1.973,1.979,1.9687,1.9391,1.8204,1.6629,1.4615,1.299,1.0987,0.8433,0.0,0.0,0.0,0.0,0.0,0.0,0.0,0.0,0.0,0.0,0.0,0.0,0.0,0.0,0.0,0.0,0.0,0.0,0.0,0.0,0.0,0.0,0.0,0.0,0.0,0.0,0.0,0.0,0.0,0.0,0.0,0.0,0.0,0.0,0.0,0.0,0.0,0.0,0.0,0.0,0.0,0.0,0.0,0.0,0.0,0.0,0.0,0.0,0.0,0.0,0.0,0.0,0.0,0.0,0.0,0.0,0.0,0.0,0.0,0.0,1.1417,1.063,0.0,0.0,0.0,0.0,0.0,0.0,0.0,0.0,0.0,0.0,0.0,0.0,0.0,0.0,0.0,0.0,0.0,0.0,0.0,0.0,0.0,0.0,0.0,0.0,0.0,0.0,0.0,0.0,0.0,0.0,0.0,0.0,0.0,0.0,0.0,0.0,0.0,0.0,0.0,0.0,1.973,1.979,1.9626,1.9136,1.7847,1.6404,1.4848,1.2542,1.0508,0.8931,0.8133,0.0,0.0,0.0,0.0,0.0,0.0,0.0,0.0,0.0,0.0,0.0,0.0,0.0,0.0,0.0,0.0,0.0,0.0,0.0,0.0,0.0,0.0,0.0,0.0,0.0,0.0,0.0,0.0,0.0,0.0,0.0,0.0,0.0,0.0,0.0,0.0,0.0,0.0,0.0,0.0,0.0,0.0,0.0,0.0,0.0,0.0,0.0,0.0,0.0,0.0,0.0,0.0,0.0,0.0,0.0,0.0,0.0,0.0,0.0,1.2093,1.1427,0.0,0.0,0.0,0.0,0.0,0.0,0.0,0.0,0.0,0.0,0.0,0.0,0.0,0.0,0.0,0.0,0.0,0.0,0.0,0.0,0.0,0.0,0.0,0.0,0.0,0.0,0.0,0.0,0.0,0.0,0.0,0.0,0.0,0.0,0.0,0.0,0.0,0.0,0.0,0.0,1.973,1.979,1.9644,1.9244,1.8166,1.6886,1.5401,1.3088,1.1048,0.9486,0.8231,0.0,0.0,0.0,0.0,0.0,0.0,0.0,0.0,0.0,0.0,0.0,0.0,0.0,0.0,0.0,0.0,0.0,0.0,0.0,0.0,0.0,0.0,0.0,0.0,0.0,0.0,0.0,0.0,0.0,0.0,0.0,0.0,0.0,0.0,0.0,0.0,0.0,0.0,0.0,0.0,0.0,0.0,0.0,0.0,0.0,0.0,0.0,0.0,0.0,0.0,0.0,0.0,0.0,1.5085,1.5142,1.5506,1.5666,1.4946,1.3548,1.315,1.2548,1.1774,1.1505,0.0,0.0,0.0,0.0,0.0,0.0,0.0,0.0,0.0,0.0,0.0,0.0,0.0,0.0,0.0,0.0,0.0,0.0,0.0,0.0,0.0,0.0,1.4203,1.4124,1.3765,1.3002,1.141,0.0,0.0,0.0,0.0,0.0,0.0,0.0,0.0,0.0,0.0,0.0,1.9777,1.9807,1.9693,1.9436,1.8619,1.7545,1.6149,1.401,1.1976,1.021,0.8531,0.7115,0.0,0.0,0.0,0.0,0.0,0.0,0.0,0.0,0.0,0.0,0.0,0.0,0.0,0.0,0.0,0.0,0.0,0.0,0.0,0.0,0.0,0.0,0.0,0.0,0.0,0.0,0.0,0.0,0.0,0.0,0.0,0.0,1.1216,1.0885,0.0,0.0,0.0,0.0,0.0,0.0,0.0,0.0,0.0,0.0,0.0,0.0,0.0,1.4996,1.4938,1.5684,1.6755,1.8075,1.718,1.7032,1.7486,1.6676,1.5976,1.5448,1.5374,0.0,1.1792,1.1756,0.0,0.0,0.0,0.0,0.0,0.0,0.0,0.0,0.0,0.0,0.0,0.0,0.0,0.0,0.0,0.0,0.0,0.0,0.0,0.0,0.0,0.0,1.5773,1.5372,1.5227,1.4979,1.4355,1.3448,1.281,1.2906,1.3361,1.4249,0.0,0.0,0.0,0.0,0.0,0.0,1.991,1.9874,1.9693,1.9436,1.8619,1.7776,1.6992,1.4651,1.2675,1.1438,0.926,0.7506,0.6378,0.6106,0.0,0.0,0.0,0.0,0.0,0.0,0.0,0.0,0.0,0.0,0.0,0.0,0.0,0.0,0.0,0.0,0.0,0.0,0.0,0.0,0.0,0.0,0.0,0.0,0.0,0.0,0.0,0.0,0.0,1.2567,1.2159,1.1641,1.1941,1.2239,0.0,0.0,0.0,0.0,0.0,0.0,0.0,0.0,0.0,1.5638,1.5929,1.6252,1.6602,1.7006,1.7506,1.8147,1.886,1.8709,1.7847,1.7701,1.7627,1.7556,1.6721,1.5913,1.5038,1.3305,1.2597,1.2673,0.0,0.0,0.0,0.0,1.4745,1.4497,1.4544,1.4274,1.3903,1.3966,0.0,0.0,0.0,0.0,0.0,0.0,0.0,1.6763,1.6588,1.6533,1.6494,1.6285,1.6231,1.6159,1.5977,1.5623,1.5095,1.4225,1.4435,1.5125,1.6271,1.6676,0.0,0.0,0.0,1.9538,1.9959,1.9885,1.9767,1.9638,1.9004,1.8169,1.7133,1.5354,1.3639,1.2039,1.0276,0.8691,0.7411,0.7067,0.6518,0.0,0.0,0.0,0.0,0.0,0.0,0.0,0.0,0.0,0.0,0.0,0.0,0.0,0.0,0.0,0.0,0.0,0.0,0.0,0.0,0.0,0.0,0.0,0.0,0.0,0.0,0.0,0.0,1.3367,1.3298,1.295,1.3445,1.3806,0.0,0.0,0.0,0.0,0.0,0.0,1.5799,1.6163,1.6714,1.7459,1.7494,1.7586,1.78,1.8172,1.8172,1.7834,2.0094,2.0399,1.8966,1.9122,1.9445,1.9778,1.8678,1.8269,1.8167,1.5492,1.4391,1.4516,1.5822,1.6617,1.6964,1.626,1.5731,1.546,1.5844,1.552,1.4942,1.5023,1.5037,1.5018,1.4842,0.0,0.0,0.0,0.0,1.7055,1.7055,1.7055,1.7055,1.7055,1.7113,1.7158,1.7158,1.7372,1.7134,1.5684,1.5744,1.6203,1.6816,1.7232,0.0,1.8743,1.9265,1.9684,2.0026,1.9906,1.979,1.979,1.9324,1.8592,1.7591,1.6282,1.477,1.3054,1.1544,1.0122,0.8742,0.8353,0.7658,0.6586,0.0,0.0,0.0,0.0,0.0,0.0,0.0,0.0,0.0,0.0,0.0,0.0,0.0,0.0,0.0,0.0,0.0,0.0,0.0,0.0,0.0,0.0,0.0,0.0,0.0,0.0,0.0,0.0,0.0,1.4974,1.5288,0.0,0.0,0.0,0.0,1.5932,1.6844,1.7383,1.7383,1.8055,1.8815,1.9615,1.9651,1.9052,1.7811,1.9203,1.9203,1.7834,2.0809,2.2161,2.2053,2.1237,2.133,2.2136,2.2051,2.1221,1.9782,1.8212,1.7567,1.7579,1.767,1.7715,1.7681,1.7195,1.701,1.6982,1.7023,1.6619,1.6136,1.6196,1.5878,1.5544,1.5982,1.6362,0.0,0.0,1.7502,1.7755,1.7755,1.7755,1.7755,1.7755,1.7932,1.8135,1.8135,1.8333,1.8241,1.7266,1.7246,1.7534,1.7948,0.0,1.8784,1.9291,1.9713,2.0055,2.0269,2.0001,1.979,1.979,1.9324,1.8966,1.8904,1.7501,1.6133,1.5031,1.3217,1.1617,1.034,0.9718,0.907,0.8372,0.9254,0.0,0.0,0.0,0.0,0.0,0.0,0.0,0.0,0.0,0.0,0.0,0.0,0.0,0.0,0.0,0.0,0.0,0.0,0.0,0.0,0.0,0.0,0.0,0.0,0.0,0.0,0.0,0.0,1.6002,1.6484,0.0,1.6826,1.6915,1.7153,1.7638,1.8173,1.8466,1.8466,1.8846,1.9125,1.9282,1.9793,1.999,1.9857,2.0379,2.065,2.072,2.2623,2.3524,2.3484,2.2354,2.2219,2.2822,2.1784,2.1126,2.0712,1.988,1.9406,1.9208,1.9208,1.9423,1.963,1.8821,1.8509,1.8492,1.8325,1.8029,1.7615,1.6865,1.675,1.6946,1.7104,1.7524,1.7937,1.8094,1.8222,1.828,1.8093,1.8187,1.827,1.8093,1.8259,1.846,1.846,1.8678,1.8753,1.8428,1.8276,1.8305,1.8607,1.8873,1.9173,1.9582,1.9788,1.9927,2.0097,1.9849,1.9669,1.9669,1.9266,1.8751,1.8092,1.7376,1.644,1.5247,1.433,1.3372,1.231,1.1598,1.0785,0.9809,1.034,1.0411,0.0,0.0,0.0,0.0,0.0,0.0,0.0,0.0,0.0,0.0,0.0,0.0,0.0,0.0,0.0,0.0,0.0,0.0,0.0,0.0,0.0,0.0,0.0,0.0,0.0,1.7134,1.7528,1.7295,1.7766,1.8113,1.8113,1.8113,1.8312,1.8798,1.9008,1.9092,1.9092,1.9238,1.951,1.9926,2.0462,2.1161,2.2064,2.2082,2.2371,2.2943,2.3792,2.419,2.4161,2.3098,2.2712,2.2848,2.1859,2.1545,2.1678,2.1374,2.1174,2.1024,2.0537,2.0609,2.0886,1.986,1.9648,1.9849,1.9677,1.952,1.9292,1.8478,1.8495,1.8808,1.8808,1.8912,1.9003,1.9003,1.8816,1.8556,1.8381,1.8469,1.8556,1.8381,1.8537,1.8734,1.8734,1.8931,1.9092,1.9092,1.8956,1.8895,1.9067,1.9232,1.9437,1.9695,1.9774,1.983,1.9927,1.9732,1.9569,1.9469,1.9198,1.8698,1.7932,1.763,1.7008,1.5907,1.5359,1.4715,1.3899,1.3202,1.244,1.163,1.17,1.1648,1.1479,0.0,0.0,0.0,0.0,0.0,0.0,0.0,0.0,0.0,0.0,0.0,0.0,0.0,0.0,0.0,0.0,0.0,0.0,0.0,0.0,0.0,0.0,0.0,1.7576,1.7727,1.8137,1.8919,1.9182,1.9297,1.9297,1.9297,1.9297,1.9297,1.9297,1.9297,1.9297,1.9297,2.0031,2.1666,2.1776,2.2565,2.4135,2.4171,2.419,2.419,2.419,2.419,2.418,2.3511,2.2883,2.2349,2.2599,2.2721,2.2721,2.2733,2.2923,2.307,2.1629,2.1227,2.133,2.0265,2.0357,2.1028,2.1028,2.1028,2.1028,2.1021,2.1003,2.1013,2.1013,2.0459,1.9824,1.9824,1.9237,1.8614,1.8604,1.8614,1.8614,1.8604,1.8816,1.9001,1.9001,1.9166,1.9297,1.9297,1.9297,1.9297,1.9297,1.9471,1.9608,1.9608,1.972,0.0,1.9784,1.9676,1.9495,1.9231,1.9073,1.8896,1.8614,1.8351,1.7896,1.718,1.6332,1.5627,1.5085,1.45,1.4092,1.3863,1.3351,1.3194,1.3442,0.0,0.0,0.0,0.0,0.0,0.0,0.0,0.0,0.0,0.0,0.0,0.0,0.0,0.0,0.0,0.0,0.0,0.0,0.0,0.0,0.0,1.8249,1.8765,1.8607,1.8764,1.8971,1.9193,1.9259,1.9297,1.9297,1.9297,1.9297,1.9297,1.9297,1.9297,1.9297,1.9297,1.9517,1.9976,2.117,2.2198,2.3024,2.3804,2.419,2.419,2.419,2.419,2.418,2.366,2.3341,2.3165,2.3081,2.3069,2.3081,2.3317,2.3414,2.3367,2.2809,2.264,2.26,2.1766,2.1615,2.1792,2.1792,2.1792,2.1714,2.116,2.1133,2.129,2.129,2.0825,2.0316,2.0316,1.9734,1.9064,1.8922,1.899,1.9074,1.8922,1.9059,1.9222,1.9222,1.9259,1.9297,1.9297,1.9297,1.9297,1.9297,1.9471,1.9608,1.9608,1.9636,1.9643,1.9643,1.9495,1.9357,1.9279,1.9109,1.8896,1.8614,1.8351,1.8028,1.7637,1.7384,1.7065,1.6682,1.6238,1.5686,1.5052,1.489,1.466,0.0,0.0,0.0,0.0,0.0,0.0,0.0,0.0,0.0,0.0,0.0,0.0,0.0,0.0,0.0,0.0,0.0,0.0,0.0,0.0,0.0,0.0,1.8739,1.9237,1.9253,1.9361,1.9435,1.9435,1.935,1.9297,1.9297,1.9297,1.9297,1.9297,1.9297,1.9297,1.9297,1.9297,1.9627,2.0325,2.128,2.2271,2.3263,2.3878,2.419,2.419,2.419,2.419,2.418,2.3714,2.3511,2.35,2.3288,2.3288,2.3426,2.361,2.3753,2.3785,0.0,0.0,0.0,0.0,2.2767,2.2533,2.2857,2.2975,2.2903,2.2476,2.2448,2.2563,2.2563,2.2091,2.1428,2.0823,2.0262,1.9698,1.9249,1.9222,1.9266,1.915,1.9204,1.9297,1.9297,1.9297,1.9297,1.9297,1.9297,0.0,1.9297,1.9405,1.9478,1.9478,1.9478,1.9478,1.9478,1.9365,1.9266,1.919,1.9077,1.8861,1.846,1.829,0.0,0.0,0.0,1.7444,1.7101,1.697,0.0,0.0,0.0,0.0,0.0,0.0,0.0,0.0,1.5934,1.6198,0.0,0.0,0.0,0.0,0.0,0.0,0.0,0.0,0.0,0.0,0.0,0.0,0.0,0.0,0.0,0.0,1.9088,1.9634,1.9745,1.9733,1.9701,1.9608,1.9552,1.9457,1.9335,1.95,1.9511,1.9315,1.9389,1.9444,1.9444,1.9375,0.0,0.0,0.0,2.2572,2.409,2.4201,2.4218,2.419,2.419,2.419,2.418,2.3774,2.3577,2.3566,2.3392,2.3488,2.3764,2.3764,2.3927,2.419,2.419,2.4135,2.408,2.4171,2.3749,2.3244,2.3951,0.0,0.0,2.419,2.419,2.419,2.419,2.3639,2.2712,2.1382,2.0749,2.0309,1.9517,1.9297,1.9297,1.9297,1.9297,1.9297,1.9297,1.9297,1.9297,1.9297,1.9297,1.9297,1.9297,1.9297,1.9297,1.9297,1.9297,1.9297,1.9297,1.9297,1.9219,1.9052,1.9026,0.0,1.833,1.829,1.8177,1.7922,1.7613,1.7316,1.7027,1.7226,1.7369,1.7369,1.7597,1.7864,1.8155,1.8155,1.8365,1.8747,1.7803,1.7653,0.0,0.0,0.0,0.0,0.0,0.0,0.0,0.0,0.0,0.0,0.0,0.0,0.0,0.0,0.0,2.0118,2.0938,2.1287,2.0796,2.0648,2.0334,1.9682,2.0276,2.0426,1.9611,2.0715,2.0867,1.9404,1.9895,2.0272,2.0272,1.98,2.0291,2.192,2.2121,2.2607,2.3477,2.4119,2.4357,2.419,2.419,0.0,2.4208,2.4103,2.4064,2.4064,2.4016,2.4036,2.4103,2.4103,2.4151,2.419,2.419,2.3804,2.3299,2.3951,2.4098,2.3988,2.4153,2.419,2.419,2.419,2.419,2.419,2.419,2.3639,0.0,2.1886,2.1088,2.0309,1.9517,1.9297,1.9297,1.9297,1.9297,1.9297,1.9297,1.9297,1.9297,1.9297,1.9297,1.9297,1.9297,1.9297,1.9297,1.9297,1.9297,1.9297,1.9297,1.9297,1.9282,1.9253,1.9235,1.9123,1.8861,1.8852,1.8734,1.846,1.8383,1.8316,1.8255,1.8288,1.8328,1.8328,1.8378,1.8444,1.851,1.851,1.8989,1.9867,1.8821,1.8395,0.0,0.0,0.0,0.0,0.0,0.0,0.0,0.0,0.0,0.0,0.0,1.8012,1.8854,0.0,2.0658,2.1298,2.1679,2.1676,2.0998,2.1197,2.1145,2.0426,2.0715,2.0947,2.0952,2.1673,2.1735,2.073,2.112,2.1369,2.1255,2.1057,2.1497,2.2706,2.2857,2.3265,2.4035,2.4448,2.4591,2.4503,2.4503,2.4444,2.4348,2.4348,2.4294,2.419,2.419,2.419,2.419,2.419,2.3951,2.3639,2.4043,2.3951,2.3657,2.4043,2.419,2.419,2.419,2.419,2.419,2.419,2.419,2.419,2.419,2.3639,2.2767,2.1657,2.0941,2.0309,1.9517,1.9297,1.9297,1.9297,1.9297,1.9297,1.9297,1.9297,1.9297,1.9297,1.9297,1.9297,1.9297,1.9297,1.9297,1.9297,1.9297,1.9297,1.9297,1.9297,1.9297,1.9297,1.9297,1.923,1.9009,1.8887,1.8743,1.8604,1.8595,1.8595,1.8595,1.9127,1.9209,1.8816,1.9714,1.9993,1.9542,1.9993,2.0481,2.0997,2.0522,2.0271,0.0,0.0,0.0,0.0,0.0,0.0,0.0,0.0,1.7185,1.7791,1.8682,1.9553,2.0146,2.1233,2.2066,2.2189,2.209,2.1845,2.1305,2.1654,2.1842,2.1556,2.1448,2.1618,2.225,2.2596,2.2568,2.2032,2.2311,2.2426,2.2268,2.227,2.276,2.3751,2.3597,2.3937,2.4835,2.4818,2.4804,2.4804,2.4804,2.4716,2.4569,2.452,2.4419,2.4247,2.4044,2.4061,2.419,2.4025,2.3584,2.3061,2.3712,2.3859,2.3768,2.408,2.4098,2.3988,2.4153,2.419,2.419,2.419,2.4098,2.3969,2.3969,2.34,2.2501,2.1198,2.0676,2.0346,1.9693,1.9528,1.9591,1.9756,1.9664,1.9528,1.9528,1.9407,1.9297,1.9297,1.9297,1.9297,1.9297,1.9297,1.9297,1.9297,1.9297,1.9297,1.9297,1.9297,1.9297,1.9297,1.9297,1.9227,1.9077,1.8851,1.8744,1.8744,1.8744,1.8744,1.8744,1.9579,1.9784,1.9296,2.0784,2.129,2.0749,2.1464,2.1886,2.2041,2.219,2.2105,1.637,1.5706,1.5333,1.6075,1.7085,1.8074,0.0,0.0,1.9272,1.9346,1.9881,2.0376,2.046,2.1778,2.2868,2.2886,2.2877,2.2832,2.2767,2.2224,2.2142,2.2954,2.3295,2.317,2.2388,2.3646,2.3816,2.2126,2.2734,2.3174,2.3151,2.2619,2.3076,2.479,2.3966,2.3971,2.498,2.4862,2.4804,2.4804,2.4804,2.479,2.476,2.4575,2.4486,2.4415,2.351,2.3547,2.4135,2.3428,2.3079,2.3006,2.3098,2.2703,2.2235,2.3657,2.3749,2.3244,2.3951,2.419,2.419,2.419,2.3731,2.3134,2.3134,2.2575,2.1739,2.0804,2.0529,2.0493,2.0401,2.0364,2.0566,2.1335,2.0923,2.0364,2.0364,1.9803,1.9297,1.9297,1.9297,1.9297,1.9297,1.9297,1.9297,1.9297,1.9297,1.9297,1.9297,1.9297,1.9297,1.9297,1.9297,1.9289,1.9266,1.9243,1.9227,1.9227,1.9227,1.9227,1.9227,1.9342,1.9698,2.0323,2.0531,2.0978,2.1647,2.1757,2.218,2.2868,2.3064,2.2733,1.6463,1.6653,1.697,1.7315,1.8249,1.917,1.9481,1.9638,1.9695,1.9609,2.0177,2.0783,2.1186,2.2199,2.3153,2.3621,2.3694,2.3529,2.3061,2.3107,2.3189,2.3131,2.3774,2.4094,2.3771,2.4382,2.4422,2.3529,2.3903,2.4117,2.4008,2.384,2.4095,2.4858,2.4473,2.4454,2.4877,2.4821,2.4804,2.4804,2.4804,2.4738,2.4615,2.4545,2.4445,2.4312,2.3888,2.3896,2.4135,2.3318,2.3281,2.3657,2.3171,2.2563,2.2072,2.3236,2.3467,2.3301,2.4097,2.4375,2.4367,2.4237,2.3657,2.3006,2.3006,2.207,2.0978,2.0603,2.0162,1.9913,2.0382,2.0503,2.0713,2.1592,2.1125,2.0503,2.0503,2.0236,1.9858,1.9389,1.9675,1.9858,1.9389,1.9297,1.9297,1.9297,1.9297,1.9297,1.9297,1.9297,1.9297,1.9297,1.9297,1.9297,1.9297,1.9297,1.9297,1.9297,1.9297,1.9297,1.9297,1.9748,1.995,1.9803,2.0758,2.1198,2.1051,2.2024,2.2719,2.3189,2.3854,2.3766,1.6446,1.7009,1.7721,1.7907,1.8911,1.986,1.9852,1.9858,1.9824,1.9726,2.0471,2.128,2.1767,2.2665,2.3529,2.4116,2.4006,2.3749,2.3373,2.3639,2.3749,2.3373,2.3961,2.4469,2.4615,2.4685,2.4654,2.4512,2.4631,2.4654,2.4512,2.4639,2.4746,2.4797,2.4693,2.4685,2.4797,2.4746,2.4746,2.4804,2.4804,2.4723,2.4575,2.4528,2.4393,2.419,2.3969,2.3988,2.4135,2.3318,2.3336,2.3804,2.3226,2.2562,2.2065,2.3014,2.321,2.3172,2.422,2.4575,2.4561,2.4339,2.3575,2.2727,2.2728,2.1526,2.0178,2.0244,1.9787,1.9536,2.0592,2.0859,2.1125,2.2216,2.1804,2.1135,2.0914,2.0859,2.0556,1.9499,1.995,2.0236,1.9444,1.9297,1.9297,1.9297,1.9297,1.9297,1.9297,1.9297,1.9297,1.9297,1.9297,1.9297,1.9297,1.9297,1.9297,1.9297,1.9297,1.9297,1.9297,1.9858,2.0005,1.9638,2.0813,2.1253,2.0859,2.2104,2.2795,2.2949,2.3773,2.3904,1.6323,1.6238,1.6514,1.7161,1.8662,1.9991,1.9993,1.9984,1.9984,1.9998,2.1035,2.1971,2.1982,2.3177,2.4171,2.419,2.3547,2.3299,2.4061,2.3511,2.3318,2.4061,2.4181,2.4209,2.4218,2.4401,2.4512,2.4503,2.4512,2.4512,2.4503,2.4512,2.4591,2.4797,2.4409,2.441,2.4797,2.4599,2.4599,2.4804,2.4804,2.4797,2.4782,2.4583,2.4393,2.4153,2.3373,2.3492,2.4135,2.3318,2.3006,2.3024,2.3006,2.2501,2.1936,2.3086,2.2997,2.2569,2.4224,2.479,2.476,2.4569,2.3367,2.2032,2.2035,2.078,1.9372,1.9571,1.9475,1.9683,2.1335,2.1757,2.2161,2.3749,2.3511,2.2712,2.1923,2.1757,2.1262,1.9627,1.995,2.0236,1.9444,1.9297,1.9297,1.9297,1.9297,1.9297,1.9297,1.9297,1.9297,1.9297,1.9297,1.9297,1.9297,1.9297,1.9297,1.9297,1.9297,1.9297,1.9297,1.9315,1.9693,2.0456,2.0511,2.0933,2.1757,2.1932,2.2038,2.2054,2.2395,2.2568,1.7462,1.7253,1.7359,1.7574,1.8482,1.9345,1.9338,1.9779,2.0161,2.0026,2.0705,2.1461,2.192,2.2771,2.3584,2.4116,2.3787,2.3646,2.4134,2.3787,2.3646,2.4134,2.419,2.419,2.419,2.4257,2.4303,2.4303,2.4303,2.4303,2.4303,2.4303,2.4321,2.4401,2.4266,2.4257,2.4401,2.4321,2.4321,2.441,2.441,2.441,2.4401,2.4321,2.4257,2.4171,2.3914,2.3951,2.4135,2.3318,2.3299,2.3749,2.3208,2.2894,2.2854,2.3806,2.3712,2.3261,2.4518,2.4924,2.4917,2.4749,2.3866,2.2783,2.2325,2.1304,2.02,1.9724,1.9548,1.973,2.0698,2.0933,2.1216,2.2345,2.1969,2.1428,2.1739,2.1794,2.1464,2.0317,2.0776,2.0923,1.9536,1.9297,1.9297,1.9297,1.9297,1.9297,1.9297,1.9297,1.9297,1.9297,1.9297,1.9297,1.9297,1.9297,1.9297,1.9297,1.9297,1.9297,1.9297,1.9297,1.9426,1.9693,1.9693,1.991,2.0344,2.0923,2.1323,2.1574,2.2787,2.3116,1.8073,1.7683,1.7629,1.814,1.8506,1.8862,1.9257,1.9745,2.0069,1.9953,2.0468,2.1149,2.1864,2.255,2.3263,2.4061,2.4016,2.3947,2.417,2.4016,2.3966,2.417,2.419,2.419,2.419,2.419,2.419,2.419,2.419,2.419,2.419,2.419,2.419,2.419,2.419,2.419,2.419,2.419,2.419,2.419,2.419,2.419,2.419,2.419,2.419,2.419,2.419,2.419,2.4153,2.3639,2.3731,2.4153,2.3639,2.3474,2.3625,2.4275,2.4222,2.3967,2.4681,2.4955,2.4917,2.4431,2.3667,2.2843,2.2347,2.1297,2.0229,2.0071,1.9764,1.9649,2.0323,2.0503,2.0713,2.1592,2.1584,2.1373,2.1345,2.1804,2.1804,2.0346,2.0758,2.0904,1.9536,1.9297,1.9297,1.9297,1.9297,1.9297,1.9297,1.9297,1.9297,1.9297,1.9297,1.9297,1.9297,1.9297,1.9297,1.9297,1.9297,1.9297,1.9297,1.9297,1.9297,1.9297,1.9297,1.9394,1.9608,2.0172,2.0577,2.0866,2.2013,2.246,1.824,1.757,1.7437,1.876,1.8712,1.8612,1.9693,1.9863,1.979,1.979,2.0325,2.1027,0.0,0.0,2.3244,2.4006,2.4162,2.418,2.4208,2.418,2.418,0.0,0.0,0.0,0.0,0.0,2.419,2.419,2.419,2.419,2.419,2.419,2.419,2.419,2.419,2.419,2.419,2.419,2.419,2.417,2.419,2.419,2.419,2.419,2.419,2.419,2.419,2.419,2.419,2.419,2.419,2.419,2.419,2.419,2.4218,2.44,2.4486,2.4512,2.47,2.4864,2.481,2.3727,2.2947,2.2362,2.2156,2.0877,1.9681,2.06,2.0174,1.9617,2.0364,2.0566,2.0786,2.1592,2.2373,2.2511,2.097,2.185,2.2235,1.9885,1.9987,2.0199,1.9426,1.9297,1.9297,1.9297,1.9297,1.9297,1.9297,1.9297,1.9297,1.9297,1.9297,1.9297,1.9297,1.9297,1.9297,1.9297,1.9297,1.9297,1.9297,1.9297,1.9297,1.9297,1.9297,1.9394,1.9603,1.9732,1.9874,2.0022,2.0244,2.0769,1.9887,1.9251,1.8733,1.9076,1.8914,1.8745,1.9045,1.9478,1.979,1.979,2.0325,2.0867,2.1064,2.2134,2.3061,2.3263,2.3603,0.0,2.4161,2.3986,0.0,2.417,0.0,2.419,2.419,2.419,2.419,2.419,2.419,2.419,2.419,2.419,2.419,2.419,2.419,2.419,2.419,2.419,2.4074,2.3827,2.4084,2.419,2.419,2.419,2.419,2.419,2.419,2.419,2.419,2.419,2.419,2.419,2.419,2.419,2.4199,2.4266,2.4275,2.4284,2.4348,2.4575,2.4804,2.4515,2.4212,2.3835,2.3273,2.2694,2.2121,2.1797,2.1521,2.134,2.1442,2.1482,2.1519,2.1757,2.1959,2.2152,2.2327,2.2226,2.1923,2.128,2.0325,1.9528,1.9334,1.9297,1.9297,1.9297,1.9297,1.9297,1.9297,1.9297,1.9297,1.9297,1.9297,1.9297,1.9297,1.9297,1.9297,1.9297,1.9297,1.9297,1.9297,1.9297,1.9297,1.9297,1.9297,1.9448,1.975,1.9773,1.9941,2.0233,2.0892,2.1293,2.0437,1.9814,1.9232,1.9599,1.9235,1.8892,1.9259,1.9573,1.9773,1.9719,2.0011,2.0343,2.0626,2.166,2.2593,2.2933,0.0,0.0,2.417,2.4044,2.3996,0.0,2.419,0.0,2.419,2.419,2.419,2.419,2.419,2.419,2.419,2.419,2.4123,2.3986,2.3986,2.3907,2.3774,2.3764,2.3671,2.3471,2.3671,2.3764,2.3764,2.3764,2.3764,2.3774,2.3917,2.3986,2.3996,2.4141,2.419,2.419,2.419,2.419,2.419,2.419,2.419,2.419,2.419,2.4339,2.4489,2.4116,2.3987,2.3888,2.3412,2.2959,2.2582,2.2473,2.2185,2.1892,2.182,2.1794,2.1702,2.1327,2.1785,2.2244,2.196,2.2134,2.2116,2.1363,2.0178,1.9297,1.9297,1.9297,1.9297,1.9297,1.9297,1.9297,1.9297,1.9297,1.9297,1.9297,1.9297,1.9297,1.9297,1.9297,1.9297,1.9297,1.9297,1.9297,1.9297,1.9297,1.9297,1.9297,1.9297,1.9451,1.979,1.979,1.9976,2.0308,2.075,2.1154,2.0342,1.9813,1.9392,2.0113,1.9619,1.9145,1.9859,1.9898,1.9749,1.9637,1.9609,1.975,2.0257,2.1051,2.1877,2.2712,0.0,2.4013,2.4123,2.4123,2.4123,2.4123,2.417,2.419,2.419,2.419,2.419,2.419,2.419,2.419,2.419,2.4161,2.3986,2.3631,2.3621,2.3471,2.3129,2.3177,2.3177,2.3129,2.3177,2.32,2.32,2.32,2.32,2.323,2.3511,2.3621,2.366,2.3955,2.4074,2.4074,2.4074,2.4094,2.4141,2.4084,2.4094,2.4141,2.4084,2.4074,2.3974,2.3354,2.3287,2.3378,2.3207,2.2666,2.2253,2.2951,2.2666,2.2088,2.1996,2.1959,2.1739,2.0878,2.1777,2.2437,2.0988,2.1722,2.2217,2.0639,1.9785,1.9297,1.9297,1.9297,1.9297,1.9297,1.9297,1.9297,1.9297,1.9297,1.9297,1.9297,1.9297,1.9297,1.9297,1.9297,1.9297,1.9297,1.9297,1.9297,1.9297,1.9297,1.9297,1.9297,1.9297,1.9455,1.978,1.9778,1.9971,2.0269,2.0285,2.0669,2.0192,2.008,1.9994,2.0237,2.0042,1.9845,2.0041,1.9945,0.0,0.0,1.9594,1.9571,1.9511,2.0189,2.1006,2.1867,2.2445,2.3032,2.3694,2.3785,2.3785,0.0,2.4026,2.419,2.419,2.419,2.419,2.419,2.419,2.419,2.419,2.3927,2.3621,2.33,2.3288,2.3129,2.2797,2.3057,2.3057,2.2797,2.3069,2.32,2.32,2.32,2.32,2.32,2.3247,2.3288,2.33,2.3357,2.338,2.338,2.338,2.3544,2.3746,2.3488,2.3555,2.3753,2.3459,2.338,2.3441,2.387,2.4016,2.4044,2.3997,2.3896,2.3804,2.3951,2.3896,2.3621,2.2951,2.2786,2.2593,2.1776,2.1794,2.1923,2.1647,2.1235,2.0658,1.9693,1.9407,1.9297,1.9297,1.9297,1.9297,1.9297,1.9297,1.9297,1.9297,1.9297,1.9297,1.9297,1.9297,1.9297,1.9297,1.9297,1.9297,1.9297,1.9297,1.9297,1.9297,1.9297,1.9297,1.9297,1.9297,1.9409,1.9636,1.9744,1.9885,2.0064,2.021,2.0282,1.9763,1.9859,1.9955,2.0011,1.9974,1.9898,1.9945,0.0,0.0,0.0,1.9593,1.9534,1.9335,1.9968,2.0786,2.1666,2.2337,2.3045,2.3856,2.3966,2.3966,2.3966,2.4094,2.419,2.419,2.419,2.419,2.419,2.4026,2.4016,2.419,2.3714,2.3288,2.296,2.2807,2.266,2.2487,2.266,2.266,2.2487,2.266,2.2721,2.2721,2.2721,2.2721,2.2734,2.2878,2.2947,2.296,2.3129,2.32,2.32,2.32,2.3311,2.3414,2.3247,2.3311,2.3414,2.3265,2.32,2.3247,2.3577,2.3795,2.3976,2.4151,2.419,2.419,2.419,2.3896,2.3584,2.3621,2.2997,2.2281,2.1886,2.1445,2.1253,2.1702,2.1482,2.1051,2.0674,2.0225,1.9932,1.9932,1.9583,1.9297,1.9297,1.9297,1.9297,1.9297,1.9297,1.9297,1.9297,1.9297,1.9297,1.9297,1.9297,1.9297,1.9297,1.9297,1.9297,1.9297,1.9297,1.9297,1.9297,1.9297,1.9394,1.9608,1.9656,1.9768,1.9901,1.9982,1.9982,1.9316,1.9467,1.9676,1.9712,1.9767,1.9802,1.9817,1.9813,0.0,1.9638,1.9597,1.9534,1.9335,1.9822,2.0511,0.0,2.2145,2.2932,2.3718,2.3984,2.4094,2.4094,2.4161,0.0,2.419,2.419,2.419,2.419,2.3896,2.3746,2.3876,2.338,2.2947,2.2621,2.2398,2.2296,2.2296,2.2296,2.2296,2.2296,2.2296,2.2296,2.2296,2.2296,2.2296,2.231,2.2527,2.2612,2.2621,2.289,2.3002,2.3002,2.3002,2.3051,2.3081,2.3026,2.3051,2.3081,2.3026,2.3002,2.3014,2.3069,2.3369,2.3753,2.4006,2.4151,2.418,2.4103,2.3683,2.3336,2.3651,2.2839,2.1844,2.1452,2.0859,2.0564,2.1093,2.1374,2.1519,2.1519,2.0978,2.0503,2.0503,1.984,1.9297,1.9297,1.9297,1.9297,1.9297,1.9297,1.9297,1.9297,1.9297,1.9297,1.9297,1.9297,1.9297,1.9297,1.9297,1.9297,1.9297,1.9297,1.9297,1.9297,1.9297,1.9372,1.9534,1.9569,1.9643,1.9762,1.9797,1.9773,1.8992,1.906,1.9276,1.9415,1.9632,1.983,1.9882,0.0,1.9765,1.9629,1.9601,1.9534,1.9335,1.9352,1.9675,2.0493,2.1089,2.1735,2.253,2.3291,2.3753,2.3753,0.0,0.0,2.419,2.419,2.419,2.419,2.3896,2.3448,2.2873,2.2784,2.2625,2.2349,2.2307,2.2296,2.2296,2.2296,2.2296,2.2296,2.2296,2.2296,2.2296,2.2296,2.2296,2.2296,2.2338,2.2335,2.2335,2.2377,2.2391,2.2391,2.2391,2.2527,2.2725,2.248,2.2541,2.2708,2.248,2.2391,2.2429,2.2678,2.3177,2.3703,2.3753,2.3966,2.4141,2.3827,2.3921,2.3808,2.2528,2.2314,2.2,2.0299,2.0014,1.9975,1.9379,1.9968,2.0621,2.0621,2.0548,2.0503,2.0503,1.984,1.9297,1.9297,1.9297,1.9297,1.9297,1.9297,1.9297,1.9297,1.9297,1.9297,1.9297,1.9297,1.9297,1.9297,1.9297,1.9297,1.9297,1.9297,1.9297,1.9297,1.9297,1.9305,1.9327,1.9513,1.9621,1.9616,1.9744,1.9732,1.8506,1.8753,1.9089,1.9149,1.9324,1.9506,1.9524,1.9414,1.9306,1.9243,1.9237,1.9214,1.9125,1.923,1.9738,2.107,2.1469,2.2045,2.3339,2.3795,2.3996,2.3996,2.4113,2.419,0.0,2.419,2.4132,2.3917,2.3588,2.3189,2.2733,2.2708,2.259,2.231,2.2296,2.2296,2.2296,2.2296,2.2296,2.2296,2.2017,2.1884,2.1884,2.1884,2.1749,2.1554,2.2063,2.2135,2.1899,2.218,2.2296,2.2296,2.2296,2.2377,2.2453,2.2335,2.236,2.2436,2.2335,2.2296,2.2324,2.2426,2.2742,2.3177,2.3577,2.3795,2.3917,2.3986,2.361,2.3146,2.3052,2.2611,2.1782,2.0098,2.0111,2.0374,1.9831,2.0391,2.1171,2.1879,2.1612,2.1437,2.1924,2.0896,2.0016,2.0016,1.9601,1.9297,1.9297,1.9297,1.9297,1.9297,1.9297,1.9297,1.9297,1.9297,1.9297,1.9297,1.9297,1.9297,1.9297,1.9297,1.9297,1.9297,1.9297,1.9297,1.9297,1.9372,1.9427,1.9409,1.9469,1.974,1.814,1.8469,1.8852,1.878,1.9033,1.9282,1.9212,1.9092,1.901,1.901,1.894,1.8887,1.8887,1.899,1.9514,2.0767,2.1369,2.2063,2.3187,2.3753,2.4046,2.4046,0.0,2.4046,2.4046,2.3947,2.3855,2.3703,2.3311,2.296,2.2721,2.2621,2.2487,2.231,2.2296,2.2296,2.2296,2.2296,2.2296,2.2296,2.1823,2.1597,2.1613,2.1476,2.126,2.1023,2.1661,2.1811,2.1628,2.1974,2.2163,2.2296,2.2296,2.2296,2.2296,2.2296,2.2296,2.2296,2.2296,2.2296,2.2296,2.2296,2.2426,2.2691,2.3242,2.3471,2.3577,2.3714,2.3123,2.2608,2.3356,2.272,2.1551,2.034,2.0269,2.0413,2.0236,2.0616,2.1305,2.2438,2.1987,2.1602,2.2162,2.108,2.0236,2.0448,1.9822,1.9389,1.962,1.9444,1.9297,1.9297,1.9517,1.9565,1.9315,1.9297,1.9297,1.9297,1.9297,1.9407,1.9656,1.9656,1.9774,2.0031,2.0031,1.9903,1.9656,1.9656,1.9528,1.9297,1.9297,1.9858,1.7997,1.8198,1.8537,1.827,1.8762,1.9243,1.9052,1.8992,1.901,1.901,1.8789,1.8595,1.8595,1.8622,1.8697,1.8976,2.0373,2.1385,2.1337,2.27,2.3703,0.0,2.3703,2.3703,2.3703,2.3403,2.3346,2.3682,2.3081,2.2708,2.2708,2.245,2.231,2.2296,2.2296,2.2296,2.2296,2.2296,2.2296,2.2296,2.1823,2.1597,2.1582,2.1181,2.0991,2.0991,2.1023,2.1228,2.1597,2.1613,2.1884,2.2296,2.2296,2.2296,2.2296,2.2296,2.2296,2.2296,2.2296,2.2296,2.2296,2.2296,2.231,2.2346,2.2621,2.2947,2.3129,2.281,2.2527,2.244,2.3051,2.2363,2.139,2.1,2.0293,1.9795,2.0137,2.0219,2.0526,2.1604,2.1106,2.0529,2.0521,1.9858,1.9583,2.0382,1.9822,1.9583,2.0401,1.9785,1.9297,1.9297,2.0016,2.0162,1.937,1.9297,1.9297,1.9297,1.9297,1.9656,2.0456,2.0493,2.0896,2.1757,2.1776,2.1345,2.0493,2.0493,2.0071,1.9297,1.9297,2.0197,1.785,1.8068,1.831,1.8218,1.851,1.8789,1.8752,1.8576,1.845,1.845,1.8391,1.833,1.833,1.8479,1.8977,2.0113,2.0731,2.1419,2.2456,2.3037,0.0,2.3357,2.3357,2.3357,2.3357,2.3247,2.3236,2.3357,2.296,2.2708,2.2708,2.2453,2.2296,2.2296,2.2296,2.2296,2.2296,2.2296,2.2135,2.1809,2.14,2.1181,2.1166,2.0732,2.0516,2.0533,2.0862,2.0894,2.0748,2.1071,2.1291,2.1447,2.172,2.1809,2.1809,2.1809,2.1809,2.1779,2.1508,2.14,2.14,2.14,2.16,2.1838,2.1919,2.2374,2.2835,2.2733,2.2634,2.2612,2.281,2.2178,2.1529,2.1699,2.1068,2.0562,2.0939,2.0553,2.0626,2.231,2.1951,2.173,2.285,2.1904,2.128,2.2089,2.0556,1.9811,2.1198,2.0647,2.0354,2.0931,2.1243,2.1033,2.0181,2.0674,2.0747,2.0162,2.0126,1.9987,1.9693,2.0217,2.0639,2.0914,2.15,2.1363,2.0503,2.0503,2.0089,1.9315,1.9858,2.0401,1.742,1.7619,1.7798,1.7698,1.8041,1.8378,1.8278,1.8232,1.8198,1.8198,1.8114,1.8126,1.8417,1.8478,1.8933,2.0269,2.0616,2.112,2.2276,0.0,0.0,2.3141,2.2936,2.2888,2.3177,2.2989,2.303,2.3423,2.3145,2.31,2.3357,2.2963,2.2733,2.2733,2.2448,2.2296,2.2296,2.212,2.1988,2.1869,2.1291,2.0991,2.0991,2.0715,2.0382,2.0089,2.0533,2.0566,0.0,2.0616,2.0845,2.1039,2.143,2.1597,2.1597,2.1597,2.1597,2.1536,2.1134,2.0991,2.0991,2.0991,2.1275,2.1643,2.1809,2.2181,2.255,2.255,2.255,2.2599,2.2822,2.229,2.1826,2.2314,2.1713,2.122,2.186,2.126,2.107,2.2685,2.2354,2.2014,2.2685,2.2253,2.1978,2.2464,2.1235,2.0729,2.2079,2.151,2.1198,2.1739,2.2069,2.2024,2.1483,2.1657,2.1427,2.0566,2.0503,2.0272,1.9767,2.0556,2.1135,2.1447,2.2263,2.2281,2.1447,2.1135,2.0409,1.9334,2.0464,2.0996,0.0,1.6912,1.7077,1.6911,1.7446,1.7995,1.785,1.8022,0.0,1.8253,1.8005,1.8031,1.8758,1.8572,1.864,1.9684,2.0135,2.0541,2.1047,2.1775,0.0,0.0,2.2401,2.2327,2.3015,2.2607,2.2739,2.3791,2.3528,2.3644,2.4372,2.3714,2.3325,2.3325,2.2665,2.2296,2.2296,2.1869,2.1838,2.2237,2.14,2.0991,2.0991,2.0942,2.0481,1.9764,2.0106,2.0263,2.0263,2.0263,2.0516,2.0943,2.1353,2.1521,2.1552,2.1552,2.1552,2.1491,2.1086,2.0926,2.091,2.0943,2.1228,2.1643,2.2106,2.2265,2.2296,2.2296,2.2296,2.2429,2.3014,2.2576,2.2173,2.2874,2.2209,2.1715,2.2768,2.2163,2.1743,2.2804,2.2354,2.1574,2.0878,2.1345,2.1831,2.1941,2.1867,2.2106,2.2969,2.2373,2.1904,2.1959,2.2648,2.3079,2.3079,2.2354,2.1519,2.0658,2.0521,2.0466,2.0419,2.1308,2.2161,2.2896,2.3694,2.3749,2.3006,2.2189,2.1005,1.9517,2.106,2.1794,1.6039,0.0,1.6625,1.739,1.7452,1.7623,0.0,1.8613,1.8351,1.867,1.8246,1.8031,1.8758,1.8577,1.8759,2.0116,2.0165,2.0112,2.0395,2.0599,0.0,2.0875,2.1369,2.1788,2.196,2.2158,2.2643,2.3456,2.2912,2.2885,2.3613,2.297,2.2564,2.2564,2.2381,2.2296,2.2296,2.2194,2.2017,2.1764,2.1244,2.0991,2.0975,2.0311,2.0052,2.0158,1.9929,1.9839,1.9839,1.9839,1.9909,2.005,2.0449,2.083,2.1134,2.1134,2.1134,2.1086,2.0616,2.0261,2.0067,2.0348,2.0764,2.1213,2.1628,2.2017,2.2296,2.2296,2.2296,2.2374,2.2725,2.2411,2.2271,2.3288,2.26,2.1934,2.2813,2.2319,2.1953,2.2832,2.2354,2.2125,2.3144,2.2492,2.2216,2.3446,2.2584,2.2308,2.3731,2.3217,2.296,2.3566,2.3804,2.3914,2.3914,2.318,2.2373,2.1555,2.0859,2.0217,1.9601,2.1005,2.1886,2.2088,2.2868,2.3189,2.3006,2.2189,2.1592,2.1225,2.161,2.1794,1.5799,1.5911,1.6168,1.6736,1.6811,1.6957,1.7784,1.7909,1.7897,0.0,0.0,1.8121,1.9203,1.8933,1.9012,2.0494,2.0479,2.0412,0.0,0.0,2.0222,2.0647,2.0691,2.0927,2.1536,2.1823,2.2362,2.3327,2.3038,2.3122,2.3864,2.3207,2.2801,2.2801,2.2482,2.2296,2.2296,2.2092,2.1974,2.1913,2.1307,2.0991,2.0975,2.0514,2.0191,2.0017,1.9982,1.9874,1.9708,1.9708,1.9708,1.9729,2.0141,2.0466,2.0682,2.0682,2.0682,2.0632,2.0176,2.0,2.0052,2.0483,2.0797,2.1039,2.126,2.1628,2.2017,2.2237,2.2296,2.236,2.2621,2.2509,2.2511,2.3302,2.3064,2.2782,2.3237,2.2804,2.2483,2.2914,2.2648,2.2501,2.3006,2.2987,2.3079,2.3566,2.3217,2.3226,2.408,2.3823,2.3731,2.4153,2.419,2.419,2.419,2.3465,2.2666,2.1849,2.0978,2.0309,1.9877,2.1115,2.2143,2.2896,2.3327,2.3373,2.3006,2.2923,2.2528,2.1812,2.2565,2.2712,1.5799,1.5799,1.5829,1.5904,1.6105,1.6332,1.6566,0.0,0.0,0.0,0.0,0.0,1.9736,1.9485,0.0,2.0862,2.0918,0.0,2.1717,2.0774,2.0312,2.1105,2.0314,2.0148,2.129,2.1521,2.2062,2.3115,2.3216,2.353,2.4194,2.3583,2.3224,2.3224,2.2632,2.2296,2.2296,2.1913,2.1913,2.2296,2.1432,2.0991,2.1007,2.0862,2.0413,1.9711,2.0054,2.0017,1.9708,1.9708,1.9708,1.9729,2.0087,2.0246,2.0297,2.0297,2.0348,2.0348,2.0015,2.0122,2.0466,2.0862,2.1039,2.1086,2.1086,2.1322,2.1703,2.218,2.2296,2.2349,2.2573,2.2656,2.2772,2.3057,2.338,2.361,2.361,2.3301,2.304,2.304,2.2977,2.2749,2.2191,2.3162,2.3823,2.3263,2.3768,2.418,2.4141,2.4113,2.4103,2.4046,2.4094,2.4113,2.4113,2.3427,2.2721,2.2033,2.1043,2.0566,2.0694,2.1528,2.2675,2.4171,2.419,2.3859,2.3171,2.3878,2.3502,2.2198,2.3547,2.3804,1.5799,1.5799,1.5919,1.6443,1.6333,1.6467,1.7776,0.0,0.0,0.0,0.0,0.0,0.0,2.0129,2.0524,0.0,2.1354,2.1461,2.2195,2.1288,2.0629,2.0778,2.0454,2.0265,2.0467,2.1165,2.1786,2.2264,2.24,2.2622,2.2956,2.266,2.2465,2.2465,2.2347,2.2296,2.2296,2.2223,2.2223,2.2296,2.1432,2.0991,2.0975,2.0225,1.9836,1.9693,1.9764,1.9764,1.9708,1.9708,1.9708,1.9708,1.9764,2.0,2.0297,2.0297,2.055,2.0878,2.0813,2.0829,2.091,2.0975,2.1228,2.1506,2.1506,2.1552,2.1703,2.218,2.2296,2.231,2.2349,2.2541,2.2721,2.2772,2.3033,2.3288,2.3288,2.3216,2.3168,2.3168,2.2855,2.2741,2.3304,2.3285,2.3373,2.3933,2.4116,2.4094,2.3816,2.3785,2.3671,2.338,2.3599,2.3785,2.3785,2.3304,2.2951,2.2822,2.1355,2.0823,2.1574,2.2373,2.3254,2.4171,2.419,2.4135,2.4025,2.4135,2.4061,2.3841,2.408,2.3981,1.5799,1.5799,1.5873,1.6144,1.6321,1.6513,1.6909,1.7408,0.0,0.0,0.0,0.0,0.0,0.0,2.0785,2.1664,2.1422,2.1379,2.2092,2.1171,2.0436,2.0482,2.0154,2.0024,2.028,2.0894,2.1326,2.1488,2.1765,2.1973,2.2105,2.1991,2.2032,2.2296,2.2296,2.2296,2.2296,2.2296,2.2296,2.2296,2.1432,2.0991,2.0959,2.0102,1.9708,1.9708,1.9708,1.9708,1.9708,1.9708,1.9708,1.9708,1.9708,1.9803,2.0,2.0212,2.0449,2.0682,2.1166,2.1322,2.1322,2.1322,2.1445,2.1552,2.1337,2.143,2.1627,2.1853,2.2106,2.2296,2.2296,2.2402,2.2473,2.2473,2.2717,2.2935,2.2935,2.274,2.2546,2.2546,2.2382,2.24,2.2965,2.3226,2.3567,2.4115,2.4054,2.3858,2.3714,2.3544,2.3369,2.323,2.3346,2.3493,2.3682,2.35,2.3084,2.2401,2.2034,2.2034,2.2428,2.3217,2.3823,2.419,2.419,2.3988,2.3547,2.3988,2.3988,2.3566,2.4006,2.4113,1.5799,1.5799,1.5799,1.5799,0.0,1.6413,1.6069,1.697,1.7777,0.0,0.0,0.0,0.0,2.073,0.0,2.2167,2.1891,2.1794,2.2491,2.1565,2.0807,2.087,2.0204,1.9904,2.028,2.0616,2.0797,2.0698,2.1181,2.1414,2.1306,2.1399,2.1613,2.1974,2.2005,2.2005,2.2005,2.2005,2.2092,2.2296,2.1432,2.0991,2.0959,2.0102,1.9708,1.9708,1.9708,1.9708,1.9708,1.9708,1.9708,1.9708,1.9708,1.9764,1.9922,2.0686,2.0858,2.0868,2.1918,2.2083,2.1891,2.1998,2.1897,2.172,2.14,2.1507,2.1764,2.1764,2.2017,2.2296,2.2296,2.2296,2.2296,2.2296,2.245,2.2612,2.2612,2.2312,2.2059,2.2059,2.2171,2.2355,2.2615,2.3306,2.3886,2.4064,2.3858,2.3631,2.3488,2.3236,2.3057,2.2989,2.3051,2.3247,2.3671,2.3639,2.3239,2.2419,2.2758,2.3006,2.3006,2.3768,2.419,2.419,2.4006,2.3621,2.3006,2.3372,2.3325,2.2895,2.3517,2.3823,1.5799,1.5799,1.5799,1.5799,1.5829,1.6009,1.6517,1.6727,0.0,1.7946,0.0,0.0,0.0,2.1423,2.2423,2.3184,2.3268,2.3487,2.4228,2.3267,2.2521,2.2537,2.1178,2.0248,2.0297,2.0331,2.0193,1.9818,2.0565,2.0846,2.0433,2.0813,2.1071,2.1086,2.1086,2.1086,2.1086,2.1086,2.1508,2.2296,2.1432,2.0991,2.0959,2.0102,1.9708,1.9708,1.9708,1.9708,1.9708,1.9708,1.9708,1.9708,1.9708,1.9927,2.0469,2.2237,2.2509,2.2181,2.3743,2.3557,2.2694,2.3126,2.2808,2.2237,2.2225,2.224,2.2237,2.2237,2.2265,2.2296,2.2296,2.2296,2.2296,2.2296,2.2307,2.2321,2.2321,2.2301,2.2281,2.2281,2.2724,2.313,2.3153,2.3709,2.4074,2.3785,2.3714,2.3488,2.286,2.2759,2.2652,2.2388,2.259,2.3009,2.3649,2.3414,2.3457,2.3996,2.3382,2.3006,2.3006,2.3768,2.419,2.419,2.3474,2.3061,2.3006,2.2053,2.1929,2.2538,2.2671,2.2747,1.5799,1.6069,1.6263,1.5889,1.6069,0.0,0.0,1.7354,1.8062,1.8436,1.928,0.0,0.0,0.0,2.2057,2.2623,2.2733,2.2818,2.3088,2.2738,2.2328,2.2054,2.1484,2.1007,2.0748,2.0747,2.055,2.0106,2.0381,2.0483,2.0314,2.0466,2.0715,2.0991,2.0991,2.0991,2.0991,2.0991,2.1166,2.1493,2.0862,2.0566,2.055,1.9962,1.9708,1.9708,1.9708,1.9839,2.0072,2.0072,2.026,2.0514,2.0514,2.0884,2.1529,2.2491,2.3014,2.3326,2.4186,2.4196,2.3852,2.4039,2.3898,2.3663,2.3663,2.3342,2.3088,2.3528,2.3342,2.2885,2.2429,2.2296,2.2296,2.2296,2.2649,2.2987,2.2987,2.2987,2.2987,2.2987,2.2805,2.2682,2.286,2.3105,2.3282,2.338,2.3649,2.3731,2.3484,2.3666,2.3587,2.3035,2.2811,2.281,2.3057,2.3153,2.3311,2.3555,2.3485,2.352,2.374,2.3566,2.3371,2.3199,2.2869,2.2363,2.17,2.226,2.2417,2.2195,2.272,2.2993,1.5799,1.6099,1.6368,1.6144,0.0,0.0,1.7234,1.7878,1.8508,1.8927,1.9697,2.0533,2.1259,0.0,2.1748,2.2223,2.2296,2.2296,2.2296,2.2296,2.218,2.1869,2.1688,2.1491,2.1213,2.0943,2.0649,2.0331,2.0193,2.0106,2.0106,2.0106,2.0261,2.0582,2.0582,2.0582,2.0582,2.0582,2.0582,2.0582,2.0261,2.0193,2.0297,1.9892,1.9708,1.9708,1.9821,2.0052,2.0314,2.0466,2.0699,2.1023,2.123,2.1697,2.2378,2.3112,2.3818,2.4513,2.5022,2.5049,2.4846,2.4846,2.4694,2.4491,2.4491,2.4152,2.3864,2.4355,2.4135,2.363,2.3122,2.2987,2.2987,2.2987,2.3376,2.3763,2.3763,2.3763,2.3678,2.3458,2.3073,2.2867,2.3054,2.3154,2.3322,2.3711,2.4042,2.4202,2.4107,2.432,2.4305,2.3814,2.3454,2.3233,2.3098,2.3193,2.3252,2.3195,2.3323,2.3533,2.3876,2.3349,2.2978,2.2786,2.2482,2.1982,2.1259,2.1971,2.2148,2.1867,2.2435,2.2768,1.5799,1.5814,1.5963,1.6562,0.0,0.0,1.8388,1.8177,1.8072,1.9423,2.0002,2.0449,2.091,2.1322,2.1733,2.2209,2.2296,2.2296,2.2296,2.2296,2.2296,2.2296,2.1899,2.1597,2.1597,2.0814,2.0314,2.0314,1.9929,1.9708,1.9708,1.9708,1.9708,1.9708,1.9708,1.9708,1.9708,1.9708,1.9708,1.9708,1.9708,1.9909,2.028,1.9874,1.9708,1.9744,2.0124,2.0299,2.0348,2.0829,2.1023,2.1087,2.1758,2.2313,2.2895,2.4296,2.5163,2.571,2.6437,2.6218,2.5609,2.5609,2.5118,2.4508,2.4508,2.4508,2.4508,2.4508,2.4508,2.4508,2.4508,2.4508,2.4508,2.4491,2.4508,2.4508,2.4508,2.4508,2.4288,2.3562,2.3679,2.3915,2.3915,2.413,2.4449,2.4927,2.5008,2.4878,2.4538,2.4492,2.4492,2.4492,2.4491,2.432,2.3909,2.3594,2.3333,2.3194,2.2885,2.2848,2.3177,2.3189,2.3189,2.3171,2.2393,2.1999,2.1988,2.0923,2.0792,2.1517,2.1579,2.1859,1.6095,1.6503,0.0,1.6782,0.0,0.0,0.0,1.8013,0.0,0.0,1.9484,2.0,2.0433,2.0616,2.0927,2.1705,2.1809,2.1928,2.2237,2.2296,2.2296,2.2296,2.218,2.1957,2.1643,2.1367,2.1102,2.0813,2.0381,2.0124,2.0124,1.9856,1.9708,1.9708,1.9708,1.9708,1.9708,1.9708,1.9708,1.9708,1.9708,1.9764,1.9874,1.9747,1.9856,2.0124,2.0246,2.065,2.1243,2.172,2.2215,2.2697,2.2898,2.3693,2.4791,2.5195,2.5798,2.6404,2.6623,2.6556,2.637,2.637,2.6218,2.6048,2.6048,2.5676,2.5372,2.5912,2.5659,2.5389,2.5912,2.6048,2.5794,2.4745,2.4897,2.527,2.527,2.527,2.522,2.5,2.4601,2.4317,2.4317,2.4389,2.4487,2.4639,2.477,2.4879,2.4989,2.4541,2.4215,2.4215,2.3589,2.3119,2.3011,2.2769,2.2615,2.2561,2.248,2.2643,2.3177,2.2652,2.2265,2.2087,2.1788,2.1579,2.1443,2.1638,2.1857,2.2061,2.2089,2.217,1.6528,1.6797,0.0,1.7143,1.8063,1.8899,1.8917,0.0,0.0,0.0,1.9423,1.9836,2.0229,2.0297,2.0517,2.126,2.1353,2.1461,2.1736,2.1781,2.1781,2.1781,2.1781,2.166,2.1384,2.1197,2.1055,2.0991,2.0566,2.0382,2.0566,2.0176,1.9929,1.9929,1.9782,1.9708,1.9708,1.9708,1.9708,1.9708,1.9708,1.9708,1.9708,1.9708,1.9927,2.0331,2.0667,2.1212,2.1915,2.2498,2.2868,2.3122,2.3637,2.4434,2.5313,2.5511,2.6065,2.6691,2.6691,2.6691,2.6691,2.6691,2.6691,2.6691,2.6691,2.6387,2.6133,2.6573,2.6387,2.6133,2.6573,2.6691,2.6471,2.5591,2.571,2.608,2.6241,2.6162,2.5996,2.5866,2.5346,2.4948,2.4948,2.4948,2.4969,2.5078,2.5023,2.5019,2.5176,2.4814,2.4556,2.4556,2.3764,2.3177,2.3047,2.2686,2.2408,2.2299,2.2296,2.247,2.2837,2.2389,2.2034,2.1867,2.1846,2.1757,2.1634,2.209,2.2296,2.2296,2.2296,2.2296,1.7097,1.6974,0.0,1.7684,1.8439,0.0,1.9961,1.9899,1.9674,1.9581,0.0,1.9728,2.01,2.02,2.0399,2.0862,2.0943,2.0943,2.0991,2.0991,2.0991,2.0991,2.0991,2.0975,2.0943,2.0583,2.0516,2.091,2.0583,2.055,2.0975,2.055,2.0297,2.0297,1.9909,1.9708,1.9708,1.9708,1.9708,1.9708,1.9708,1.9708,1.9708,1.9708,1.9929,2.0416,2.1243,2.1838,2.2288,2.2962,2.2977,2.2669,2.384,2.4479,2.4806,2.5346,2.6016,2.6641,2.6691,2.6691,2.6691,2.6691,2.6691,2.6691,2.6691,2.6691,2.6691,2.6691,2.6691,2.6691,2.6691,2.6691,2.6691,2.6691,2.6691,2.6791,2.7162,2.6971,2.6604,2.6299,2.5947,2.5694,2.5628,2.5645,2.5682,2.586,2.5484,2.5125,2.5067,2.5051,2.5035,2.4971,2.4406,2.3887,2.3504,2.2915,2.2428,2.22,2.2194,2.2209,2.2209,2.2268,2.2296,2.2296,2.2296,2.2296,2.2296,2.2296,2.2296,2.2296,2.2296,2.2296,1.7572,1.8243,0.0,0.0,1.8992,1.9647,2.0952,2.0321,1.9317,1.8793,1.8805,1.8946,1.9034,1.9474,1.998,2.0382,2.0449,2.0583,2.0943,2.0991,2.0991,2.0991,2.0991,2.0862,2.0483,2.0682,2.0747,2.0466,2.0715,2.0894,2.0991,2.055,2.0297,2.0297,1.9909,1.9708,1.9708,1.9708,1.9708,1.9708,1.9708,1.9708,1.9708,1.9708,2.0122,2.0878,2.1384,2.1658,2.1764,2.1913,2.2063,2.2231,2.2508,2.3318,2.4382,2.4942,2.556,2.6209,2.6573,2.6691,2.6691,2.6691,2.6691,2.6691,2.6691,2.6691,2.6691,2.6691,2.6691,2.6691,2.6691,2.6691,2.6691,2.6691,2.6691,2.6725,2.6808,2.6758,2.6674,2.6604,2.6521,2.6354,2.5976,2.5924,2.5689,2.5067,2.4883,2.4603,2.4012,2.3927,2.3766,2.33,2.2929,2.248,2.1871,2.1532,2.1343,2.1292,2.1477,2.1583,2.1583,2.2049,2.2296,2.2296,2.2296,2.2296,2.2296,2.2296,2.2296,2.2296,2.2296,2.2296,1.8191,0.0,0.0,1.9862,0.0,2.0489,2.1411,2.0618,1.9452,1.8578,1.8568,1.8702,1.8702,1.8986,1.9389,1.9937,1.9743,1.9737,2.0299,2.0379,2.0379,2.0379,2.0379,2.0277,2.0035,2.0243,2.0347,2.0297,2.0533,2.0748,2.0991,2.055,2.0297,2.0297,1.9909,1.9708,1.9708,1.9708,1.9708,1.9708,1.9708,1.9708,1.9708,1.9909,2.0227,2.0682,2.1118,2.1306,2.1339,2.1695,2.1794,2.1774,2.2399,2.3112,2.3885,2.4416,2.5033,2.5652,2.5908,2.5982,2.6016,2.628,2.6192,2.607,2.6556,2.6556,2.6401,2.6641,2.6691,2.6691,2.6691,2.6691,2.6691,2.6691,2.6691,2.6691,2.6691,2.6691,2.6758,2.6955,2.664,2.6297,2.6033,2.5577,2.5105,2.4744,2.44,2.4027,2.3638,2.3595,2.3475,2.3167,2.2637,2.2174,2.1808,2.0919,2.0787,2.1746,2.1423,2.1213,2.1213,2.1507,2.1871,2.2296,2.2296,2.2296,2.2296,2.2296,2.2296,2.2296,2.2296,2.2296,1.8635,0.0,1.9548,2.1076,2.1258,0.0,2.1523,2.0709,1.9638,1.8749,1.8553,1.8538,1.8538,1.8627,1.8927,1.9588,1.9226,1.9061,1.9633,1.9708,1.9708,1.9708,1.9708,1.9708,1.9708,1.9708,1.9839,2.0176,2.0263,2.0466,2.0862,2.0516,2.0297,2.0297,1.9909,1.9708,1.9708,1.9708,1.9708,1.9708,1.9603,1.9603,1.9708,1.9949,2.016,2.0331,2.0699,2.0878,2.0926,2.145,2.1363,2.0983,2.1938,2.2599,2.3005,2.3437,2.4205,2.5067,2.5035,2.5109,2.5259,2.5582,2.5468,2.5319,2.6054,2.6087,2.5943,2.6333,2.6436,2.6436,2.6436,2.6436,2.647,2.6505,2.6487,2.6487,2.6674,2.6641,2.6674,2.7002,2.6334,2.5726,2.5726,2.491,2.4323,2.4497,2.3985,2.3595,2.3595,2.3406,2.3363,2.3573,2.2712,2.212,2.2188,2.0951,2.0867,2.2524,2.1751,2.108,2.078,2.078,2.1166,2.1991,2.2049,2.2049,2.2005,2.2092,2.2166,2.218,2.2268,2.2296,1.8408,0.0,2.0638,0.0,2.1546,2.078,0.0,0.0,1.9435,0.0,1.8507,1.7833,1.7833,1.8311,1.8927,1.9588,1.9633,1.9603,1.9693,1.9708,1.9708,1.9708,1.9708,1.9708,1.9708,1.9708,1.9711,1.9782,2.0089,2.0331,2.0399,2.0331,2.0297,2.0297,1.9909,1.9708,1.9708,1.9708,1.9708,1.969,1.9225,1.9244,1.969,1.9266,1.9528,2.0297,2.0365,2.0399,2.0365,2.0065,1.9647,1.9197,1.8893,1.9783,2.1234,2.1184,2.2586,2.4496,2.4367,2.4717,2.5128,2.4606,2.4776,2.5112,2.467,2.4893,2.5316,2.5376,2.5411,2.5411,2.5411,2.5411,2.5468,2.5762,2.5617,2.5635,2.6505,2.6384,2.6104,2.6157,2.5319,2.4612,2.4612,2.4116,2.3724,2.3745,2.3659,2.3595,2.3595,2.2651,2.2386,2.3486,2.2207,2.1404,2.1739,2.1874,2.2074,2.2339,2.2214,2.1439,1.9932,1.9871,2.0172,2.0796,2.1055,2.1055,2.0828,2.1291,2.1583,2.1703,2.2106,2.2296,1.8819,1.9903,2.091,0.0,2.1787,2.147,2.1303,2.0751,2.0049,1.9184,1.8597,1.8252,1.8252,1.8508,1.8927,1.9588,1.9375,1.9167,1.9236,1.9244,1.9244,1.9244,1.8987,1.893,1.9225,1.8987,1.8798,1.8798,1.9251,1.951,1.951,1.9791,1.9965,1.9965,1.98,1.9566,1.9244,1.9244,1.9114,1.8798,1.8554,1.8574,1.8798,1.8554,1.8845,1.951,1.951,1.935,1.9059,1.8835,1.8641,1.8438,1.8204,1.9015,2.0323,2.0267,2.137,2.2885,2.2804,2.2981,2.3236,2.3241,2.3235,2.3301,2.3595,2.3694,2.3745,2.404,2.4376,2.4642,2.4642,2.4906,2.5278,2.5633,2.5449,2.5278,2.5521,2.5559,2.5449,2.5163,2.4732,2.4307,2.3991,2.3767,2.3595,2.3595,2.3595,2.3069,2.1649,2.0988,2.0841,2.1411,2.2095,2.228,2.1749,2.2531,2.3026,2.3026,2.3026,2.2682,2.1919,2.0486,2.0044,2.0816,2.0797,2.0796,2.0829,2.1055,2.1322,2.1597,2.1809,2.2046,1.8844,1.9728,2.049,2.1295,2.1767,2.1877,0.0,0.0,2.0711,1.925,1.8957,1.8907,1.8785,1.8616,1.8678,1.9203,1.8871,1.852,1.8493,1.8608,1.8688,1.8688,1.8341,1.8263,1.865,1.8341,1.8106,1.8106,1.8477,1.8688,1.8688,1.9207,1.9497,1.9497,1.9497,1.9299,1.8893,1.8746,1.8496,1.8106,1.7967,1.7967,1.8106,1.7967,1.8125,1.8496,1.8631,1.8477,1.8086,1.7947,1.7907,1.7887,1.7747,1.8506,1.9683,1.952,2.0493,2.1852,2.1615,2.1544,2.1625,2.214,2.2039,2.1787,2.2283,2.2351,2.2372,2.2783,2.3291,2.3718,2.3598,2.402,2.4525,2.4638,2.463,2.4576,2.4623,2.4827,2.4851,2.4287,2.4199,2.4074,2.3659,2.3595,2.3595,2.3595,2.3047,2.1955,2.0042,1.9798,1.9798,1.9798,2.171,2.2756,2.2225,2.3047,2.3595,2.3595,2.3595,2.3535,2.337,2.1505,2.0621,2.0917,2.0732,2.0634,2.0665,2.0878,2.115,2.1445,2.1673,2.1974,1.7944,1.8479,1.9281,2.0837,2.1292,2.1342,0.0,0.0,2.1133,1.9908,1.9648,1.9489,1.8981,1.8378,1.7993,1.8161,1.8144,1.7968,1.745,1.7824,1.8145,1.8145,1.8125,1.8125,1.8145,1.8125,1.8106,1.8106,1.8145,1.8145,1.8145,1.865,1.8949,1.8949,1.8949,1.893,1.8893,1.84,1.8145,1.8086,1.7585,1.7605,1.8086,1.7565,1.7374,1.7415,1.7927,1.8145,1.8066,1.7544,1.7353,1.7291,1.6774,1.7626,1.9086,1.8495,2.0004,2.2244,2.1417,2.1126,2.1199,2.1615,2.172,2.1482,2.0332,2.0817,2.1767,2.1791,2.2132,2.2392,2.1955,2.2179,2.2438,2.2025,2.2386,2.3128,2.4184,2.443,2.4287,2.3745,2.3638,2.3638,2.3595,2.3595,2.3595,2.3595,2.153,1.994,1.9824,1.9798,1.9798,1.9798,2.0658,2.1856,2.3363,2.3551,2.3595,2.3595,2.3595,2.3325,2.2763,2.2613,2.1984,2.0733,2.0696,2.0389,1.9764,2.0614,2.1007,2.1039,2.1886,2.2282,1.6936,1.7316,0.0,1.8798,1.9838,2.0585,2.0294,2.0816,2.106,1.9936,1.9424,1.902,1.8502,1.8191,1.7939,1.7634,1.7296,1.7001,1.6821,1.6946,1.7209,1.7545,1.7271,1.7209,1.7544,1.7271,1.7076,1.7076,1.7394,1.7585,1.7585,1.8106,1.8535,1.8893,1.8893,1.8727,1.84,1.7504,1.7076,1.7076,1.6879,1.69,1.7076,1.6879,1.6795,1.6795,1.6993,1.7076,1.7055,1.6879,1.6795,1.6774,1.6573,1.7321,1.8495,1.8286,1.927,2.0695,2.0358,2.027,2.0295,2.0421,2.0496,2.0395,1.994,2.0105,2.0496,2.0496,2.0595,2.0695,2.0521,2.1207,2.1842,2.1428,2.15,2.1927,2.2921,2.3223,2.326,2.3054,2.292,2.2987,2.3508,2.3595,2.3047,2.1411,2.037,1.9798,1.9798,1.9798,1.9798,1.9798,2.0067,2.0733,2.1903,2.2521,2.2815,2.2815,2.2942,2.3098,2.3281,2.2487,2.2018,2.1979,2.156,2.0797,1.9708,2.0015,2.0464,2.1023,2.1323,2.1766,1.64,1.6511,0.0,0.0,1.879,1.9595,1.9693,2.0439,2.0831,1.99,1.9228,1.8626,1.7956,1.7491,1.7012,1.6336,1.6221,1.6115,1.5763,1.6157,1.6627,1.6995,1.671,1.6637,1.6993,1.671,1.65,1.65,1.6837,1.7034,1.7034,1.7544,1.8086,1.8612,1.8458,1.8204,1.7827,1.6951,1.65,1.65,1.65,1.65,1.65,1.65,1.65,1.65,1.65,1.65,1.65,1.65,1.65,1.65,1.65,1.7102,1.8041,1.8279,1.8982,1.9798,1.9798,1.9798,1.9798,1.9798,1.9798,1.9798,1.9798,1.9798,1.9798,1.9798,1.9798,1.9798,1.9798,2.0421,2.0988,2.0733,2.0658,2.093,2.195,2.2383,2.2558,2.2392,2.2612,2.2965,2.3508,2.2891,2.1744,2.0042,1.9798,1.9798,1.9798,1.9798,1.9798,1.9798,1.9798,2.0131,2.0944,2.1585,2.2035,2.2161,2.2276,2.2552,2.2958,2.2151,2.1916,2.2359,2.1931,2.1258,2.0382,2.0291,2.0617,2.1326,2.1199,2.1554,0.0,0.0,0.0,0.0,0.0,0.0,1.9581,2.0283,2.0486,1.9828,1.9181,1.8425,1.7459,1.6302,1.5196,1.4205,1.4928,1.5261,1.4249,1.5471,1.6454,1.65,1.65,1.65,1.65,1.65,1.65,1.65,1.65,1.65,1.65,1.7013,1.7544,1.8066,1.7565,1.7312,1.7312,1.6774,1.65,1.65,1.65,1.65,1.65,1.65,1.65,1.65,1.65,1.65,1.65,1.65,1.65,1.65,1.65,1.6951,1.7714,1.8442,1.9171,1.9798,1.9798,1.9798,1.9798,1.9798,1.9798,1.9798,1.9798,1.9798,1.9798,1.9798,1.9798,1.9798,1.9798,1.9773,1.9747,1.9798,1.9798,2.0131,2.1363,2.2007,2.2184,2.1781,2.2674,2.3486,2.3486,2.1435,1.9798,1.9798,1.9798,1.9798,1.9798,1.9798,1.9798,1.9798,1.9798,2.0055,2.0734,2.0968,2.1259,2.1663,2.1673,2.1673,2.1697,2.1673,2.1704,2.1736,2.1743,2.1734,2.1754,2.1464,2.1547,2.1997,2.1616,2.1735,1.6034,0.0,0.0,0.0,0.0,0.0,1.8437,1.9394,2.0054,1.9755,1.924,1.8506,1.7368,1.6322,1.5042,1.3171,1.3402,1.3886,1.4062,1.477,1.5584,1.6407,1.65,1.65,1.65,1.65,1.65,1.65,1.65,1.65,1.65,1.7013,1.7374,1.7524,1.7394,1.7312,1.7312,1.6774,1.65,1.65,1.65,1.65,1.65,1.65,1.65,1.65,1.65,1.65,1.65,1.65,1.65,1.65,1.65,1.7114,1.8091,1.8543,1.9171,1.9798,1.9798,1.9798,1.9798,1.9798,1.9798,1.9798,1.9798,1.9798,1.9798,1.9798,1.9798,1.9798,1.9798,1.9018,1.8474,1.9553,1.9798,1.9901,2.0257,2.0434,2.0744,2.1544,2.1256,2.0841,2.0841,2.0283,1.9798,1.9798,1.9798,1.9798,1.9798,1.9798,1.9798,1.9798,1.9798,1.9875,2.0055,2.0572,2.0944,2.1053,2.1053,2.1245,2.1673,2.1269,2.1465,2.2427,2.2413,2.2651,2.3071,2.2074,2.1735,2.1997,2.2036,2.2135,1.6099,1.6027,1.6058,1.5996,0.0,0.0,1.7882,1.8641,1.9256,1.9622,1.9382,1.8832,1.7927,1.7087,1.5913,1.4037,1.397,1.4061,1.3838,1.4444,1.5296,1.6361,1.6689,1.6752,1.6522,1.6689,1.6731,1.6522,1.65,1.65,1.65,1.6795,1.7076,1.7291,1.7076,1.7193,1.7674,1.6901,1.6635,1.6873,1.6613,1.65,1.65,1.65,1.65,1.65,1.65,1.65,1.6513,1.6773,1.6735,1.6525,1.6839,1.7541,1.848,1.8982,1.9434,1.9798,1.9798,1.9798,1.9798,1.9798,1.9798,1.9798,1.9798,1.9798,1.9798,1.9798,1.9371,1.8741,1.8128,1.8248,1.8741,1.9618,1.9798,1.9798,1.9798,1.9798,2.0016,2.0756,2.0295,1.9798,1.9798,1.9798,1.9798,1.9798,1.9798,1.9798,1.9798,1.9798,1.9798,1.9798,1.9798,1.9798,1.9798,2.0156,2.0371,2.0371,2.0371,2.0534,2.089,2.0584,2.0856,2.1894,2.2161,2.2711,2.3595,2.2592,2.2064,2.1968,2.2394,2.2437,1.6384,1.616,1.5896,1.638,1.6095,0.0,1.7659,1.8066,1.84,1.9406,1.9524,1.9301,1.885,1.8204,1.7316,1.597,1.5626,1.5065,1.3757,1.4443,1.542,1.6395,1.6909,1.7013,1.6552,1.693,1.7013,1.6531,1.6445,1.6402,1.6402,1.6402,1.6625,1.7092,1.6774,1.7088,1.8114,1.7173,1.6936,1.7398,1.6861,1.655,1.65,1.65,1.65,1.65,1.65,1.6538,1.666,1.7251,1.7141,1.6663,1.7328,1.8055,1.8832,1.9547,1.9798,1.9798,1.9798,1.9798,1.9798,1.9798,1.9798,1.9798,1.9798,1.9798,1.9798,1.9798,1.8688,1.7191,1.5777,1.7363,1.9307,1.9307,1.9553,1.9721,1.9385,1.9307,1.9307,1.9307,1.9579,1.9798,1.9798,1.9798,1.9798,1.9798,1.9798,1.9798,1.9798,1.9798,1.9798,1.9798,1.9798,1.9798,1.9798,1.9798,1.9798,1.9798,1.9798,1.9798,1.9798,1.9798,2.0131,2.0795,2.139,2.2294,2.3508,2.3008,2.2509,2.2074,2.2708,2.2645,1.6591,1.6718,1.6896,1.6573,1.6402,0.0,1.7291,1.7787,1.8283,1.893,1.9375,1.9561,1.93,1.8588,1.7748,1.6879,1.5774,1.4947,1.4708,1.5145,1.5734,1.6411,1.6595,1.6616,1.6522,1.6595,1.6616,1.6522,1.6051,1.5776,1.5776,1.5776,1.583,1.5928,1.6772,1.733,1.7543,1.7748,1.7702,1.741,1.7285,1.6974,1.65,1.65,1.65,1.65,1.65,1.6785,1.7257,1.7874,1.7773,1.7237,1.7501,1.8143,1.9008,1.9597,1.9798,1.9798,1.9798,1.9798,1.9798,1.9798,1.9798,1.9798,1.9798,1.9798,1.9798,1.9798,1.8474,1.6771,1.569,1.5825,1.6262,1.6262,1.8074,1.9137,1.6778,1.6262,1.6262,1.6262,1.8182,1.9798,1.9798,1.9798,1.9798,1.9798,1.9798,1.9798,1.9798,1.9798,1.9798,1.9798,1.9798,1.9798,1.9798,1.9798,1.9798,1.9798,1.9798,1.9798,1.9798,1.9798,2.0131,2.0795,2.139,2.21,2.2875,2.3088,2.3128,2.3034,2.3015,2.2927,1.5754,1.5808,1.6015,1.6039,1.6051,0.0,0.0,1.7504,1.7847,1.84,1.8902,1.9298,1.9459,1.8869,1.8238,1.7958,1.6817,1.5925,1.5777,1.5499,1.5596,1.6386,1.726,1.7566,1.6955,1.745,1.7439,1.6577,1.6497,1.6221,1.5622,1.561,1.555,1.5453,1.6392,1.7127,1.7641,1.8025,1.8066,1.779,1.7536,1.7074,1.65,1.65,1.65,1.6513,1.6823,1.7112,1.7471,1.8298,1.8471,1.8228,1.8644,1.8869,1.9058,1.961,1.9798,1.9798,1.9798,1.9798,1.9798,1.9798,1.9798,1.9798,1.9798,1.9798,1.9721,1.9359,1.8555,1.7539,1.6443,1.5777,1.541,1.541,1.6535,1.7197,1.5719,1.541,1.541,1.541,1.6592,1.8074,1.9553,1.9798,1.9798,1.9798,1.9798,1.9798,1.9798,1.9798,1.9798,1.9798,1.9798,1.9798,1.9798,1.9798,1.9798,1.9798,1.9798,1.9798,1.9798,1.9798,2.0131,2.0795,2.1088,2.1558,2.2193,2.2394,2.2829,2.3441,2.3349,2.313,1.4835,1.4631,1.4722,1.5297,1.5361,1.5588,0.0,0.0,0.0,1.7697,1.8175,1.8646,1.9037,1.871,1.8399,1.8592,1.7777,1.7029,1.6689,1.5876,1.5596,1.6395,1.794,1.8508,1.7406,1.818,1.8169,1.6784,1.7023,1.6827,1.5976,1.5794,1.5719,1.5694,1.6325,1.7158,1.8094,1.8388,1.8405,1.8191,1.7752,1.7174,1.65,1.65,1.65,1.6525,1.7137,1.7511,1.7737,1.8776,1.9182,1.9196,1.9748,1.9639,1.9208,1.9648,1.9798,1.9798,1.9798,1.9798,1.9798,1.9798,1.9798,1.9798,1.9798,1.9798,1.9669,1.9097,1.8821,1.8474,1.744,1.65,1.5748,1.5468,1.541,1.541,1.541,1.541,1.541,1.541,1.541,1.6348,1.9281,1.9798,1.9798,1.9798,1.9798,1.9798,1.9798,1.9798,1.9798,1.9798,1.9798,1.9798,1.9798,1.9798,1.9798,1.9798,1.9798,1.9798,1.9798,1.9798,2.0055,2.0597,2.0597,2.0906,2.152,2.152,2.2109,2.3238,2.3238,2.3052,1.4732,1.444,1.426,1.4711,1.4541,1.4544,1.5568,0.0,1.6527,1.6659,0.0,1.7448,1.7396,0.0,0.0,1.7949,1.7598,1.7253,1.7229,1.6689,1.6382,1.6488,1.7613,1.8102,1.7365,1.7427,1.7447,1.7317,1.6811,1.6703,1.7099,1.6479,1.6415,1.7061,1.7501,1.8087,1.8871,1.9371,1.9145,1.8204,1.8141,1.7551,1.65,1.65,1.65,1.6525,1.7137,1.7827,1.8629,1.951,1.9804,1.971,1.9775,1.9787,1.9723,1.9773,1.9798,1.9798,1.9798,1.9798,1.9798,1.9798,1.9798,1.9798,1.9798,1.9798,1.9773,1.9695,1.9202,1.8635,1.8309,1.7781,1.7024,1.5719,1.541,1.541,1.541,1.541,1.541,1.541,1.541,1.6348,1.9281,1.9798,1.9798,1.9798,1.9798,1.9798,1.9798,1.9798,1.9798,1.9798,1.9798,1.9798,1.9798,1.9798,1.9798,1.9798,1.9798,1.9798,1.9798,1.9798,1.9824,1.9901,1.9901,2.0245,2.0894,2.0894,2.1259,2.1908,2.1908,2.2197,1.3742,1.3523,1.3535,1.4054,1.4049,1.4135,1.4892,1.5065,1.5138,1.5404,0.0,0.0,0.0,0.0,0.0,0.0,1.6563,1.634,1.6786,1.6637,1.65,1.65,1.7583,1.8468,1.8882,1.8824,1.8639,1.8393,1.8103,1.7715,1.7327,1.7009,1.694,1.7116,1.7708,1.8276,1.8833,1.948,1.9422,1.8657,1.8355,1.779,1.7011,1.6651,1.65,1.655,1.7677,1.8355,1.8768,1.9569,1.9838,1.9798,1.9798,1.9798,1.9798,1.9798,1.9798,1.9798,1.9798,1.9798,1.9798,1.9798,1.9798,1.9798,1.9798,1.9798,1.9798,1.9798,1.9579,1.9319,1.924,1.9056,1.8301,1.5958,1.541,1.541,1.541,1.541,1.541,1.541,1.541,1.5796,1.703,1.8676,1.9798,1.9798,1.9798,1.9798,1.9798,1.9798,1.9798,1.9798,1.9798,1.9798,1.9798,1.9798,1.9798,1.9798,1.9798,1.9798,1.9798,1.9798,1.9798,1.9798,1.9798,1.9927,2.022,2.022,2.0333,2.0607,2.1363,2.2053,1.3017,1.2817,1.2845,1.3413,1.346,1.352,1.411,1.4049,1.3905,1.4228,1.3916,0.0,0.0,0.0,1.4415,1.5538,0.0,1.5402,1.5937,1.5998,1.6129,1.6457,1.7398,1.8436,1.9496,1.947,1.9217,1.8881,1.8947,1.8697,1.8019,1.7784,1.7725,1.7755,1.809,1.8502,1.9006,1.9527,1.9547,1.8995,1.8468,1.7915,1.7385,1.6785,1.66,1.6851,1.794,1.8518,1.8756,1.9346,1.9673,1.9798,1.9798,1.9798,1.9798,1.9798,1.9798,1.9798,1.9798,1.9669,1.9475,1.9254,1.9202,1.9228,1.9449,1.9501,1.9527,1.9747,1.9798,1.9798,1.9798,1.9798,1.9254,1.7113,1.6291,1.5882,1.5497,1.541,1.541,1.541,1.541,1.541,1.541,1.7169,1.8874,1.9669,1.9798,1.9798,1.9798,1.9798,1.9695,1.9436,1.9643,1.9721,1.9527,1.9683,1.9798,1.9798,1.9798,1.9798,1.9798,1.9798,1.9798,1.9798,1.9605,1.9618,1.9798,1.9618,1.9605,1.9824,2.0756,2.1534,1.2905,1.2578,1.2353,1.2822,1.2582,1.2421,1.3007,1.3153,1.3149,1.324,1.272,1.2436,1.2972,1.3001,1.319,1.3872,1.4407,0.0,0.0,1.4755,1.5186,1.6358,1.6985,1.7604,1.8281,1.8287,1.8243,1.8224,1.8719,1.9208,1.9697,1.9049,1.897,1.9696,1.9046,1.902,1.9747,1.9798,1.9547,1.8995,1.8468,1.7915,1.7385,1.6785,1.6889,1.7576,1.7603,1.8053,1.8731,1.8933,1.9321,1.9798,1.9798,1.9798,1.9798,1.9798,1.9798,1.9798,1.9798,1.9333,1.8608,1.7895,1.766,1.7786,1.8528,1.8741,1.8874,1.9618,1.9798,1.9798,1.9798,1.9798,1.9773,1.9683,1.8581,1.7135,1.5719,1.541,1.541,1.541,1.541,1.541,1.541,1.5497,1.6507,1.9359,1.9798,1.9798,1.9798,1.9798,1.9449,1.8536,1.9253,1.9501,1.8794,1.9397,1.9798,1.9798,1.9798,1.9798,1.9798,1.9798,1.9798,1.9798,1.9097,1.9097,1.9798,1.9097,1.9097,1.9798,1.985,2.022,1.3017,1.2773,1.2695,1.2866,1.2773,1.2728,1.2922,1.2739,1.2591,1.294,1.2567,1.2436,1.3192,1.3304,1.3593,1.4542,1.4857,1.4995,0.0,1.4876,1.4858,1.5254,1.6145,0.0,1.7643,1.8327,1.8914,1.9363,1.947,1.961,1.9798,1.9553,1.9527,1.9798,1.9553,1.9553,1.9798,1.9798,1.971,1.9522,1.8631,1.8103,1.789,1.6948,1.6638,1.6889,1.7378,1.8028,1.8731,1.892,1.9309,1.9798,1.9798,1.9798,1.9798,1.9798,1.9798,1.9721,1.9228,1.89,1.864,1.821,1.8069,1.8154,1.8668,1.8936,1.9083,1.9333,1.9607,1.9798,1.9798,1.9798,1.9307,1.7363,1.7993,1.8382,1.594,1.5777,1.5979,1.5497,1.5777,1.6122,1.6122,1.6528,1.7096,1.7786,1.8459,1.8871,1.8871,1.8871,1.8498,1.7506,1.7688,1.7895,1.7977,1.8194,1.8768,1.9747,1.9333,1.9071,1.9071,1.9527,1.9333,1.8355,1.8581,1.8581,1.8328,1.8581,1.8821,1.9097,1.9553,2.0156,1.3334,1.3055,1.2905,1.2905,1.2905,1.2905,1.2952,1.2562,1.2351,1.2852,1.2379,1.2139,1.3105,1.3195,1.3455,1.4388,1.4639,1.4733,0.0,1.4451,1.423,1.4082,1.5095,0.0,0.0,1.767,1.8505,1.9564,1.9571,1.961,1.9798,1.9798,1.9798,1.9798,1.9798,1.9798,1.9798,1.9798,1.9798,1.9798,1.892,1.8368,1.8166,1.7014,1.6613,1.6861,1.7365,1.8055,1.8807,1.8945,1.9309,1.9798,1.9798,1.9798,1.9798,1.9798,1.9798,1.972,1.9209,1.9012,1.8935,1.8367,1.8192,1.818,1.8123,1.8384,1.8816,1.9281,1.9207,1.89,1.837,1.8489,1.8301,1.6386,1.7501,1.8456,1.6461,1.6292,1.6345,1.5753,1.6119,1.6573,1.6777,1.765,1.8056,1.7279,1.7699,1.812,1.812,1.812,1.7754,1.6838,1.7129,1.7509,1.7807,1.7706,1.8015,1.8953,1.8821,1.8688,1.8688,1.915,1.8953,1.8004,1.7922,1.7825,1.7605,1.7813,1.8194,1.8715,1.9176,1.9773]}]]